[[{"header":{"parameterUnit":"m.s-1","parameterCategory":1,"la1":30.6,"la2":29.2853,"lo1":-89.7004,"lo2":-87.6739,"dy":0.0162,"dx":0.0183,"nx":112,"ny":82,"refTime":"2023-04-27T12:00:00:Z","depth":0,"parameterNumber":2,"parameterNumberName":"U-component_of_WINDS"},"data":[0.0,0.0,0.0,0.0,0.0,0.0,0.0,0.0,0.0,0.0,0.0,0.0,0.0,0.0,0.0,0.0,0.0,0.0,0.0,0.0,0.0,0.0,0.0,0.0,0.0,0.0,0.0,0.0,0.0,0.0,0.0,0.0,0.0,0.0,0.0,0.0,0.0,0.0,0.0,0.0,0.0,0.0,0.0,0.0,0.0,0.0,0.0,0.0,0.0,0.0,0.0,0.0,0.0,0.0,0.0,0.0,0.0,0.0,0.0,0.0,0.0,0.0,0.0,0.0,0.0,0.0,0.0,0.0,0.0,0.0,0.0,0.0,0.0,0.0,0.0,0.0,0.0,0.0,0.0,0.0,0.0,0.0,0.0,0.0,0.0,0.0,0.0,0.0,0.0,0.0,1.743,1.7945,1.8426,1.8465,1.7853,1.7644,1.749,1.7517,0.0,0.0,0.0,0.0,0.0,0.0,0.0,0.0,0.0,0.0,0.0,0.0,0.0,0.0,0.0,0.0,0.0,0.0,0.0,0.0,0.0,0.0,0.0,0.0,0.0,0.0,0.0,0.0,0.0,0.0,0.0,0.0,0.0,0.0,0.0,0.0,0.0,0.0,0.0,0.0,0.0,0.0,0.0,0.0,0.0,0.0,0.0,0.0,0.0,0.0,0.0,0.0,0.0,0.0,0.0,0.0,0.0,0.0,0.0,0.0,0.0,0.0,0.0,0.0,0.0,0.0,0.0,0.0,0.0,0.0,0.0,0.0,0.0,0.0,0.0,0.0,0.0,0.0,0.0,0.0,0.0,0.0,0.0,0.0,0.0,0.0,0.0,0.0,0.0,0.0,0.0,0.0,0.0,0.0,0.0,0.0,0.0,0.0,0.0,0.0,0.0,0.0,0.0,0.0,1.8414,1.8361,1.9265,1.9555,1.8837,1.8629,1.8405,1.791,0.0,0.0,0.0,0.0,0.0,0.0,0.0,0.0,0.0,0.0,0.0,0.0,0.0,0.0,0.0,0.0,0.0,0.0,0.0,0.0,0.0,0.0,0.0,0.0,0.0,0.0,0.0,0.0,0.0,0.0,0.0,0.0,0.0,0.0,0.0,0.0,0.0,0.0,0.0,0.0,0.0,0.0,0.0,0.0,0.0,0.0,0.0,0.0,0.0,0.0,0.0,0.0,0.0,0.0,0.0,0.0,0.0,0.0,0.0,0.0,0.0,0.0,0.0,0.0,0.0,0.0,0.0,0.0,0.0,0.0,0.0,0.0,0.0,0.0,0.0,0.0,0.0,0.0,0.0,0.0,0.0,0.0,0.0,0.0,0.0,0.0,0.0,0.0,0.0,0.0,0.0,0.0,0.0,0.0,0.0,0.0,0.0,0.0,0.0,0.0,0.0,0.0,0.0,1.8542,1.8433,1.8191,1.8629,1.8798,1.8462,1.8307,1.8182,1.8008,1.761,0.0,0.0,0.0,0.0,0.0,0.0,0.0,0.0,0.0,0.0,0.0,0.0,0.0,0.0,0.0,0.0,0.0,0.0,0.0,0.0,0.0,0.0,0.0,0.0,0.0,0.0,0.0,0.0,0.0,0.0,0.0,0.0,0.0,0.0,0.0,0.0,0.0,0.0,0.0,0.0,0.0,0.0,0.0,0.0,0.0,0.0,0.0,0.0,0.0,0.0,0.0,0.0,0.0,0.0,0.0,0.0,0.0,0.0,0.0,0.0,0.0,0.0,0.0,0.0,0.0,0.0,0.0,0.0,0.0,0.0,0.0,0.0,0.0,0.0,0.0,0.0,0.0,0.0,0.0,0.0,0.0,0.0,0.0,0.0,0.0,0.0,0.0,0.0,0.0,0.0,0.0,0.0,0.0,0.0,0.0,0.0,0.0,0.0,0.0,0.0,0.0,0.0,1.8476,1.8203,1.8018,1.8008,1.8008,1.8008,1.7784,1.7784,1.8008,1.7784,0.0,0.0,0.0,0.0,0.0,0.0,0.0,0.0,0.0,0.0,0.0,0.0,0.0,0.0,0.0,0.0,0.0,0.0,0.0,0.0,0.0,0.0,0.0,0.0,0.0,0.0,0.0,0.0,0.0,0.0,0.0,0.0,0.0,0.0,0.0,0.0,0.0,0.0,0.0,0.0,0.0,0.0,0.0,0.0,0.0,0.0,0.0,0.0,0.0,0.0,0.0,0.0,0.0,0.0,0.0,0.0,0.0,0.0,0.0,0.0,0.0,0.0,0.0,0.0,0.0,0.0,0.0,0.0,0.0,0.0,0.0,0.0,0.0,0.0,0.0,0.0,0.0,0.0,0.0,0.0,0.0,0.0,0.0,0.0,0.0,0.0,0.0,0.0,0.0,0.0,0.0,0.0,0.0,0.0,0.0,0.0,0.0,0.0,0.0,0.0,0.0,0.0,1.8839,1.8018,1.8008,1.8008,1.8008,1.8008,1.7784,1.7784,1.8008,1.7784,0.0,0.0,0.0,0.0,0.0,0.0,0.0,0.0,0.0,0.0,0.0,0.0,0.0,0.0,0.0,0.0,0.0,0.0,0.0,0.0,0.0,0.0,0.0,0.0,0.0,0.0,0.0,0.0,0.0,0.0,0.0,0.0,0.0,0.0,0.0,0.0,0.0,0.0,0.0,0.0,0.0,0.0,0.0,0.0,0.0,0.0,0.0,0.0,0.0,0.0,0.0,0.0,0.0,0.0,0.0,0.0,0.0,0.0,0.0,0.0,0.0,0.0,0.0,0.0,0.0,0.0,0.0,0.0,0.0,0.0,0.0,0.0,0.0,0.0,0.0,0.0,0.0,0.0,0.0,0.0,0.0,0.0,0.0,0.0,0.0,0.0,0.0,0.0,0.0,0.0,0.0,0.0,0.0,0.0,0.0,0.0,0.0,0.0,0.0,0.0,0.0,0.0,1.8937,1.8466,0.0,1.8008,1.794,1.7784,1.7716,1.7706,1.7784,0.0,0.0,0.0,0.0,0.0,0.0,0.0,0.0,0.0,0.0,0.0,0.0,0.0,0.0,0.0,0.0,0.0,0.0,0.0,0.0,0.0,0.0,0.0,0.0,0.0,0.0,0.0,0.0,0.0,0.0,0.0,0.0,0.0,0.0,0.0,0.0,0.0,0.0,0.0,0.0,0.0,0.0,0.0,0.0,0.0,0.0,0.0,0.0,0.0,0.0,0.0,0.0,0.0,0.0,0.0,0.0,0.0,0.0,0.0,0.0,0.0,0.0,0.0,0.0,0.0,0.0,0.0,0.0,0.0,0.0,0.0,0.0,0.0,0.0,0.0,0.0,0.0,0.0,0.0,0.0,0.0,0.0,0.0,0.0,0.0,0.0,0.0,0.0,0.0,0.0,0.0,0.0,0.0,0.0,0.0,0.0,0.0,0.0,0.0,0.0,0.0,0.0,1.9073,1.8723,1.8428,0.0,1.7813,1.7657,1.7285,1.7285,1.7285,1.7345,0.0,0.0,0.0,0.0,0.0,0.0,0.0,0.0,0.0,0.0,0.0,0.0,0.0,0.0,0.0,0.0,0.0,0.0,0.0,0.0,0.0,0.0,0.0,0.0,0.0,0.0,0.0,0.0,0.0,0.0,0.0,0.0,0.0,0.0,0.0,0.0,0.0,0.0,0.0,0.0,0.0,0.0,0.0,0.0,0.0,0.0,0.0,0.0,0.0,0.0,0.0,0.0,0.0,0.0,0.0,0.0,0.0,0.0,0.0,0.0,0.0,0.0,0.0,0.0,0.0,0.0,0.0,0.0,0.0,0.0,0.0,0.0,0.0,0.0,0.0,0.0,0.0,0.0,0.0,0.0,0.0,0.0,0.0,0.0,0.0,0.0,0.0,0.0,0.0,0.0,0.0,0.0,0.0,0.0,0.0,0.0,0.0,0.0,0.0,0.0,0.0,0.0,1.8813,1.8105,1.7636,1.747,1.747,1.7176,1.6376,1.6306,1.6367,0.0,0.0,0.0,0.0,0.0,0.0,0.0,0.0,0.0,0.0,0.0,0.0,0.0,0.0,0.0,0.0,0.0,0.0,0.0,0.0,0.0,0.0,0.0,0.0,0.0,0.0,0.0,0.0,0.0,0.0,0.0,0.0,0.0,0.0,0.0,0.0,0.0,0.0,0.0,0.0,0.0,0.0,0.0,0.0,0.0,0.0,0.0,0.0,0.0,0.0,0.0,0.0,0.0,0.0,0.0,0.0,0.0,0.0,0.0,0.0,0.0,0.0,0.0,0.0,0.0,0.0,0.0,0.0,0.0,0.0,0.0,0.0,0.0,0.0,0.0,0.0,0.0,0.0,0.0,0.0,0.0,0.0,0.0,0.0,0.0,0.0,0.0,0.0,0.0,0.0,0.0,0.0,0.0,0.0,0.0,0.0,0.0,0.0,0.0,0.0,0.0,0.0,0.0,1.7996,1.6808,1.614,1.6603,1.6167,1.5737,1.5321,1.5321,1.5604,1.6367,0.0,0.0,0.0,0.0,0.0,0.0,0.0,0.0,0.0,0.0,0.0,0.0,0.0,0.0,0.0,0.0,0.0,0.0,0.0,0.0,0.0,0.0,0.0,0.0,0.0,0.0,0.0,0.0,0.0,0.0,0.0,0.0,0.0,0.0,0.0,0.0,0.0,0.0,0.0,0.0,0.0,0.0,0.0,0.0,0.0,0.0,0.0,0.0,0.0,0.0,0.0,0.0,0.0,0.0,0.0,0.0,0.0,0.0,0.0,0.0,0.0,0.0,0.0,0.0,0.0,0.0,0.0,0.0,0.0,0.0,0.0,0.0,0.0,0.0,0.0,0.0,0.0,0.0,0.0,0.0,0.0,0.0,0.0,0.0,0.0,0.0,0.0,0.0,0.0,0.0,0.0,0.0,0.0,0.0,0.0,0.0,0.0,0.0,0.0,0.0,0.0,0.0,1.7257,1.6048,1.5303,1.5683,1.5242,1.4816,1.4394,1.4322,1.4609,1.5234,0.0,0.0,0.0,0.0,0.0,0.0,0.0,0.0,0.0,0.0,0.0,0.0,0.0,0.0,0.0,0.0,0.0,0.0,0.0,0.0,0.0,0.0,0.0,0.0,0.0,0.0,0.0,0.0,0.0,0.0,0.0,0.0,0.0,0.0,0.0,0.0,0.0,0.0,0.0,0.0,0.0,0.0,0.0,0.0,0.0,0.0,0.0,0.0,0.0,0.0,0.0,0.0,0.0,0.0,0.0,0.0,0.0,0.0,0.0,0.0,0.0,0.0,0.0,0.0,0.0,0.0,0.0,0.0,0.0,0.0,0.0,0.0,0.0,0.0,0.0,0.0,0.0,0.0,0.0,0.0,0.0,0.0,0.0,0.0,0.0,0.0,0.0,0.0,0.0,0.0,0.0,0.0,0.0,0.0,0.0,0.0,0.0,0.0,0.0,0.0,0.0,0.0,1.656,1.5615,1.4864,1.4768,1.4537,1.4106,1.3462,1.339,1.3455,1.3673,0.0,0.0,0.0,0.0,0.0,0.0,0.0,0.0,0.0,0.0,0.0,0.0,0.0,0.0,0.0,0.0,0.0,0.0,0.0,0.0,0.0,0.0,0.0,0.0,0.0,0.0,0.0,0.0,0.0,0.0,0.0,0.0,0.0,0.0,0.0,0.0,0.0,0.0,0.0,0.0,0.0,0.0,0.0,0.0,0.0,0.0,0.0,0.0,0.0,0.0,0.0,0.0,0.0,0.0,0.0,0.0,0.0,0.0,0.0,0.0,1.1155,0.0,0.0,0.0,0.0,0.0,0.0,0.0,0.0,0.0,0.0,0.0,0.0,0.0,0.0,0.0,0.0,0.0,0.0,0.0,0.0,0.0,0.0,0.0,0.0,0.0,0.0,0.0,0.0,0.0,0.0,0.0,0.0,0.0,0.0,0.0,0.0,0.0,0.0,0.0,0.0,0.0,1.6302,1.4336,1.3171,1.3753,1.3171,1.2739,1.2592,1.2592,1.2879,1.3673,1.3171,0.0,0.0,0.0,0.0,0.0,0.0,0.0,0.0,0.0,0.0,0.0,0.0,0.0,0.0,0.0,0.0,0.0,0.0,0.0,0.0,0.0,0.0,0.0,0.0,0.0,0.0,0.0,0.0,0.0,0.0,0.0,0.0,0.0,0.0,0.0,0.0,0.0,0.0,0.0,0.0,0.0,0.0,0.0,0.0,0.0,0.0,0.0,0.0,0.0,0.0,0.0,0.0,0.0,0.0,0.0,0.0,0.0,0.0,0.0,0.0,1.053,0.0,0.0,0.0,0.0,0.0,0.0,0.0,0.0,0.0,0.0,0.0,0.0,0.0,0.0,0.0,0.0,0.0,0.0,0.0,0.0,0.0,0.0,0.0,0.0,0.0,0.0,0.0,0.0,0.0,0.0,0.0,0.0,0.0,0.0,0.0,0.0,0.0,0.0,0.0,0.0,1.5349,1.3616,1.2586,1.3032,1.2722,1.2518,1.2518,1.2266,1.226,1.2782,1.2088,0.0,0.0,0.0,0.0,0.0,0.0,0.0,0.0,0.0,0.0,0.0,0.0,0.0,0.0,0.0,0.0,0.0,0.0,0.0,0.0,0.0,0.0,0.0,0.0,0.0,0.0,0.0,0.0,0.0,0.0,0.0,0.0,0.0,0.0,0.0,0.0,0.0,0.0,0.0,0.0,0.0,0.0,0.0,0.0,0.0,0.0,0.0,0.0,0.0,0.0,0.0,0.0,0.0,0.8333,0.8617,0.8622,0.8679,0.806,0.6917,0.7898,0.8283,0.8364,0.997,0.0,0.0,0.0,0.0,0.0,0.0,0.0,0.0,0.0,0.0,0.0,0.0,0.0,0.0,0.0,0.0,0.0,0.0,0.0,0.0,0.0,0.0,0.0,0.0,1.0357,1.0672,0.0,0.0,0.0,0.0,0.0,0.0,0.0,0.0,0.0,0.0,0.0,0.0,1.4101,1.304,1.2398,1.2378,1.2494,1.2588,1.2428,1.1854,1.1582,1.1582,1.1003,1.0589,0.0,0.0,0.0,0.0,0.0,0.0,0.0,0.0,0.0,0.0,0.0,0.0,0.0,0.0,0.0,0.0,0.0,0.0,0.0,0.0,0.0,0.0,0.0,0.0,0.0,0.0,0.0,0.0,0.0,0.0,0.0,0.0,0.7307,0.6915,0.0,0.0,0.0,0.0,0.0,0.0,0.0,0.0,0.0,0.0,0.0,0.0,0.0,0.7333,0.6483,0.6068,0.5499,0.4921,0.4377,0.4175,0.4175,0.419,0.4054,0.3909,0.4023,0.0,0.7683,0.7234,0.0,0.0,0.0,0.0,0.0,0.0,0.0,0.0,0.0,0.0,0.0,0.0,0.0,0.0,0.0,0.0,0.0,0.0,0.0,0.0,0.0,0.0,0.9807,0.9697,0.9794,1.0016,0.0,1.1331,1.2284,1.3254,1.314,0.0,0.0,0.0,0.0,0.0,0.0,0.0,1.2755,1.2088,1.1617,1.1526,1.1769,1.1609,1.0792,1.0659,1.0595,1.0595,1.0514,1.0498,1.0707,1.0787,0.0,0.0,0.0,0.0,0.0,0.0,0.0,0.0,0.0,0.0,0.0,0.0,0.0,0.0,0.0,0.0,0.0,0.0,0.0,0.0,0.0,0.0,0.0,0.0,0.0,0.0,0.0,0.0,0.0,0.685,0.6527,0.5997,0.5866,0.5774,0.0,0.0,0.0,0.0,0.0,0.0,0.0,0.0,0.0,0.7157,0.7296,0.6746,0.5663,0.4421,0.3621,0.3405,0.3389,0.3417,0.3419,0.3541,0.3336,0.2885,0.2885,0.3553,0.4795,0.5519,0.6325,0.7293,0.0,0.0,0.0,0.0,0.9904,0.951,0.8891,0.8425,0.0,0.8795,0.0,0.0,0.0,0.0,0.0,0.0,0.0,0.0,0.0,0.0,0.8783,0.8454,0.8477,0.8537,0.8537,0.8975,0.9838,0.0,1.222,1.2935,1.4279,0.0,0.0,0.0,0.0,1.1837,1.1414,1.1038,1.0813,1.0835,1.1075,1.1144,1.0728,1.0345,1.0085,1.0085,0.9667,0.9363,0.9326,0.9893,1.0162,0.0,0.0,0.0,0.0,0.0,0.0,0.0,0.0,0.0,0.0,0.0,0.0,0.0,0.0,0.0,0.0,0.0,0.0,0.0,0.0,0.0,0.0,0.0,0.0,0.0,0.0,0.0,0.0,0.555,0.5679,0.5084,0.5017,0.5129,0.0,0.0,0.0,0.0,0.0,0.0,0.4558,0.4563,0.5201,0.6626,0.6591,0.5868,0.4461,0.3115,0.2371,0.2298,0.272,0.2974,0.2976,0.3105,0.282,0.2198,0.2198,0.2198,0.2345,0.393,0.4579,0.4659,0.6726,0.7338,0.7144,0.813,0.8144,0.7667,0.6899,0.635,0.6083,0.6734,0.7275,0.7964,0.9221,0.0,0.0,0.0,0.0,0.9307,0.8675,0.83,0.7992,0.7604,0.7407,0.733,0.7484,0.7557,0.8138,0.0,1.0816,1.155,1.2643,0.0,0.0,0.0,0.0,1.066,1.0234,1.0075,1.011,1.0192,1.0418,1.0562,1.0309,0.9856,0.9602,0.9602,0.8999,0.8507,0.8365,0.9114,0.9297,0.8827,0.0,0.0,0.0,0.0,0.0,0.0,0.0,0.0,0.0,0.0,0.0,0.0,0.0,0.0,0.0,0.0,0.0,0.0,0.0,0.0,0.0,0.0,0.0,0.0,0.0,0.0,0.0,0.0,0.0,0.4367,0.4372,0.0,0.0,0.0,0.0,0.2894,0.283,0.264,0.225,0.233,0.2709,0.339,0.4013,0.3673,0.2344,0.2187,0.1876,0.133,0.141,0.1412,0.1412,0.1413,0.1414,0.1335,0.1335,0.1335,0.1412,0.2136,0.3308,0.4559,0.4589,0.4971,0.5467,0.4899,0.4687,0.4547,0.377,0.3485,0.3501,0.3661,0.4801,0.6113,0.6572,0.7399,0.0,0.0,0.7423,0.7736,0.6923,0.7161,0.7548,0.748,0.7099,0.6795,0.7407,0.7621,0.799,0.0,0.8232,0.8282,1.0109,0.0,0.9288,0.9453,0.9443,0.9374,0.9306,0.9516,0.9695,0.9541,0.9809,0.9584,0.8815,0.8648,0.8656,0.8656,0.8656,0.8564,0.8556,0.864,0.8811,0.9231,0.8435,0.0,0.0,0.0,0.0,0.0,0.0,0.0,0.0,0.0,0.0,0.0,0.0,0.0,0.0,0.0,0.0,0.0,0.0,0.0,0.0,0.0,0.0,0.0,0.0,0.0,0.0,0.0,0.0,0.2885,0.3691,0.0,0.3109,0.3851,0.4372,0.4184,0.2196,0.0914,0.0756,0.1304,0.1704,0.1937,0.2188,0.1805,0.0785,0.1334,0.1492,0.1335,0.1335,0.1335,0.1257,0.0864,0.0629,0.0628,0.0236,0.0079,-0.0,0.0238,0.1176,0.2547,0.2983,0.3351,0.3577,0.388,0.4029,0.3955,0.3732,0.3658,0.3665,0.3851,0.4269,0.4836,0.5381,0.5764,0.6069,0.6002,0.6234,0.6311,0.6012,0.6089,0.624,0.624,0.6089,0.6012,0.624,0.6314,0.6458,0.6663,0.7575,0.8339,0.8576,0.841,0.8277,0.844,0.85,0.8459,0.8635,0.8321,0.815,0.8178,0.7891,0.7749,0.7845,0.7492,0.7408,0.7848,0.7408,0.7139,0.7139,0.7139,0.7228,0.7401,0.7519,0.7661,0.0,0.0,0.0,0.0,0.0,0.0,0.0,0.0,0.0,0.0,0.0,0.0,0.0,0.0,0.0,0.0,0.0,0.0,0.0,0.0,0.0,0.0,0.0,0.0,0.0,0.0,0.1413,0.1358,0.1245,0.1201,0.1233,0.1712,0.2115,0.2417,0.0386,-0.0856,-0.0996,-0.0466,-0.0,0.0235,0.0549,0.0392,-0.0235,-0.0,0.0235,0.0392,0.0392,0.0392,0.0392,0.0157,-0.0,-0.0,-0.0393,-0.0634,-0.0642,-0.0642,-0.0159,0.0708,0.1197,0.1364,0.1443,0.2064,0.2294,0.2292,0.2275,0.2347,0.2347,0.2657,0.2737,0.2815,0.3359,0.3673,0.3908,0.4373,0.4763,0.5157,0.5237,0.5467,0.5622,0.5622,0.55,0.5375,0.5611,0.5489,0.5427,0.5695,0.6777,0.7563,0.723,0.7184,0.7274,0.7648,0.7562,0.7577,0.7944,0.7407,0.6944,0.7126,0.6694,0.6605,0.7048,0.6871,0.6871,0.7136,0.6871,0.6694,0.6428,0.6517,0.6517,0.6517,0.6871,0.7136,0.7221,0.0,0.0,0.0,0.0,0.0,0.0,0.0,0.0,0.0,0.0,0.0,0.0,0.0,0.0,0.0,0.0,0.0,0.0,0.0,0.0,0.0,0.0,0.0,-0.2348,-0.1008,-0.0136,-0.007,-0.2949,-0.3774,-0.0872,-0.1789,-0.2572,-0.2569,-0.2549,-0.266,-0.2974,-0.2974,-0.266,-0.2033,-0.1017,-0.0627,-0.0863,-0.1726,-0.1884,-0.1335,-0.1335,-0.1335,-0.1256,-0.0865,-0.063,-0.063,-0.063,-0.063,-0.0631,-0.0631,-0.0631,-0.0713,-0.0744,-0.0755,-0.0753,-0.0737,-0.0731,-0.0729,-0.0634,-0.063,-0.0551,-0.0157,-0.0,0.0078,0.0471,0.1021,0.1649,0.2038,0.3057,0.4077,0.4474,0.5015,0.5479,0.5479,0.5099,0.4862,0.5511,0.5279,0.5092,0.5601,0.5741,0.5674,0.5761,0.5814,0.6183,0.7031,0.6593,0.0,0.7344,0.6795,0.6343,0.6343,0.634,0.634,0.6343,0.7048,0.7136,0.6428,0.7048,0.7048,0.634,0.6602,0.6688,0.6688,0.6254,0.6254,0.6688,0.0,0.0,0.0,0.0,0.0,0.0,0.0,0.0,0.0,0.0,0.0,0.0,0.0,0.0,0.0,0.0,0.0,0.0,0.0,0.0,0.0,0.0,-0.5352,-0.3899,-0.3562,-0.2988,-0.1955,-0.2605,-0.3442,-0.3991,-0.4183,-0.4307,-0.4302,-0.4342,-0.4316,-0.4396,-0.4396,-0.4316,-0.4157,-0.3845,-0.3559,-0.3216,-0.2813,-0.2756,-0.2802,-0.2802,-0.2306,-0.1481,-0.1812,-0.1732,-0.1403,-0.1899,-0.2167,-0.2201,-0.2201,-0.2222,-0.216,-0.1165,-0.0737,-0.0738,-0.0746,-0.0749,-0.0749,-0.0744,-0.0742,-0.0742,-0.0577,-0.0577,-0.0495,-0.0082,0.0165,0.0412,0.0823,0.1317,0.173,0.1812,0.214,0.2387,0.2387,0.2317,0.2244,0.241,0.2339,0.227,0.2452,0.2496,0.3068,0.4891,0.5714,0.6034,0.5797,0.6077,0.0,0.6646,0.6094,0.5638,0.5638,0.5188,0.5099,0.5636,0.5366,0.5366,0.5636,0.5366,0.5097,0.4921,0.4919,0.4736,0.4196,0.4022,0.3842,0.0,0.0,0.0,0.0,0.0,0.0,0.0,0.0,0.0,0.0,0.0,0.0,0.0,0.0,0.0,0.0,0.0,0.0,0.0,0.0,0.0,0.0,-0.7836,-0.6509,-0.5457,-0.5199,-0.4868,-0.4027,-0.3999,-0.45,-0.5643,-0.5263,-0.4975,-0.4965,-0.4985,-0.5026,-0.5026,-0.5069,-0.5097,-0.5097,-0.4986,-0.4801,-0.4615,-0.3952,-0.3896,-0.4285,-0.3863,-0.3271,-0.2514,-0.2603,-0.2436,-0.2102,-0.2523,-0.2713,-0.2745,-0.2745,-0.2766,0.0,0.0,0.0,0.0,0.0,-0.161,-0.1597,-0.1597,-0.1597,-0.1597,-0.1597,-0.1597,-0.1513,-0.1344,-0.1092,-0.0756,-0.0336,0.0084,0.042,0.0756,0.0924,0.1092,0.1176,0.1185,0.1278,0.1278,0.1287,0.1298,0.1307,0.13,0.0,0.3206,0.4208,0.4931,0.5203,0.546,0.5638,0.5927,0.5382,0.4924,0.4924,0.4208,0.3851,0.4297,0.3848,0.0,0.0,0.0,0.3489,0.3223,0.3223,0.0,0.0,0.0,0.2502,0.2144,0.0,0.0,0.0,0.5676,0.5769,0.0,0.0,0.0,0.0,0.0,0.0,0.0,0.0,0.0,0.0,0.0,0.0,0.0,0.0,0.0,0.0,-0.8424,-0.7632,-0.7138,-0.6594,-0.6216,-0.6057,-0.62,-0.6287,-0.6281,-0.5649,-0.526,-0.5288,-0.5277,-0.5274,-0.5288,0.0,0.0,0.0,0.0,-0.521,-0.5566,-0.5225,-0.5317,-0.5759,-0.4816,-0.4307,-0.4223,-0.3386,-0.2882,-0.2797,-0.2797,-0.2797,-0.2713,-0.2713,-0.2797,-0.2892,-0.2912,-0.2868,-0.2868,-0.2813,-0.2759,-0.2713,-0.2713,0.0,0.0,-0.2797,-0.288,-0.3049,-0.2882,-0.2456,-0.1947,-0.1524,-0.1015,-0.0338,0.0254,0.0508,0.0592,0.0846,0.0945,0.0959,0.0959,0.1061,0.1074,0.1074,0.1074,0.1073,0.1251,0.2054,0.322,0.475,0.4389,0.4208,0.4842,0.4391,0.3939,0.3939,0.0,0.0,0.2688,0.2505,0.2056,0.1431,0.2056,0.2146,0.179,0.179,0.1789,0.1876,0.1876,0.1787,0.1697,0.1697,0.2055,0.2772,0.313,0.4032,0.0,0.0,0.0,0.0,0.0,0.0,0.0,0.0,0.0,0.0,0.0,0.0,0.0,0.0,0.0,-1.0333,-0.9614,-0.9116,-0.9439,-0.9129,-0.8288,-0.6752,-0.6659,-0.681,-0.6813,-0.6631,-0.6659,-0.6912,-0.6809,-0.6875,-0.7008,-0.7044,-0.7058,-0.7058,-0.7005,-0.7083,-0.7218,-0.7133,-0.719,-0.7309,0.0,0.0,-0.5646,-0.4946,-0.4158,-0.3456,-0.3456,-0.3192,-0.2839,-0.2839,-0.3279,-0.3892,-0.316,-0.2831,-0.2873,-0.2861,-0.2849,-0.2839,-0.2839,-0.3367,-0.3894,-0.3103,-0.3896,-0.4949,-0.4246,-0.3894,0.0,-0.3715,-0.2921,-0.2039,-0.1861,-0.1595,-0.1241,-0.1241,-0.1067,-0.0891,-0.0891,-0.0894,-0.0896,-0.0896,-0.0896,-0.0628,0.0179,0.1073,0.1786,0.2144,0.2054,0.2055,0.2148,0.2058,0.1969,0.1969,0.179,0.17,0.17,0.161,0.1521,0.1431,0.1521,0.161,0.1522,0.1522,0.1164,0.0448,0.0448,-0.0,-0.0717,-0.0717,-0.0627,-0.0448,0.2146,0.3312,0.0,0.0,0.0,0.0,0.0,0.0,0.0,0.0,0.0,0.0,0.0,-1.2182,0.0,0.0,-1.1339,-1.1486,-1.096,-1.0481,-1.0539,-1.0104,-0.9288,-0.8169,-0.7795,-0.7585,-0.7446,-0.7219,-0.7126,-0.7292,-0.7307,-0.7426,-0.7514,-0.7598,-0.7563,-0.7563,-0.7639,-0.7718,-0.7718,-0.7718,-0.7755,-0.7834,-0.7214,-0.6861,-0.6596,-0.5891,-0.5272,-0.483,-0.4743,-0.4476,-0.43,-0.43,-0.4565,-0.4914,-0.4423,-0.4259,-0.43,-0.43,-0.43,-0.43,-0.43,-0.4565,-0.4921,-0.4476,-0.4921,-0.563,-0.5186,-0.501,-0.501,-0.501,-0.4565,-0.4028,-0.3848,-0.3578,-0.331,-0.3132,-0.2953,-0.2685,-0.224,-0.2152,-0.2152,-0.2154,-0.2154,-0.2154,-0.2154,-0.1343,-0.0268,0.1163,0.1431,0.1432,0.1433,0.1433,0.1433,0.1431,0.0985,0.0717,0.0717,0.0269,-0.0,-0.0,-0.0,-0.0,-0.0,-0.0,-0.0179,-0.0718,-0.0718,-0.0897,-0.1436,-0.1436,-0.1436,-0.1345,0.0448,0.1343,0.0,0.0,0.0,0.0,0.0,0.0,0.0,0.0,-1.4172,-1.2867,-1.2498,-1.246,-1.2523,-1.2315,-1.2217,-1.2336,-1.2033,-1.167,-1.1441,-1.0831,-1.0363,-0.9916,-0.9069,-0.8403,-0.8141,-0.7812,-0.7609,-0.7676,-0.7816,-0.7915,-0.7947,-0.8086,-0.8166,-0.8166,-0.8206,-0.8185,-0.8185,-0.8185,-0.8185,-0.8185,-0.7742,-0.7474,-0.739,-0.6773,-0.6422,-0.6245,-0.5894,-0.5808,-0.5808,-0.5719,-0.5808,-0.5985,-0.5985,-0.6077,-0.6251,-0.5808,-0.5719,-0.5719,-0.5719,-0.5808,-0.5897,-0.5719,-0.5985,-0.6254,-0.6074,-0.5985,-0.5985,-0.5985,-0.5808,-0.563,-0.5267,-0.5087,-0.4999,-0.4554,-0.4378,-0.4111,-0.3312,-0.3136,-0.3141,-0.3144,-0.3141,-0.3405,-0.4127,-0.3676,-0.2329,0.0179,0.0718,0.0897,0.0897,0.0897,0.0896,0.0895,0.0179,-0.0269,-0.0269,-0.0987,-0.1436,-0.1436,-0.1436,-0.1436,-0.1436,-0.1436,-0.1436,-0.1436,-0.1614,-0.1704,-0.1704,-0.1882,-0.1792,-0.1435,-0.1254,-0.0718,-1.8267,-1.7689,-1.7267,-1.7067,-1.7011,-1.6606,0.0,0.0,-1.4264,-1.292,-1.2243,-1.1954,-1.2255,-1.1956,-1.1829,-1.2367,-1.2438,-1.2444,-1.2656,-1.2652,-1.2445,-1.1977,-1.004,-0.8846,-0.935,-0.9001,-0.8935,-0.9294,-0.9344,-0.9432,-0.9698,-0.973,-0.974,-0.974,-0.9763,-0.9772,-0.9772,-0.9772,-0.9772,-0.9772,-0.9065,-0.8711,-0.8715,-0.7921,-0.739,-0.6946,-0.6334,-0.6068,-0.6071,-0.5808,-0.6163,-0.6962,-0.6962,-0.7496,-0.8032,-0.634,-0.5719,-0.5719,-0.5719,-0.6251,-0.6786,-0.5985,-0.6874,-0.812,-0.7231,-0.6962,-0.6962,-0.6962,-0.634,-0.5719,-0.563,-0.545,-0.5267,-0.4999,-0.4734,-0.4469,-0.42,-0.4125,-0.4137,-0.4139,-0.4109,-0.4174,-0.4265,-0.4174,-0.3739,-0.2601,-0.1615,-0.1076,-0.1076,-0.1076,-0.1076,-0.1076,-0.1166,-0.1256,-0.1256,-0.1345,-0.1436,-0.1436,-0.1436,-0.1436,-0.1436,-0.1436,-0.1436,-0.1436,-0.224,-0.2688,-0.2777,-0.3578,-0.3129,-0.1432,-0.2233,-0.1699,-1.7909,-1.7645,-1.7534,0.0,-1.6797,-1.6379,-1.4923,-1.4569,-1.4222,-1.2858,-1.2602,-1.2592,-1.2732,-1.3109,-1.3393,0.0,-1.3509,-1.3528,-1.3404,-1.2952,-1.264,-1.2886,-1.162,-1.0829,-1.0939,-1.0982,-1.0838,-1.0449,-1.0508,-1.0459,-1.0033,-1.0038,-1.0038,-1.0038,-1.0038,-1.0038,-1.0038,-1.0038,-1.0038,-1.0038,-0.9685,-0.9506,-0.951,-0.919,-0.8939,-0.8667,-0.811,-0.7889,-0.7882,-0.7531,-0.7584,-0.794,-0.794,-0.8208,-0.8476,-0.7676,-0.7408,-0.7408,-0.7408,-0.7676,-0.794,-0.7496,-0.7944,-0.8476,-0.812,-0.794,-0.794,-0.794,-0.7676,-0.7319,-0.7228,-0.7136,-0.6956,-0.6779,-0.6517,-0.6074,-0.5447,-0.5188,-0.5109,-0.5114,-0.5109,-0.5277,-0.5877,-0.551,-0.4979,-0.4552,-0.3673,-0.3054,-0.3054,-0.3047,-0.3132,-0.3132,-0.3132,-0.3132,-0.3132,-0.3132,-0.3132,-0.3132,-0.3132,-0.3132,-0.3132,-0.3132,-0.3132,-0.3132,-0.3489,-0.3757,-0.3757,-0.4111,-0.4022,-0.3576,-0.3303,-0.3486,-1.7963,-1.7799,-1.7744,-1.6976,-1.6694,-1.6275,-1.5108,-1.4765,-1.441,-1.3338,-1.3393,-1.3611,-1.3526,-1.4271,-1.4767,-1.4299,-1.4405,-1.4446,-1.4103,-1.3382,-1.3198,-1.3826,-1.3404,-1.3027,-1.303,-1.2705,-1.2236,-1.155,-1.156,-1.1408,-1.0804,-1.0717,-1.0717,-1.0717,-1.0717,-1.0717,-1.0717,-1.0717,-1.0636,-1.0381,-1.0636,-1.0463,-0.996,-0.9995,-1.0022,-1.0107,-0.9683,-0.9436,-0.9423,-0.9063,-0.8814,-0.8722,-0.8673,-0.8652,-0.8568,-0.8568,-0.8568,-0.8568,-0.8568,-0.8568,-0.8568,-0.8568,-0.8568,-0.8568,-0.8568,-0.8568,-0.8568,-0.8568,-0.8568,-0.8564,-0.838,-0.8292,-0.8292,-0.8028,-0.7856,-0.7499,-0.6782,-0.6432,-0.626,-0.6174,-0.6192,-0.6376,-0.6969,-0.6505,-0.6054,-0.6054,-0.5544,-0.4844,-0.4393,-0.4293,-0.4287,-0.4289,-0.4289,-0.4289,-0.4289,-0.4289,-0.4289,-0.4289,-0.4289,-0.4289,-0.4289,-0.4289,-0.4289,-0.4289,-0.4556,-0.4645,-0.4645,-0.4912,-0.5184,-0.5277,-0.4641,-0.5198,-1.8886,-1.8309,-1.7744,-1.6976,-1.6694,-1.6389,-1.5728,-1.5449,-1.5177,-1.4588,-1.4781,-1.4926,-1.4603,-1.524,-1.548,-1.4697,-1.4935,-1.5054,-1.4617,-1.4569,-1.4704,-1.5067,-1.5247,-1.5428,0.0,-1.3926,-1.2646,-1.2644,-1.2668,-1.2674,-1.2589,-1.2589,-1.2589,-1.2589,-1.2589,-1.2589,-1.2589,-1.2589,-1.2169,-1.1241,-1.2169,-1.174,-1.0047,-1.0173,-1.0381,-1.0575,-1.0288,-1.0195,-1.0177,-0.97,-0.944,-0.9152,-0.8979,-0.874,-0.8568,-0.8568,-0.8568,-0.8568,-0.8568,-0.8568,-0.8568,-0.8568,-0.8568,-0.8568,-0.8568,-0.8568,-0.8568,-0.8568,-0.8568,-0.8568,-0.8568,-0.8568,-0.8564,-0.8288,-0.8197,-0.8113,-0.7852,-0.7863,-0.7782,-0.7507,-0.7418,-0.7415,-0.7143,-0.7051,-0.7051,-0.7051,-0.7051,-0.6328,-0.4528,-0.4271,-0.4281,-0.4287,-0.4289,-0.4289,-0.4289,-0.4289,-0.4289,-0.4289,-0.4289,-0.4289,-0.4289,-0.4289,-0.4289,-0.4289,-0.5184,-0.563,-0.563,-0.6605,-0.652,-0.5719,-0.6605,-0.6585,-1.8309,-1.7611,-1.6965,-1.6751,-1.6591,-1.6296,-1.5642,-1.541,-1.5312,-1.499,-1.5449,-1.5964,-1.6165,-1.6615,-1.6704,-1.5917,-1.5642,-1.5308,-1.472,-1.4569,-1.4855,-1.5443,-1.5541,0.0,0.0,0.0,0.0,-1.3866,-1.3704,-1.3366,-1.276,-1.2674,-1.2674,-1.2674,-1.2674,-1.2845,-1.3027,-1.3027,-1.2943,-1.2856,-1.3206,-1.3123,-1.2672,-1.2757,-1.2834,-1.2959,-1.1963,-1.1432,-1.1323,-1.0093,-0.946,-0.9364,-0.9121,-0.8935,-0.8735,-0.8735,-0.8666,-0.8568,-0.8568,-0.8568,-0.8568,-0.8568,-0.8568,-0.8568,-0.8568,-0.8568,-0.8568,-0.8568,-0.8568,-0.8568,-0.8568,-0.8568,-0.874,-0.9253,-0.924,-0.9148,-0.9065,-0.8924,-0.8593,-0.786,-0.7775,-0.7779,-0.7687,-0.7598,-0.7598,-0.7415,-0.7231,-0.6868,-0.6233,-0.6148,-0.6154,-0.6157,-0.6157,-0.6157,-0.6157,-0.6157,-0.6157,-0.6157,-0.6157,-0.6157,-0.6157,-0.6157,-0.6157,-0.6157,-0.6428,-0.6609,-0.6609,-0.6962,-0.7015,-0.684,-0.7111,-0.7191,-1.8201,-1.7501,-1.6899,-1.6842,-1.6581,-1.6363,-1.6093,-1.5874,-1.5771,-1.5776,-1.635,-1.6929,-1.73,-1.7797,-1.7787,-1.6916,-1.6627,-1.6321,-1.5509,-1.5401,-1.5613,-1.6051,-1.6057,-1.6116,0.0,0.0,0.0,-1.4824,-1.4657,-1.4307,-1.3704,-1.362,-1.362,-1.362,-1.3802,-1.3952,-1.4135,-1.432,-1.4464,-1.4648,-1.4019,-1.3981,-1.444,-1.4167,-1.3932,-1.368,-1.2767,-1.2135,-1.1738,-1.0858,-1.0403,-1.03,-1.0413,-1.0297,-0.9999,-0.9999,-0.9876,-0.9614,-0.8849,-0.8828,-0.9087,-0.9087,-0.9257,-0.9602,-0.9602,-0.9602,-0.9602,-0.9602,-0.9602,-0.9602,-0.9602,-0.9602,-0.9689,-1.0294,-1.0284,-1.0193,-1.0193,-1.0057,-0.9745,-0.913,-0.9046,-0.8962,-0.887,-0.8781,-0.8689,-0.8516,-0.8239,-0.7871,-0.7143,-0.7139,-0.7139,-0.7139,-0.7139,-0.7139,-0.7139,-0.7139,-0.7139,-0.7139,-0.7139,-0.7139,-0.7139,-0.7139,-0.7139,-0.7139,-0.7193,-0.7221,-0.7224,-0.7278,-0.7356,-0.7451,-0.7451,-0.7533,-1.8555,-1.7918,-1.7379,-1.7257,-1.6842,-1.6591,-1.7045,-1.6797,-1.6508,-1.6974,-1.744,-1.784,0.0,-1.8772,-1.8923,-1.7837,-1.7889,-1.7807,-1.7009,-1.6881,-1.6821,0.0,0.0,0.0,0.0,0.0,0.0,-1.5514,0.0,-1.5431,-1.5431,-1.5431,-1.5438,-1.5452,-1.5752,-1.5935,-1.5965,-1.6265,-1.6418,-1.6418,-1.4694,-1.4377,-1.5378,-1.4551,-1.3755,-1.292,-1.292,-1.2349,-1.1468,-1.2215,-1.2215,-1.191,-1.2612,-1.2609,-1.2232,-1.2232,-1.2079,-1.1488,-0.9526,-0.9275,-0.9946,-0.9946,-1.0549,-1.1327,-1.1327,-1.1327,-1.1327,-1.1327,-1.1327,-1.1327,-1.1327,-1.1327,-1.1327,-1.1322,-1.1413,-1.1413,-1.1413,-1.1348,-1.131,-1.1051,-1.1061,-1.0963,-1.0685,-1.0494,-1.0323,-1.0357,-1.0083,-0.9248,-0.7503,-0.7231,-0.7231,-0.7228,-0.7228,-0.7228,-0.7139,-0.7139,-0.7139,-0.7139,-0.7139,-0.7143,-0.7149,-0.7153,-0.7156,-0.7163,-0.7309,-0.7383,-0.7383,-0.7529,-0.7604,-0.7611,-0.7611,-0.7685,-1.9016,-1.8471,-1.782,-1.7313,-1.7101,-1.6944,-1.6637,-1.6477,-1.6764,-1.8008,-1.8617,-1.9369,0.0,-2.0607,-2.0275,-1.9778,-1.8797,0.0,-1.7447,-1.6634,0.0,-1.6732,0.0,-1.6108,-1.6413,-1.7049,0.0,0.0,-1.5748,-1.5658,-1.5658,-1.5506,-1.554,-1.5782,-1.587,-1.614,-1.6608,-1.6923,-1.7084,-1.7084,-1.6608,-1.6557,-1.6822,-1.6542,-1.6303,-1.6082,-1.5317,-1.4835,-1.4543,-1.3808,-1.3498,-1.3295,-1.3322,-1.3091,-1.2653,-1.2653,-1.2411,-1.2021,-1.1509,-1.1086,-1.0977,-1.0977,-1.1068,-1.1327,-1.1327,-1.1327,-1.1327,-1.1327,-1.1327,-1.1327,-1.1327,-1.1327,-1.1499,-1.2186,-1.2357,-1.2357,-1.2357,-1.2322,-1.214,-1.1359,-1.1198,-1.1214,-1.1123,-1.0937,-1.0781,-1.0838,-1.0479,-0.999,-0.9239,-0.9164,-0.9226,-0.9148,-0.917,-0.8915,-0.8193,-0.8105,-0.7841,-0.7139,-0.7139,-0.719,-0.7309,-0.7312,-0.7366,-0.7478,-0.7522,-0.7543,-0.7543,-0.758,-0.7655,-0.7756,-0.7756,-0.7838,-1.9133,-1.8643,-1.8093,-1.7984,-1.782,-1.76,-1.7579,-1.7522,-1.7816,-1.8848,-1.9465,0.0,-2.1578,-2.13,-2.0868,0.0,0.0,0.0,-1.8592,-1.798,-1.7651,0.0,-1.7477,0.0,-1.7679,-1.8158,-1.8227,0.0,-1.695,-1.6214,-1.5733,-1.5575,-1.5654,-1.5906,-1.6045,-1.6418,-1.7055,-1.7238,-1.7326,-1.7326,-1.7326,-1.7326,-1.7326,-1.7326,-1.7044,-1.656,0.0,-1.5507,-1.5127,-1.4835,-1.4644,-1.4555,-1.4937,-1.4747,-1.4245,-1.4245,-1.3981,-1.3573,-1.3573,-1.3303,-1.2855,-1.2302,-1.2273,-1.2534,-1.2534,-1.2534,-1.2534,-1.2534,-1.2534,-1.2534,-1.2534,-1.2534,-1.2619,-1.3222,-1.3307,-1.3307,-1.3307,-1.3275,-1.3165,-1.2607,-1.2547,-1.2572,-1.2572,-1.2301,-1.2216,-1.2172,-1.1804,-1.1503,-1.1321,-1.0502,-0.9918,-0.9943,-0.9871,-0.9721,-0.9126,-0.9222,-0.9101,-0.8569,-0.8641,-0.8729,-0.8834,-0.8838,-0.8886,-0.8987,-0.8596,-0.835,-0.835,-0.7948,-0.7834,-0.7913,-0.7913,-0.7957,-1.9146,-1.8697,-1.8417,-1.8881,-1.8602,-1.8321,-1.8762,-1.8881,-1.9045,-1.9622,0.0,-2.0838,-2.18,-2.1385,-2.1059,-2.1541,0.0,-2.0307,-1.9986,-1.9761,-1.9575,-1.9209,-1.9112,-1.9125,-1.9187,-1.9386,-1.9589,-2.0005,-1.8644,-1.7335,-1.6208,-1.6163,-1.627,-1.6455,-1.6763,-1.7206,-1.7684,-1.7692,-1.7598,-1.7512,-1.7512,-1.7419,-1.7326,-1.7326,-1.685,-1.5988,-1.5988,-1.5507,-1.4746,-1.5602,-1.59,-1.5724,-1.669,-1.6697,-1.6319,-1.6319,-1.596,-1.5458,-1.5458,-1.5264,-1.488,-1.3686,-1.3764,-1.4142,-1.4142,-1.4115,-1.4088,-1.4088,-1.4088,-1.4088,-1.4088,-1.4088,-1.4088,-1.4088,-1.4088,-1.4088,-1.4088,-1.4088,-1.4088,-1.4088,-1.4088,-1.4088,-1.4088,-1.3899,-1.3711,-1.3711,-1.3419,-1.3171,-1.3168,-1.1486,-1.0293,-1.0293,-1.0293,-1.0248,-1.0178,-1.0391,-1.0442,-1.0381,-1.0548,-1.0755,-1.0779,-1.0779,-1.0793,-1.0729,-1.0052,-0.9656,-0.9656,-0.8849,-0.8432,-0.8432,-0.8432,-0.8432,-1.9656,-1.9592,-1.9436,-1.9093,-1.8934,-1.8762,-1.8375,-1.8594,0.0,0.0,0.0,-2.156,-2.2653,-2.2185,0.0,-2.2264,0.0,0.0,0.0,0.0,-1.8992,0.0,0.0,0.0,0.0,0.0,0.0,0.0,0.0,-1.9778,-1.8707,-1.8675,-1.8836,-1.9129,-1.9401,-1.9562,-1.9687,-1.9687,-1.933,-1.8519,-1.8519,-1.8056,-1.7326,-1.7326,-1.7232,-1.7044,-1.7044,0.0,-1.6756,-1.6943,-1.7044,-1.6951,-1.7145,-1.7059,-1.6791,-1.6588,-1.6372,-1.6048,-1.5853,-1.5565,-1.5271,-1.4797,-1.4595,-1.4442,-1.4442,-1.4282,-1.4088,-1.4088,-1.4088,-1.4088,-1.4088,-1.4088,-1.4088,-1.4088,-1.4088,-1.4088,-1.4088,-1.4088,-1.4088,-1.4088,-1.4088,-1.4088,-1.4088,-1.4082,-1.3997,-1.3997,-1.3795,-1.3639,-1.3638,-1.2796,-1.2231,-1.2231,-1.2231,-1.1986,-1.1425,-1.1384,-1.122,-1.0678,-1.0629,-1.0817,-1.0986,-1.099,-1.0982,-1.1158,-1.1002,-1.0923,-1.0923,-1.0765,-1.0685,-1.0685,-1.0685,-1.0685,-1.9798,-1.9798,-1.9747,-1.95,-1.9396,-1.9344,-1.9056,0.0,0.0,0.0,-2.1716,-2.2441,-2.3027,0.0,0.0,0.0,0.0,0.0,0.0,0.0,0.0,0.0,0.0,0.0,0.0,0.0,0.0,0.0,0.0,-2.1279,-1.9859,-1.9709,-1.9835,-1.993,-2.0124,-2.0232,-2.0232,-2.0232,-1.996,-1.9513,-1.9513,-1.9055,-1.8064,-1.8064,-1.7785,-1.7326,-1.7326,0.0,-1.7326,-1.7326,-1.7326,-1.7326,-1.7326,-1.7153,-1.6979,-1.6878,-1.6595,-1.64,-1.6305,-1.6028,-1.5792,-1.565,-1.5208,-1.4723,-1.4569,-1.4422,-1.4282,-1.4128,-1.4088,-1.4088,-1.4088,-1.4088,-1.4088,-1.4088,-1.4088,-1.4088,-1.4088,-1.4088,-1.4088,-1.4088,-1.4088,-1.4088,-1.4088,-1.4088,-1.4088,-1.4088,-1.3893,-1.3717,-1.3678,-1.33,-1.3124,-1.3083,-1.315,-1.3004,-1.2681,-1.2802,-1.274,-1.2396,-1.2516,-1.2636,-1.2745,-1.2751,-1.2715,-1.2829,-1.2242,-1.195,-1.195,-1.1463,-1.117,-1.117,-1.117,-1.117,-1.9798,-1.9798,-1.9798,-1.9798,-1.9798,-1.9798,-1.9798,-2.0589,0.0,0.0,-2.2272,-2.2927,-2.3053,0.0,0.0,0.0,0.0,0.0,0.0,0.0,0.0,0.0,0.0,0.0,0.0,0.0,0.0,0.0,0.0,0.0,-2.1165,-2.0866,-2.0761,-2.0842,-2.0793,-2.0773,-2.0773,-2.0773,-2.0683,-2.0503,-2.0503,-2.0059,-1.9063,-1.9063,-1.8696,-1.7963,-1.7963,0.0,0.0,-1.7963,-1.7963,-1.7963,-1.7963,-1.7785,-1.7613,-1.7434,-1.7153,-1.6958,-1.6676,-1.6581,-1.6494,-1.6312,-1.567,-1.5017,-1.4776,-1.4616,-1.4476,-1.4242,-1.4135,-1.4088,-1.4088,-1.4088,-1.4088,-1.4088,-1.4088,-1.4088,-1.4088,-1.4088,-1.4088,-1.4088,-1.4088,-1.4088,-1.4088,-1.4088,-1.4088,-1.4088,-1.3899,-1.3795,-1.3795,-1.3613,-1.3633,-1.3711,-1.3665,-1.3664,-1.3768,-1.3914,-1.4023,-1.4078,-1.4183,-1.4298,-1.4298,-1.4298,-1.4298,-1.4298,-1.3511,-1.3022,-1.3022,-1.2247,-1.1853,-1.1853,-1.1853,-1.1853,-1.9798,-1.9798,-1.9798,-1.9798,-1.9798,-1.9798,-1.9798,0.0,0.0,-2.138,-2.197,-2.2535,-2.2977,-2.2555,0.0,0.0,0.0,0.0,0.0,0.0,0.0,0.0,0.0,0.0,0.0,0.0,0.0,0.0,0.0,0.0,-2.3537,-2.2952,-2.2771,-2.3163,-2.294,-2.2862,-2.2862,-2.2862,-2.2413,-2.1596,-2.1596,-2.1051,-2.0051,-2.0051,-2.0051,-1.996,-1.996,0.0,0.0,-1.996,-1.996,-1.996,-1.996,-1.996,-1.9778,-1.8703,-1.8249,-1.8064,-1.6951,-1.7131,-1.7669,-1.6588,-1.5812,-1.5351,-1.5324,-1.4943,-1.4509,-1.4489,-1.4289,-1.4088,-1.4088,-1.4088,-1.4088,-1.4088,-1.4088,-1.4088,-1.4088,-1.4088,-1.4088,-1.4088,-1.4088,-1.4088,-1.4088,-1.4088,-1.4088,-1.4088,-1.4088,-1.4082,-1.4082,-1.4082,-1.4179,-1.448,-1.4041,-1.3957,-1.4582,-1.4403,-1.439,-1.4638,-1.4382,-1.4298,-1.4298,-1.4298,-1.4298,-1.4298,-1.4196,-1.41,-1.41,-1.41,-1.4004,-1.4004,-1.4004,-1.4004,-2.0003,-2.0055,-2.0207,-1.9901,-1.9798,-1.9798,-1.9798,0.0,0.0,-2.1838,-2.2459,-2.3026,-2.3605,-2.3458,-2.3223,0.0,0.0,0.0,0.0,0.0,0.0,0.0,0.0,0.0,0.0,0.0,0.0,0.0,0.0,0.0,-2.4186,-2.3766,-2.3497,-2.3667,-2.3319,-2.3135,-2.3135,-2.3135,-2.2872,-2.2511,-2.2511,-2.205,-2.106,-2.106,-2.0782,-2.0232,-2.0232,0.0,0.0,-2.0232,-2.0232,-2.0232,-2.0232,-2.0232,-2.0141,-1.9695,-1.9513,-1.9422,-1.8956,-1.8964,-1.9055,-1.8427,-1.7509,-1.6636,-1.5722,-1.5231,-1.501,-1.4836,-1.4703,-1.4616,-1.4616,-1.4616,-1.4616,-1.4616,-1.4634,-1.4656,-1.4656,-1.4656,-1.4565,-1.4375,-1.4368,-1.4277,-1.4088,-1.4088,-1.4088,-1.4088,-1.4088,-1.4088,-1.4088,-1.4088,-1.4186,-1.4473,-1.4345,-1.4487,-1.4912,-1.4842,-1.4855,-1.4975,-1.4688,-1.4496,-1.4496,-1.4394,-1.4298,-1.4298,-1.4298,-1.4298,-1.4298,-1.4298,-1.4298,-1.4298,-1.4298,-1.4298,-2.0484,-2.0446,-2.051,-2.0156,-1.9901,-1.985,0.0,0.0,-2.1027,-2.2379,-2.2813,-2.3158,-2.3987,-2.4131,-2.3897,0.0,0.0,0.0,0.0,0.0,0.0,0.0,0.0,0.0,0.0,0.0,0.0,0.0,0.0,0.0,-2.4861,-2.4272,-2.3841,-2.3841,-2.3309,-2.3144,-2.3232,-2.3144,-2.3144,-2.3232,-2.3144,-2.2775,-2.2148,-2.2148,-2.1686,-2.1051,-2.1051,0.0,0.0,-2.1051,-2.1051,-2.1051,-2.1051,-2.1051,-2.1051,-2.0782,-2.0593,-2.0593,-2.0322,-2.0331,-2.0339,-1.9803,-1.9155,-1.8364,-1.6948,-1.6183,-1.5705,-1.5241,-1.5293,-1.539,-1.539,-1.539,-1.539,-1.539,-1.5371,-1.5462,-1.5806,-1.5827,-1.5778,-1.5566,-1.5505,-1.5445,-1.5247,-1.524,-1.524,-1.524,-1.524,-1.524,-1.524,-1.5141,-1.5148,-1.5437,-1.513,-1.5034,-1.5164,-1.5222,-1.5248,-1.5172,-1.4981,-1.479,-1.4688,-1.4496,-1.4394,-1.4298,-1.4298,-1.4298,-1.4298,-1.4298,-1.4298,-1.4298,-1.4298,-1.4298,-2.1369,-2.0993,-2.061,-2.061,-2.0207,-1.9952,0.0,0.0,-2.1088,-2.2839,-2.2724,-2.2672,-2.3864,-2.4131,-2.3897,-2.3185,0.0,0.0,0.0,0.0,0.0,0.0,0.0,0.0,0.0,0.0,0.0,0.0,0.0,0.0,-2.5746,-2.4775,-2.411,-2.3841,-2.3309,-2.3232,-2.3503,-2.3232,-2.3232,-2.3503,-2.3232,-2.3047,-2.3057,-2.3057,-2.3047,-2.3047,0.0,0.0,0.0,-2.3047,-2.3047,-2.3047,-2.3047,-2.3047,-2.296,-2.2059,-2.1695,-2.1507,-2.0512,-2.0872,-2.1516,-2.0249,-2.0421,-2.0773,-1.9488,-1.8071,-1.6646,-1.5661,-1.5882,-1.6426,-1.6426,-1.6426,-1.6426,-1.6426,-1.6419,-1.6676,-1.7609,-1.7866,-1.7856,-1.7871,-1.7877,-1.7842,-1.7842,-1.7842,-1.7842,-1.7842,-1.7842,-1.7842,-1.7842,-1.7532,-1.7339,-1.7641,-1.6538,-1.5675,-1.5416,-1.5507,-1.552,-1.554,-1.5267,-1.4987,-1.4694,-1.4688,-1.4592,-1.4298,-1.4298,-1.4298,-1.4298,-1.4298,-1.4298,-1.4298,-1.4298,-1.4298,-2.1575,-2.1527,-2.1589,-2.1237,-2.1028,-2.093,-2.114,0.0,-2.1502,-2.2865,-2.3363,-2.3747,-2.453,-2.5025,-2.4978,-2.3943,-2.4437,0.0,0.0,0.0,0.0,0.0,0.0,0.0,0.0,0.0,0.0,0.0,0.0,0.0,-2.6648,-2.6246,-2.5568,-2.4723,-2.3983,-2.358,-2.3503,-2.3416,-2.3416,-2.3503,-2.3232,-2.3135,-2.3135,-2.3135,-2.3135,0.0,0.0,0.0,0.0,-2.3135,-2.3135,-2.3135,-2.3135,-2.3135,-2.3047,-2.2784,-2.2687,-2.2599,-2.2315,-2.2413,-2.2599,-2.2069,-2.1596,-2.1123,-2.0584,-1.9331,-1.8164,-1.7804,-1.7903,-1.8001,-1.8001,-1.8001,-1.8001,-1.8001,-1.8037,-1.8112,-1.8494,-1.8481,-1.8417,-1.8206,-1.82,-1.8113,-1.7906,-1.7898,-1.7898,-1.7898,-1.7898,-1.7898,-1.7898,-1.7794,-1.7744,-1.7792,-1.7666,-1.708,-1.607,-1.5705,-1.5429,-1.5451,-1.5341,-1.5356,-1.5255,-1.5077,-1.4885,-1.4592,-1.4592,-1.449,-1.4298,-1.4298,-1.4298,-1.4298,-1.4298,-1.4298,0.0,-2.2077,-2.2123,-2.1779,-2.1575,0.0,0.0,0.0,-2.2041,-2.3164,-2.3724,-2.4179,-2.4812,-2.5458,-2.5605,-2.4567,-2.4978,0.0,0.0,0.0,0.0,0.0,0.0,0.0,0.0,0.0,0.0,0.0,0.0,0.0,-2.7626,-2.7139,-2.6719,-2.6273,-2.5316,-2.4744,-2.4659,-2.4573,-2.4317,-2.4069,-2.382,-2.3474,-2.3135,-2.3135,-2.3135,0.0,0.0,0.0,0.0,-2.3135,-2.3135,-2.3135,-2.3135,-2.3135,-2.3135,-2.3135,-2.3135,-2.3135,-2.3135,-2.3135,-2.3047,-2.2969,-2.2413,-2.1854,-2.1596,-2.0331,-1.9063,-1.9712,-1.9621,-1.9338,-1.9338,-1.9338,-1.9338,-1.9338,-1.9381,-1.943,-1.9793,-1.9864,-1.9834,-1.9622,-1.9614,-1.9516,-1.9393,-1.9296,-1.9296,-1.9296,-1.9296,-1.9296,-1.9296,-1.9181,-1.9146,-1.9077,-1.8854,-1.8321,-1.7451,-1.6641,-1.5944,-1.5558,-1.5631,-1.554,-1.554,-1.5356,-1.5077,-1.4885,-1.479,-1.4592,-1.449,-1.4394,-1.4298,-1.4298,-1.4298,-1.4298,0.0,0.0,0.0,0.0,0.0,0.0,0.0,0.0,0.0,0.0,-2.3877,-2.4151,-2.4755,-2.5483,-2.577,-2.5133,-2.5633,0.0,0.0,0.0,0.0,0.0,0.0,0.0,0.0,0.0,0.0,0.0,0.0,0.0,-2.8457,-2.7706,-2.7545,-2.8176,-2.7209,-2.6648,-2.6554,-2.6284,-2.587,-2.521,-2.4819,-2.4155,-2.3299,-2.3309,-2.3309,0.0,0.0,0.0,0.0,-2.3222,-2.3135,-2.3135,-2.3135,-2.3135,-2.3135,-2.3135,-2.3135,-2.3135,-2.3135,-2.3135,-2.3135,-2.3135,-2.2969,-2.2794,-2.253,-2.0962,-1.9687,-2.1275,-2.1087,-2.0439,-2.043,-2.0439,-2.0439,-2.0439,-2.0439,-2.0619,-2.1553,-2.1741,-2.1741,-2.1741,-2.1741,-2.1741,-2.1741,-2.1741,-2.1741,-2.1741,-2.1741,-2.1741,-2.1741,-2.14,-2.1167,-2.1167,-2.0064,-1.9393,-1.9287,-1.8076,-1.6894,-1.5961,-1.5906,-1.5825,-1.554,-1.554,-1.5356,-1.5178,-1.4885,-1.4688,-1.4688,-1.4394,-1.4298,-1.4298,-1.4298,-1.4298,-2.2902,0.0,-2.2752,-2.2752,-2.2646,0.0,0.0,0.0,0.0,0.0,0.0,0.0,0.0,-2.579,-2.6394,-2.577,-2.6562,0.0,0.0,0.0,0.0,0.0,0.0,0.0,0.0,0.0,0.0,0.0,0.0,-2.8433,-2.8797,-2.9052,-2.9118,-2.9081,-2.9028,-2.8303,-2.673,-2.6648,-2.6554,-2.6389,-2.5964,-2.563,-2.5368,-2.5221,-2.5158,0.0,0.0,0.0,-2.4155,-2.4155,-2.3734,-2.3135,-2.3135,-2.3135,-2.3135,-2.3135,-2.3135,-2.3135,-2.3135,-2.3135,-2.3135,-2.3135,-2.3057,-2.2969,-2.2794,-2.2157,-2.1704,-2.1909,-2.183,-2.1633,-2.1454,-2.1365,-2.1365,-2.1365,-2.1365,-2.1463,-2.1642,-2.1741,-2.1741,-2.1741,-2.1741,-2.1741,-2.1741,-2.1741,-2.1741,-2.1741,-2.1741,-2.1741,-2.1741,-2.1633,-2.1526,-2.1526,-2.1293,-2.0837,-2.0064,-1.8822,-1.7697,-1.667,-1.6815,-1.6581,-1.573,-1.573,-1.5635,-1.5452,-1.4975,-1.4688,-1.4688,-1.4394,-1.4298,-1.4298,-1.4298,-1.4298,-2.2978,-2.2888,-2.2888,-2.2888,-2.2888,-2.2888,0.0,0.0,0.0,0.0,0.0,0.0,0.0,0.0,0.0,0.0,-2.7086,0.0,0.0,0.0,0.0,0.0,0.0,0.0,0.0,0.0,0.0,0.0,0.0,-2.8398,-2.89,-2.9227,-2.9439,-2.9599,-2.9702,-2.9209,-2.8028,-2.7947,-2.7787,-2.7371,-2.6953,-2.6532,-2.6108,-2.5891,-2.5819,0.0,0.0,0.0,-2.5084,-2.5084,-2.4819,-2.4317,-2.4317,-2.4317,-2.4317,-2.4317,-2.4317,-2.4317,-2.4317,-2.4069,-2.3647,-2.3222,-2.3135,-2.3047,-2.2969,-2.2882,-2.2618,-2.2353,-2.2274,-2.2176,-2.2087,-2.1909,-2.1919,-2.1919,-2.183,-2.1741,-2.1741,-2.1741,-2.1741,-2.1741,-2.1741,-2.1741,-2.1741,-2.1741,-2.1741,-2.1741,-2.1741,-2.1741,-2.1741,-2.1741,-2.1741,-2.1741,-2.1741,-2.1516,-2.0962,-2.0271,-1.9224,-1.7873,-1.7957,-1.7777,-1.7217,-1.7217,-1.703,-1.6828,-1.6546,-1.6271,-1.59,-1.5704,-1.5425,-1.4771,-1.4771,-1.458,-2.3187,-2.3023,-2.2978,-2.2888,-2.2888,-2.2888,0.0,0.0,0.0,0.0,0.0,0.0,0.0,0.0,0.0,0.0,0.0,0.0,0.0,0.0,0.0,0.0,0.0,0.0,0.0,0.0,0.0,0.0,0.0,-2.7826,-2.8624,-2.875,-2.9026,-2.9515,-2.9616,-2.9564,-2.9294,-2.9381,-2.9094,-2.8347,-2.7947,-2.7371,-2.6614,-2.6389,-2.6235,-2.6235,0.0,0.0,-2.5986,-2.5986,-2.5913,-2.5819,-2.5819,-2.5819,-2.5819,-2.5819,-2.5819,-2.5819,-2.5819,-2.5326,-2.4573,-2.3647,-2.3309,-2.3309,-2.3135,-2.3135,-2.3057,-2.2608,-2.252,-2.2441,-2.2432,-2.2264,-2.2185,-2.2185,-2.2008,-2.182,-2.1741,-2.1741,-2.1741,-2.1741,-2.1741,-2.1741,-2.1741,-2.1741,-2.1741,-2.1741,-2.1741,-2.1741,-2.1741,-2.1741,-2.1741,-2.1741,-2.1741,-2.1741,-2.1741,-2.1741,-2.1006,-1.9338,-1.9063,-1.8972,-1.8796,-1.8788,-1.8688,-1.8488,-1.8395,-1.8118,-1.7475,-1.739,-1.6734,-1.5717,-1.5622,-1.5248,-2.3709,-2.345,-2.3246,-2.2978,-2.2888,-2.2888,0.0,0.0,0.0,0.0,0.0,0.0,0.0,0.0,0.0,0.0,0.0,0.0,0.0,0.0,0.0,0.0,0.0,0.0,0.0,0.0,0.0,0.0,0.0,-2.7952,-2.7603,-2.7984,-2.8273,-2.836,-2.8812,-2.9051,-2.8975,-2.9464,-2.9702,-2.9534,-2.9275,-2.9003,-2.8912,-2.853,-2.8303,-2.8303,0.0,-2.7672,-2.701,-2.701,-2.6505,-2.5819,-2.5819,-2.5819,-2.5819,-2.5819,-2.5819,-2.5819,-2.5819,-2.5735,-2.5495,-2.4573,-2.4327,-2.4155,-2.3309,-2.3135,-2.3047,-2.3047,-2.2882,-2.2715,-2.2441,-2.2353,-2.2353,-2.2353,-2.2353,-2.2264,-2.2097,-2.2008,-2.2008,-2.1741,-2.1741,-2.1741,-2.1741,-2.1741,-2.1741,-2.1741,-2.1741,-2.1741,-2.1741,-2.1741,-2.1741,-2.1741,-2.1741,-2.1741,-2.1741,-2.1741,-2.1553,-2.1275,-2.0529,-1.9704,-1.888,-1.8788,-1.8788,-1.8696,-1.8495,-1.8303,-1.8211,-1.7569,-1.7203,-1.7016,-1.6574,-1.6393,-2.4147,-2.4036,-2.3867,-2.3304,-2.3008,-2.2888,0.0,0.0,0.0,0.0,0.0,0.0,0.0,0.0,0.0,0.0,0.0,0.0,0.0,0.0,0.0,0.0,0.0,0.0,0.0,0.0,0.0,0.0,0.0,0.0,-2.7326,-2.7519,-2.7795,-2.8097,-2.8348,-2.8486,-2.8486,-2.875,-2.9189,-2.9792,-2.9521,-2.9419,-2.9419,-2.9118,-2.8882,-2.8803,0.0,-2.8327,-2.7926,-2.7926,-2.7672,-2.7255,-2.7255,-2.7255,-2.7255,-2.7255,-2.7255,-2.7162,-2.6753,-2.6588,-2.6423,-2.5495,-2.5242,-2.5158,-2.4648,-2.4563,-2.4563,-2.4563,-2.381,-2.2969,-2.2794,-2.2706,-2.2618,-2.2618,-2.253,-2.2353,-2.2264,-2.2264,-2.2176,-2.1919,-2.1919,-2.183,-2.1741,-2.1741,-2.1741,-2.1741,-2.1741,-2.1741,-2.1741,-2.1741,-2.1741,-2.1741,-2.1741,-2.1741,-2.1741,-2.1741,-2.1741,-2.1741,-2.1275,-2.0808,-2.0357,-2.0357,-2.0357,-2.0357,-2.0257,-2.0068,-1.9786,-1.9422,-1.878,-1.7863,-1.7692,-1.7232,-2.4639,-2.4549,-2.4441,-2.3837,0.0,-2.3112,-2.2933,0.0,0.0,0.0,0.0,0.0,0.0,0.0,0.0,0.0,0.0,0.0,0.0,0.0,0.0,0.0,0.0,0.0,0.0,0.0,0.0,0.0,0.0,0.0,-2.7588,-2.7544,-2.7736,-2.817,-2.8324,-2.8388,-2.8388,-2.8515,-2.8893,-2.9402,-2.9337,-2.9309,-2.9309,-2.9213,-2.9118,-2.8961,-2.8882,-2.8724,-2.8578,-2.851,-2.851,-2.851,-2.851,-2.851,-2.851,-2.851,-2.851,-2.8431,-2.7765,-2.751,-2.7348,-2.6412,-2.6163,-2.608,-2.5913,-2.5819,-2.5819,-2.5819,-2.4819,-2.3724,-2.3724,-2.3474,-2.3222,-2.3474,-2.3047,-2.2608,-2.2775,-2.2608,-2.2441,-2.2185,-2.2185,-2.2097,-2.1909,-2.1839,-2.1759,-2.1759,-2.175,-2.1741,-2.1741,-2.1741,-2.1741,-2.1741,-2.1741,-2.1741,-2.1741,-2.1741,-2.1741,-2.1741,-2.1741,-2.1741,-2.1741,-2.1741,-2.1741,-2.1741,-2.1741,-2.1553,-2.1177,-2.1087,-2.0357,-1.898,-1.8896,-1.8342,-2.5422,-2.5036,-2.4735,-2.4542,0.0,0.0,-2.3068,0.0,0.0,0.0,0.0,0.0,0.0,0.0,0.0,0.0,0.0,0.0,0.0,0.0,0.0,0.0,0.0,0.0,0.0,0.0,0.0,0.0,0.0,0.0,-2.843,-2.843,-2.8457,-2.8498,-2.8958,-2.9174,-2.9174,-2.9752,-2.946,-2.8235,-2.8737,-2.8913,-2.8925,-2.9272,-2.9341,-2.9341,-2.8949,-2.8803,-2.8724,-2.8578,-2.851,-2.851,-2.851,-2.851,-2.851,-2.851,-2.851,-2.851,-2.8431,-2.8431,-2.8259,-2.7348,-2.7092,-2.6928,-2.608,-2.5819,-2.5819,-2.5819,-2.5735,-2.5568,-2.5568,-2.4988,-2.4573,-2.5411,-2.4317,-2.3222,-2.3877,-2.3387,-2.2706,-2.2441,-2.2353,-2.2353,-2.2353,-2.2223,-2.2091,-2.2091,-2.1857,-2.1741,-2.1741,-2.1741,-2.1741,-2.1741,-2.1741,-2.1741,-2.1741,-2.1741,-2.1741,-2.1741,-2.1741,-2.1741,-2.1741,-2.1741,-2.1741,-2.1741,-2.1741,-2.1651,-2.1642,-2.1177,-2.0907,-2.0808,-2.0374,-2.011,-2.5551,-2.5224,-2.4871,-2.4589,0.0,0.0,0.0,0.0,0.0,0.0,0.0,0.0,0.0,0.0,0.0,0.0,0.0,0.0,0.0,0.0,0.0,0.0,0.0,0.0,0.0,0.0,0.0,0.0,0.0,0.0,-2.8556,-2.8492,-2.8492,-2.8492,-2.8709,-2.8831,-2.8831,-2.8996,-2.8852,-2.8328,-2.8795,-2.9031,-2.9031,-2.876,-2.85,-2.8362,-2.8211,-2.8047,-2.7831,-2.8094,-2.8096,-2.8053,-2.8378,-2.851,-2.851,-2.851,-2.851,-2.851,-2.851,-2.851,-2.8431,-2.8099,-2.8007,-2.7926,-2.7592,-2.7499,-2.7499,-2.7499,-2.7499,-2.7244,-2.608,-2.5579,-2.5411,-2.5735,-2.5326,-2.4819,-2.5062,-2.4904,-2.4563,-2.4392,-2.4307,-2.4296,-2.4125,-2.3984,-2.3752,-2.3239,-2.3032,-2.2777,-2.2082,-2.1974,-2.1866,-2.1741,-2.1741,-2.1741,-2.1741,-2.1741,-2.1741,-2.1741,-2.1741,-2.1741,-2.1741,-2.1741,-2.1741,-2.1741,-2.1741,-2.1741,-2.1741,-2.1553,-2.1275,-2.0997,-2.0817,-2.0555,-2.5733,-2.547,-2.5107,0.0,0.0,0.0,0.0,0.0,0.0,0.0,0.0,0.0,0.0,0.0,0.0,0.0,0.0,0.0,0.0,0.0,0.0,0.0,0.0,0.0,0.0,0.0,0.0,0.0,0.0,0.0,0.0,-2.9142,-2.9142,-2.9142,-2.9142,-2.9142,-2.9142,-2.9142,-2.9142,-2.9156,-2.92,-2.9209,-2.9118,-2.8918,-2.8664,-2.852,-2.846,-2.8157,-2.773,-2.794,-2.7822,-2.7512,-2.7873,-2.8017,-2.8017,-2.8017,-2.8017,-2.8017,-2.8017,-2.8126,-2.8258,-2.8258,-2.8378,-2.851,-2.851,-2.851,-2.851,-2.851,-2.851,-2.8179,-2.6999,-2.6412,-2.6329,-2.6577,-2.6246,-2.5913,-2.6163,-2.5997,-2.5746,-2.5652,-2.5568,-2.5568,-2.5389,-2.5274,-2.5051,-2.4425,-2.4215,-2.389,-2.3133,-2.2964,-2.2777,-2.2434,-2.24,-2.2334,-2.2334,-2.2176,-2.2087,-2.2087,-2.183,-2.1741,-2.1741,-2.1741,-2.1741,-2.1741,-2.1741,-2.1741,-2.1741,-2.1741,-2.1553,-2.1186,-2.1186,-2.1096,-2.597,-2.577,0.0,0.0,0.0,0.0,0.0,0.0,0.0,0.0,0.0,0.0,0.0,0.0,0.0,0.0,0.0,0.0,0.0,0.0,0.0,0.0,0.0,0.0,0.0,0.0,0.0,0.0,0.0,0.0,0.0,-3.0568,-3.0568,-3.0568,-3.0568,-3.0568,-3.0568,-3.0568,-3.0568,-3.0568,-2.9931,-2.9475,-2.9321,-2.9875,-3.0159,-3.0159,-2.9952,-2.9465,-2.8756,-2.8371,-2.7668,-2.6935,-2.6935,-2.6935,-2.6935,-2.6935,-2.6935,-2.6935,-2.6935,-2.7272,-2.7717,-2.7717,-2.8077,-2.8498,-2.851,-2.851,-2.851,-2.851,-2.851,-2.851,-2.851,-2.7846,-2.7429,-2.8259,-2.7162,-2.608,-2.701,-2.6505,-2.5819,-2.5819,-2.5819,-2.5819,-2.5819,-2.5652,-2.5557,-2.5481,-2.5304,-2.5104,-2.5068,-2.473,-2.4326,-2.3841,-2.3847,-2.379,-2.379,-2.3212,-2.2794,-2.2794,-2.2087,-2.1741,-2.1741,-2.1741,-2.1741,-2.1741,-2.1741,-2.1741,-2.1741,-2.1741,-2.1741,-2.1741,-2.1741,-2.1741,-2.5897,-2.5546,0.0,0.0,0.0,0.0,0.0,0.0,0.0,0.0,0.0,0.0,0.0,0.0,0.0,0.0,0.0,0.0,0.0,0.0,0.0,0.0,0.0,0.0,0.0,0.0,0.0,0.0,0.0,0.0,0.0,-3.0568,-3.0568,-3.0568,-3.0568,-3.0568,-3.0568,-3.0568,-3.0568,-3.0568,-3.0387,-3.0031,-2.9497,-2.9149,-2.9034,-2.8969,-2.8969,-2.8705,-2.8331,-2.8261,-2.8312,-2.8384,-2.8107,-2.8047,-2.7974,-2.757,-2.7434,-2.7434,-2.701,-2.7031,-2.7224,-2.7609,-2.7825,-2.8029,-2.8402,-2.851,-2.851,-2.851,-2.851,-2.851,-2.851,-2.8339,-2.8179,-2.8431,-2.8087,-2.7753,-2.8018,-2.7926,-2.7672,-2.7672,-2.7672,-2.7672,-2.7672,-2.7672,-2.7429,-2.6783,-2.6665,-2.6266,-2.5475,-2.5114,-2.4796,-2.4341,-2.4312,-2.4114,-2.3862,-2.366,-2.3464,-2.3464,-2.2872,-2.2264,-2.1741,-2.1741,-2.1741,-2.1741,-2.1741,-2.1741,-2.1741,-2.1741,-2.1741,-2.1741,-2.1741,-2.1741,-2.5917,0.0,0.0,0.0,0.0,0.0,0.0,0.0,0.0,0.0,0.0,0.0,0.0,0.0,0.0,0.0,0.0,0.0,0.0,0.0,0.0,0.0,0.0,0.0,0.0,0.0,0.0,0.0,0.0,0.0,0.0,-3.0568,-3.0568,-3.0568,-3.0568,-3.0568,-3.0568,-3.0568,-3.0568,-3.0568,-3.0568,-3.0387,-3.0007,-2.9532,-2.9331,-2.9331,-2.9016,-2.8826,-2.861,-2.8372,-2.8381,-2.8546,-2.8213,-2.8087,-2.8017,-2.7561,-2.7431,-2.736,-2.7073,-2.7077,-2.7311,-2.7631,-2.7878,-2.8149,-2.8704,-2.8721,-2.8536,-2.8834,-2.8657,-2.851,-2.851,-2.851,-2.851,-2.851,-2.851,-2.851,-2.851,-2.851,-2.851,-2.851,-2.851,-2.851,-2.851,-2.851,-2.8279,-2.777,-2.7747,-2.739,-2.6531,-2.6287,-2.6013,-2.5634,-2.5445,-2.5176,-2.4924,-2.448,-2.4241,-2.4241,-2.356,-2.3038,-2.2511,-2.1998,-2.1741,-2.1741,-2.1741,-2.1741,-2.1741,-2.1741,-2.1741,-2.1741,-2.1741,-2.1741,0.0,0.0,0.0,0.0,0.0,0.0,0.0,0.0,0.0,0.0,0.0,0.0,0.0,0.0,0.0,0.0,0.0,0.0,0.0,0.0,0.0,0.0,0.0,0.0,0.0,0.0,0.0,0.0,0.0,0.0,0.0,-3.0568,-3.0568,-3.0568,-3.0568,-3.0568,-3.0568,-3.0568,-3.0568,-3.0568,-3.0568,-3.0568,-3.0568,-3.0568,-3.0568,-3.0568,-2.9931,-2.9623,-2.9359,-2.8634,-2.8247,-2.813,-2.7749,-2.7617,-2.755,-2.7229,-2.704,-2.704,-2.704,-2.7306,-2.7741,-2.7793,-2.8068,-2.8567,-2.9154,-2.8887,-2.8648,-2.926,-2.9045,-2.8597,-2.8645,-2.8657,-2.8657,-2.8657,-2.859,-2.851,-2.851,-2.851,-2.851,-2.851,-2.851,-2.851,-2.851,-2.851,-2.851,-2.851,-2.851,-2.8383,-2.8001,-2.7989,-2.777,-2.7275,-2.6823,-2.6574,-2.6501,-2.554,-2.4946,-2.4946,-2.4327,-2.3887,-2.3887,-2.2599,-2.1909,-2.1909,-2.1909,-2.1909,-2.1909,-2.1909,-2.182,-2.183,-2.183,-2.1731,0.0,0.0,0.0,0.0,0.0,0.0,0.0,0.0,0.0,0.0,0.0,0.0,0.0,0.0,0.0,0.0,0.0,0.0,0.0,0.0,0.0,0.0,0.0,0.0,0.0,0.0,0.0,0.0,0.0,0.0,-3.0568,-3.0568,-3.0568,-3.0568,-3.0568,-3.0568,-3.0568,-3.0568,-3.0568,0.0,-3.0568,-3.0568,-3.0568,-3.0568,-3.0568,-3.0568,-3.0447,-3.0387,-3.0266,-2.9574,-2.9275,-2.9212,-2.8573,-2.8379,-2.8314,-2.7776,-2.7643,-2.7577,-2.7175,-2.705,-2.7216,-2.7665,-2.7895,-2.8017,-2.8554,-2.8575,-2.8629,-2.9212,-2.9302,-2.9328,-2.9757,-2.9947,-2.9947,-2.9947,-2.9197,-2.851,-2.851,-2.851,-2.851,-2.851,-2.851,-2.851,-2.851,-2.851,-2.851,-2.851,-2.851,-2.8498,-2.8383,-2.8383,-2.8243,-2.777,-2.736,-2.6877,-2.6501,-2.5972,-2.5644,-2.5644,-2.5031,-2.468,-2.468,-2.38,-2.3367,-2.3367,-2.3367,-2.3367,-2.3367,-2.3367,-2.3125,-2.253,-2.253,-2.2264,0.0,0.0,0.0,0.0,0.0,0.0,0.0,0.0,0.0,0.0,0.0,0.0,0.0,0.0,0.0,0.0,0.0,0.0,0.0,0.0,0.0,0.0,0.0,0.0,0.0,0.0,0.0,0.0,0.0,-3.119,-3.119,-3.119,-3.1146,-3.0925,-3.094,-3.0807,-3.0568,-3.0568,-3.0568,-3.0568,-3.0568,-3.0568,-3.0568,-3.0568,-3.0568,-3.0568,-3.0568,-3.0568,-3.0568,-3.0205,-3.0097,-3.0036,-2.954,-2.9289,-2.9226,-2.8638,-2.8444,-2.8379,-2.7908,-2.7776,-2.7828,-2.8065,-2.8157,-2.8262,-2.8828,-2.8791,-2.8698,-2.9307,-2.9233,-2.9129,-2.9691,-2.9845,-2.9909,-3.0253,-2.9793,-2.9341,-2.9341,-2.9118,-2.8961,-2.8961,-2.8736,-2.851,-2.851,-2.851,-2.851,-2.851,-2.851,-2.851,-2.851,-2.851,-2.8395,-2.8243,-2.7832,-2.7429,-2.7156,-2.6546,-2.6218,-2.6218,-2.5717,-2.538,-2.538,-2.502,-2.4498,-2.379,-2.38,-2.38,-2.38,-2.38,-2.3637,-2.3299,-2.3299,-2.3038,0.0,0.0,0.0,0.0,0.0,0.0,0.0,0.0,0.0,0.0,0.0,0.0,0.0,0.0,0.0,0.0,0.0,0.0,0.0,0.0,0.0,0.0,0.0,0.0,0.0,0.0,0.0,0.0,0.0,-3.1879,-3.1879,-3.1879,-3.1766,-3.1394,-3.1394,-3.1161,-3.0762,-3.0807,-3.0747,-3.0568,-3.0568,-3.0568,-3.0568,-3.0568,-3.0568,-3.0568,-3.0568,-3.0568,-3.0582,-3.0522,-3.0507,-3.0462,-3.0158,-2.9988,-2.9927,-2.9415,-2.9162,-2.9162,-2.8844,-2.8716,-2.8716,-2.8716,-2.8651,-2.8682,-2.917,-2.8973,-2.8756,-2.9297,-2.9078,-2.8815,-2.9421,-2.9641,-2.9835,-3.0374,-3.0556,-3.0558,-3.0317,-2.9947,-2.9574,-2.9574,-2.9118,-2.8816,-2.8657,-2.8626,-2.8638,-2.8522,-2.851,-2.851,-2.851,-2.851,-2.851,-2.851,-2.814,-2.79,-2.7906,-2.7079,-2.661,-2.661,-2.6218,-2.5979,-2.5979,-2.5895,-2.5369,-2.4145,-2.4145,-2.4145,-2.4145,-2.4145,-2.4059,-2.3973,-2.3973,-2.3887,0.0,0.0,0.0,0.0,0.0,0.0,0.0,0.0,0.0,0.0,0.0,0.0,0.0,0.0,0.0,0.0,0.0,0.0,0.0,0.0,0.0,0.0,0.0,0.0,0.0,0.0,0.0,0.0,-3.2145,-3.1879,-3.1879,-3.1879,-3.1879,-3.1823,-3.1823,-3.1595,-3.1219,-3.1552,-3.1364,-3.0568,-3.0568,-3.0568,-3.0568,-3.0568,-3.0568,-3.0568,-3.0568,-3.0568,-3.0582,-3.0294,-3.0172,-3.0111,-2.9803,-2.9665,-2.9665,-2.954,-2.954,-2.954,-2.9477,-2.9289,-2.9035,-2.9035,-2.8844,-2.8614,-2.8695,-2.8644,-2.87,-2.9361,-2.9457,-2.9524,-3.0144,-3.0683,-3.1087,-3.1168,-3.1573,-3.1629,-3.0558,-3.0254,-3.0177,-3.0177,-3.0088,-2.9871,-2.9341,-2.929,-2.9138,-2.8546,-2.851,-2.851,-2.851,-2.851,-2.851,-2.851,-2.814,-2.7897,-2.7865,-2.7371,-2.7103,-2.7103,-2.6693,-2.6445,-2.6445,-2.6063,-2.5812,-2.5633,-2.5633,-2.5633,-2.5633,-2.5633,-2.5295,-2.4765,-2.4765,-2.4413,0.0,0.0,0.0,0.0,0.0,0.0,0.0,0.0,0.0,0.0,0.0,0.0,0.0,0.0,0.0,0.0,0.0,0.0,0.0,0.0,0.0,0.0,0.0,0.0,0.0,0.0,0.0,0.0,-3.278,-3.2672,-3.2672,-3.2672,-3.2563,-3.2327,-3.2256,-3.2104,-3.1667,-3.1823,-3.1709,-3.1306,-3.1306,-3.1306,-3.1306,-3.1306,-3.1087,-3.0568,-3.0568,-3.0568,-3.0568,-3.0462,-3.0401,-3.0341,-3.0219,-3.0144,-3.0158,-2.9927,-2.9865,-2.9865,-2.9665,-2.9477,-2.9352,-2.9352,-2.9289,-2.9162,-2.9162,-2.9162,-2.9154,-2.9224,-2.9306,-2.9378,-2.9794,-3.0337,-3.088,-3.1219,-3.1748,-3.2023,-3.1482,-3.1084,-3.0696,-3.0393,-3.0317,-3.0215,-2.9974,-2.9907,-2.9692,-2.9114,-2.9022,-2.8894,-2.8522,-2.851,-2.851,-2.851,-2.8371,-2.8255,-2.8255,-2.782,-2.7602,-2.7615,-2.7115,-2.6857,-2.6857,-2.6456,-2.6207,-2.6207,-2.5968,-2.5895,-2.5895,-2.5895,-2.5728,-2.5464,-2.5464,-2.5295,0.0,0.0,0.0,0.0,0.0,0.0,0.0,0.0,0.0,0.0,0.0,0.0,0.0,0.0,0.0,0.0,0.0,0.0,0.0,0.0,0.0,0.0,0.0,0.0,0.0,0.0,0.0,0.0,-3.304,-3.3119,-3.3293,-3.3309,-3.3118,-3.2765,-3.278,-3.2547,-3.2104,-3.1992,-3.1992,-3.2104,-3.1936,-3.1879,-3.1879,-3.1879,-3.1537,-3.0911,-3.0807,-3.0687,-3.0568,-3.0568,-3.0568,-3.0568,-3.0568,-3.0568,-3.0582,-3.0355,-3.0233,-3.0158,-2.9913,-2.9789,-2.9741,-2.9741,-2.9665,-2.9602,-2.9602,-2.9602,-2.954,-2.9289,-2.9226,-2.9259,-2.9392,-2.9956,-3.0651,-3.0961,-3.1639,-3.2182,-3.2182,-3.1776,-3.132,-3.0859,-3.0784,-3.0745,-3.054,-3.0519,-3.0305,-2.9758,-2.9658,-2.9444,-2.9022,-2.893,-2.893,-2.893,-2.879,-2.8754,-2.8754,-2.8279,-2.8072,-2.8042,-2.7615,-2.7348,-2.7185,-2.6775,-2.6445,-2.6373,-2.6052,-2.5895,-2.5895,-2.5895,-2.5895,-2.5895,-2.5895,-2.5895,0.0,0.0,0.0,0.0,0.0,0.0,0.0,0.0,0.0,0.0,0.0,0.0,0.0,0.0,0.0,0.0,0.0,0.0,0.0,0.0,0.0,0.0,0.0,0.0,0.0,0.0,0.0,0.0,-3.2364,-3.2613,-3.3261,-3.3309,-3.3309,-3.324,-3.324,-3.3065,-3.2586,-3.2089,-3.2089,-3.2532,-3.2104,-3.1879,-3.1879,-3.1879,-3.1879,-3.1823,-3.1452,-3.0984,-3.0568,-3.0568,-3.0568,-3.0568,-3.0568,-3.0568,-3.0568,-3.0568,-3.0568,-3.0568,-3.0568,-3.0341,-3.005,-3.005,-2.9865,-2.9602,-2.9602,-2.9602,-2.9602,-2.9602,-2.954,-2.9491,-2.9204,-3.0024,-3.0787,-3.0501,-3.1327,-3.2182,-3.2182,-3.2169,-3.2169,-3.2096,-3.2096,-3.1936,-3.1294,-3.1156,-3.0942,-3.038,-3.0234,-3.0231,-3.0219,-3.0219,-3.0219,-3.0219,-2.969,-2.9316,-2.9316,-2.879,-2.8498,-2.851,-2.8122,-2.7626,-2.7185,-2.6775,-2.629,-2.5895,-2.5895,-2.5895,-2.5895,-2.5895,-2.5895,-2.5895,-2.5895,-2.5895,0.0,0.0,0.0,0.0,0.0,0.0,0.0,0.0,0.0,0.0,0.0,0.0,0.0,0.0,0.0,0.0,0.0,0.0,0.0,0.0,0.0,0.0,0.0,0.0,0.0,0.0,0.0,0.0,0.0,-3.1697,-3.195,-3.2392,-3.2645,-3.2645,-3.3072,-3.324,-3.3065,-3.2904,-3.2904,-3.3065,-3.2904,-3.2796,-3.2796,-3.2796,-3.2617,-3.2312,-3.2216,-3.1879,-3.1422,-3.1422,-3.1422,-3.1422,-3.1422,-3.1263,-3.1043,-3.1043,-3.0866,-3.0568,-3.0568,-3.0507,-3.0401,-3.0401,-3.0341,-3.0266,-3.0266,-3.0266,-3.0219,-2.9988,-2.9927,-2.9803,-2.9226,-2.9997,-3.1034,-3.1425,-3.187,-3.2182,-3.2182,-3.2182,-3.2182,-3.2182,-3.2182,-3.2096,-3.1863,-3.1856,-3.1602,-3.0982,-3.0904,-3.0745,-3.0351,-3.0325,-3.0325,-3.0325,-3.0098,-3.0012,-2.999,-2.942,-2.9047,-2.9047,-2.8595,-2.8191,-2.8018,-2.7615,-2.7208,-2.6704,-2.6456,-2.6135,-2.5895,-2.5895,-2.5895,-2.5895,-2.5895,-2.5895,0.0,0.0,0.0,0.0,0.0,0.0,0.0,0.0,0.0,0.0,0.0,0.0,0.0,0.0,0.0,0.0,0.0,0.0,0.0,0.0,0.0,0.0,0.0,0.0,0.0,0.0,0.0,0.0,0.0,0.0,-3.1207,-3.1665,-3.1918,-3.1918,-3.2582,-3.2945,-3.2945,-3.3182,-3.3309,-3.3309,-3.3309,-3.3309,-3.3309,-3.3309,-3.3118,-3.2819,-3.2819,-3.2492,-3.1879,-3.1879,-3.1879,-3.1879,-3.1879,-3.1724,-3.1495,-3.1495,-3.1321,-3.1029,-3.1029,-3.1029,-3.1029,-3.0866,-3.0807,-3.0821,-3.0642,-3.0568,-3.0582,-3.0341,-3.0294,-3.0158,-2.9602,-3.0257,-3.1348,-3.2299,-3.2444,-3.2372,-3.2372,-3.2314,-3.2182,-3.2182,-3.2182,-3.2182,-3.2182,-3.2182,-3.2028,-3.1594,-3.1567,-3.1355,-3.1023,-3.0924,-3.0924,-3.0924,-3.0758,-3.0616,-3.0573,-3.0022,-2.9689,-2.9736,-2.9337,-2.904,-2.8882,-2.8419,-2.8007,-2.7487,-2.701,-2.661,-2.6302,-2.6063,-2.5895,-2.5895,-2.5895,-2.5895,0.0,0.0,0.0,0.0,0.0,0.0,0.0,0.0,0.0,0.0,0.0,0.0,0.0,0.0,0.0,0.0,0.0,0.0,0.0,0.0,0.0,0.0,0.0,0.0,0.0,0.0,0.0,0.0,-3.0148,-3.0449,-3.1112,-3.1176,-3.1191,-3.1223,-3.1871,-3.2301,-3.2317,-3.2945,-3.3277,-3.3309,-3.3309,-3.3309,-3.3309,-3.3309,-3.3309,-3.3309,-3.3309,-3.278,-3.1936,-3.1936,-3.1936,-3.1936,-3.1936,-3.1936,-3.1936,-3.1936,-3.1936,-3.1879,-3.1879,-3.1879,-3.1823,-3.1452,-3.1351,-3.1219,-3.0807,-3.0628,-3.0642,-3.0628,-3.0642,-3.0522,-3.0215,-3.0814,-3.178,-3.2974,-3.2988,-3.2704,-3.2704,-3.2444,-3.2255,-3.2182,-3.2182,-3.2182,-3.2182,-3.2182,-3.2182,-3.2182,-3.2182,-3.2182,-3.2182,-3.2182,-3.2182,-3.2182,-3.1608,-3.1202,-3.1202,-3.0659,-3.0367,-3.0361,-3.0303,-3.0088,-2.9704,-2.9184,-2.8609,-2.8176,-2.7568,-2.7255,-2.7255,-2.6385,-2.5906,-2.5906,-2.5906,-2.5895,-2.8298,0.0,0.0,0.0,0.0,0.0,0.0,0.0,0.0,0.0,0.0,0.0,0.0,0.0,0.0,0.0,0.0,0.0,0.0,0.0,0.0,0.0,0.0,0.0,0.0,0.0,0.0,0.0,-2.9422,-2.9501,-2.9643,-3.0196,-3.0701,-3.1191,-3.1413,-3.176,-3.2317,-3.2455,-3.2803,-3.3309,-3.3309,-3.3309,-3.3309,-3.3309,-3.3309,-3.3309,-3.3309,-3.3134,-3.2904,-3.2904,-3.2904,-3.2904,-3.2904,-3.2726,-3.2437,-3.2437,-3.2216,-3.1879,-3.1879,-3.1879,-3.1879,-3.1766,-3.1709,-3.1709,-3.1595,-3.1537,-3.148,-3.1219,-3.1102,-3.1131,-3.1372,-3.1763,-3.23,-3.3087,-3.3199,-3.3129,-3.3129,-3.3058,-3.286,-3.2314,-3.2182,-3.2182,-3.2182,-3.2182,-3.2182,-3.2182,-3.2182,-3.2182,-3.2182,-3.2182,-3.2182,-3.2182,-3.2028,-3.1901,-3.1901,-3.1328,-3.0937,-3.0934,-3.0558,-3.0241,-3.0165,-2.9935,-2.9704,-2.9303,-2.9069,-2.8821,-2.8469,-2.7069,-2.6373,-2.6373,-2.6063,-2.5895,0.0,0.0,0.0,0.0,0.0,0.0,-2.7897,-2.7869,0.0,0.0,0.0,0.0,0.0,0.0,0.0,0.0,0.0,0.0,0.0,0.0,0.0,0.0,0.0,0.0,0.0,-3.0028,-3.0097,-2.975,-2.9705,-2.9633,-2.9425,-2.9594,-2.9927,-3.0322,-3.0622,-3.0986,-3.1446,-3.1681,-3.2171,-3.2866,-3.2866,-3.3024,-3.3309,-3.3309,-3.3309,-3.3309,-3.3309,-3.3309,-3.3309,-3.3309,-3.3309,-3.3309,-3.3309,-3.3118,-3.2888,-3.2888,-3.2726,-3.2492,-3.2492,-3.2492,-3.2453,-3.2272,-3.2201,-3.216,-3.1992,-3.1879,-3.1823,-3.161,-3.1762,-3.2138,-3.2603,-3.3098,-3.3609,-3.3994,-3.3934,-3.3811,-3.3548,-3.3409,-3.3199,-3.2731,-3.2516,-3.2444,-3.2444,-3.2314,-3.2182,-3.2182,-3.2182,-3.2182,-3.2182,-3.2182,-3.2182,-3.2182,-3.2182,-3.2182,-3.2182,-3.1861,-3.1629,-3.1622,-3.1272,-3.1097,-3.1097,-3.0859,-3.0545,-3.0304,-3.0088,-2.9768,-2.9266,-2.8084,-2.7371,-2.7151,-2.6764,-2.6456,0.0,0.0,0.0,0.0,0.0,0.0,-2.8192,-2.8139,-2.8075,0.0,0.0,0.0,0.0,0.0,0.0,0.0,0.0,0.0,0.0,0.0,0.0,0.0,0.0,0.0,-2.9571,-3.0191,-3.0587,-3.0492,-3.0575,-3.0418,-2.9924,-2.9454,-2.9243,-2.9289,-2.9863,-3.0244,-3.0307,-3.0878,-3.1494,-3.2206,-3.2285,-3.2582,-3.3182,-3.3261,-3.3309,-3.3309,-3.3309,-3.3309,-3.3309,-3.3309,-3.3309,-3.3309,-3.3309,-3.3309,-3.3309,-3.3309,-3.3309,-3.3309,-3.3309,-3.3309,-3.324,-3.2834,-3.2656,-3.2602,-3.216,-3.2048,-3.2064,-3.2083,-3.2585,-3.3254,-3.3863,-3.4531,-3.5122,-3.528,-3.5008,-3.4595,-3.4167,-3.3825,-3.3534,-3.3534,-3.3058,-3.2704,-3.2704,-3.2444,-3.2182,-3.2182,-3.2182,-3.2182,-3.2182,-3.2182,-3.2182,-3.2182,-3.2182,-3.2182,-3.2182,-3.2182,-3.2182,-3.2182,-3.2182,-3.2182,-3.2182,-3.1629,-3.1307,-3.1307,-3.0771,-3.0317,-3.0012,-2.9332,-2.8773,-2.8164,-2.7775,-2.7313,0.0,0.0,0.0,0.0,0.0,0.0,-2.841,-2.8428,-2.8428,0.0,0.0,0.0,0.0,0.0,0.0,0.0,0.0,0.0,0.0,0.0,0.0,0.0,0.0,0.0,-2.9238,-2.9338,-2.9512,-2.9794,-3.0413,-3.0707,-3.0625,-3.0251,-3.0166,-3.046,-3.0303,-3.0401,-3.0862,-3.087,-3.107,-3.1428,-3.1997,-3.2396,-3.2487,-3.304,-3.3309,-3.3309,-3.3309,-3.3309,-3.3309,-3.3309,-3.3309,-3.3309,-3.3309,-3.3309,-3.3309,-3.3309,-3.3309,-3.3309,-3.3309,-3.3309,-3.3293,-3.3187,-3.3187,-3.3134,-3.3065,-3.3011,-3.3083,-3.3315,-3.3533,-3.3894,-3.4623,-3.523,-3.5746,-3.5755,-3.5721,-3.5593,-3.5529,-3.5449,-3.5255,-3.489,-3.3659,-3.2704,-3.2704,-3.2444,-3.2182,-3.2182,-3.2182,-3.2182,-3.2182,-3.2182,-3.2182,-3.2182,-3.2182,-3.2182,-3.2182,-3.2182,-3.2182,-3.2182,-3.2182,-3.2182,-3.2182,-3.2096,-3.2009,-3.2009,-3.1863,-3.179,-3.1716,-3.0228,-2.9213,-2.8548,-2.8469,-2.8335,0.0,0.0,0.0,-2.9225,0.0,0.0,0.0,-2.8761,-2.8713,-2.8529,0.0,0.0,0.0,0.0,0.0,0.0,0.0,0.0,0.0,0.0,0.0,0.0,0.0,0.0,-2.902,-2.9366,-2.9644,-2.9725,-3.0238,-3.0548,-3.0548,-3.053,-3.0608,-3.0788,-3.0584,-3.0584,-3.0846,-3.082,-3.1024,-3.1518,-3.2062,-3.2563,-3.2901,-3.3476,-3.3694,-3.3694,-3.3694,-3.3694,-3.3694,-3.3694,-3.3694,-3.3642,-3.3398,-3.3309,-3.3309,-3.3309,-3.3309,-3.3309,-3.3309,-3.3309,-3.3309,-3.3309,-3.3309,-3.3309,-3.3309,-3.353,-3.3808,-3.3936,-3.4556,-3.5236,-3.5592,-3.6181,-3.6631,-3.6383,-3.6321,-3.6243,-3.5991,-3.5913,-3.5849,-3.5593,-3.4728,-3.3851,-3.3115,-3.2704,-3.2372,-3.2255,-3.2182,-3.2182,-3.2182,-3.2182,-3.2182,-3.2182,-3.2182,-3.2182,-3.2182,-3.2182,-3.2182,-3.2182,-3.2182,-3.2182,-3.2182,-3.2182,-3.2182,-3.2182,-3.2182,-3.2182,-3.2182,-3.1334,-3.0607,-2.9961,-2.9666,-2.9279,0.0,0.0,0.0,0.0,0.0,-2.9372,0.0,0.0,0.0,-2.8724,0.0,0.0,0.0,0.0,0.0,0.0,0.0,0.0,0.0,0.0,0.0,0.0,0.0,0.0,0.0,-2.9404,-2.9828,-2.9729,-3.0041,-3.0295,-3.0486,-3.0645,-3.0858,-3.1106,-3.0971,-3.0897,-3.0858,-3.0891,-3.1153,-3.16,-3.2094,-3.2661,-3.3403,-3.3875,-3.4104,-3.4184,-3.4184,-3.4184,-3.4184,-3.4151,-3.4151,-3.4134,-3.3642,-3.345,-3.345,-3.345,-3.3398,-3.3398,-3.3398,-3.3346,-3.3309,-3.3309,-3.3309,-3.3324,-3.3451,-3.3862,-3.4352,-3.462,-3.5537,-3.6453,-3.6595,-3.7054,-3.7421,-3.6968,-3.6846,-3.6708,-3.6305,-3.6243,-3.618,-3.6039,-3.5864,-3.527,-3.3934,-3.3325,-3.2832,-3.2574,-3.2444,-3.2386,-3.2314,-3.2314,-3.2241,-3.2182,-3.2182,-3.2182,-3.2182,-3.2182,-3.2182,-3.2182,-3.2182,-3.2182,-3.2182,-3.2182,-3.2182,-3.2182,-3.2182,-3.2182,-3.2182,-3.2182,-3.1936,-3.1307,-3.0859,-3.0317,0.0,0.0,0.0,0.0,-2.9492,0.0,0.0,0.0,-2.9332,-2.9312,0.0,0.0,0.0,0.0,0.0,0.0,0.0,0.0,0.0,0.0,0.0,0.0,0.0,0.0,0.0,-2.8561,-2.9035,-2.8987,-2.9709,-3.0412,-3.1042,-3.089,-3.1219,-3.2179,-3.1856,-3.16,-3.149,-3.1414,-3.1179,-3.0922,-3.1541,-3.2259,-3.2994,-3.3673,-3.4203,-3.4529,-3.4529,-3.4529,-3.4529,-3.4234,-3.4284,-3.4496,-3.4134,-3.4,-3.4,-3.4,-3.3848,-3.3642,-3.3642,-3.3503,-3.3309,-3.3309,-3.3309,-3.3419,-3.4004,-3.4225,-3.4557,-3.5821,-3.6311,-3.6564,-3.7196,-3.7417,-3.748,-3.7421,-3.7405,-3.7405,-3.7345,-3.7345,-3.715,-3.6708,-3.6585,-3.6258,-3.5335,-3.4447,-3.3822,-3.3822,-3.3451,-3.3072,-3.2704,-3.2632,-3.2503,-3.2241,-3.2182,-3.2182,-3.2182,-3.2182,-3.2182,-3.2182,-3.2182,-3.2182,-3.2182,-3.2182,-3.2182,-3.2182,-3.2182,-3.2182,-3.2182,-3.2182,-3.2096,-3.1817,-3.173,-3.1495,0.0,0.0,0.0,0.0,0.0,0.0,-2.9512,0.0,-2.9453,0.0,0.0,0.0,0.0,0.0,0.0,0.0,-2.8621,0.0,0.0,0.0,0.0,0.0,0.0,0.0,0.0,0.0,0.0,0.0,-2.8947,-2.9544,-2.9843,-3.0604,-3.1252,-3.1686,-3.2004,-3.2126,-3.2073,-3.202,-3.1912,-3.1728,-3.2261,-3.2895,-3.3646,-3.4202,-3.4773,-3.5357,-3.5357,-3.5357,-3.5357,-3.5174,-3.522,-3.5357,-3.5174,-3.4738,-3.4101,-3.4101,-3.405,-3.3949,-3.3949,-3.3848,-3.3745,-3.3607,-3.372,-3.3925,-3.4209,-3.4873,-3.5647,-3.6248,-3.6722,-3.7101,-3.7401,-3.748,-3.748,-3.748,-3.748,-3.748,-3.748,-3.748,-3.7405,-3.7225,-3.7165,-3.7029,-3.6693,-3.5642,-3.4714,-3.4485,-3.4245,-3.3988,-3.3851,-3.3713,-3.3575,-3.3437,-3.3044,-3.2761,-3.2761,-3.2444,-3.2182,-3.2182,-3.2182,-3.2182,-3.2182,-3.2182,-3.2182,-3.2182,-3.2182,-3.2182,-3.2182,-3.2182,-3.2182,-3.2036,-3.1963,-3.1743,-2.9755,0.0,0.0,0.0,0.0,0.0,0.0,0.0,0.0,0.0,0.0,0.0,0.0,0.0,0.0,0.0,0.0,0.0,0.0,0.0,0.0,0.0,0.0,0.0,0.0,0.0,0.0,-2.7701,-2.8245,-2.8667,-2.8895,-2.9966,-3.0756,-3.1177,-3.1756,-3.2177,-3.2406,-3.2406,-3.2406,-3.2406,-3.2683,-3.3355,-3.4328,-3.4628,-3.5263,-3.6054,-3.6054,-3.6054,-3.6054,-3.595,-3.595,-3.6054,-3.595,-3.5357,-3.4593,-3.4593,-3.4545,-3.4496,-3.4496,-3.4366,-3.4217,-3.4124,-3.4334,-3.4638,-3.502,-3.5864,-3.6683,-3.6759,-3.7186,-3.7583,-3.7539,-3.748,-3.748,-3.748,-3.748,-3.748,-3.748,-3.748,-3.748,-3.748,-3.748,-3.748,-3.748,-3.6507,-3.5657,-3.537,-3.5109,-3.4927,-3.4861,-3.4714,-3.4581,-3.438,-3.3905,-3.3561,-3.3492,-3.3044,-3.2717,-3.2516,-3.2431,-3.2372,-3.2182,-3.2182,-3.2182,-3.2182,-3.2182,-3.2182,-3.2182,-3.2182,-3.2182,-3.2182,-3.2036,-3.1817,0.0,0.0,0.0,-2.9738,0.0,0.0,0.0,0.0,-2.9588,0.0,0.0,0.0,0.0,0.0,0.0,0.0,0.0,0.0,0.0,0.0,0.0,0.0,0.0,0.0,0.0,0.0,0.0,-2.773,-2.7719,-2.807,-2.886,-2.8947,-2.965,-3.1142,-3.123,-3.1616,-3.2388,-3.2406,-3.2406,-3.2406,-3.2423,-3.3231,-3.4688,-3.4723,-3.5357,-3.6502,-3.6502,-3.6502,-3.6444,-3.6054,-3.6156,-3.6444,-3.6054,-3.5864,-3.5847,-3.5847,-3.5671,-3.5459,-3.5459,-3.5065,-3.466,-3.5013,-3.5169,-3.5428,-3.6788,-3.7242,-3.7365,-3.776,-3.787,-3.7844,-3.7583,-3.748,-3.748,-3.748,-3.748,-3.748,-3.748,-3.748,-3.748,-3.748,-3.748,-3.748,-3.748,-3.7029,-3.6646,-3.6646,-3.618,-3.5721,-3.54,-3.54,-3.519,-3.4662,-3.4595,-3.4461,-3.4312,-3.4245,-3.3905,-3.3213,-3.3157,-3.2903,-3.2255,-3.2182,-3.2182,-3.2182,-3.2182,-3.2182,-3.2182,-3.2182,-3.2182,-3.2182,-3.2182,-3.1963,0.0,0.0,-3.0011,-2.9874,0.0,0.0,0.0,0.0,0.0,0.0,0.0,0.0,0.0,0.0,0.0,0.0,0.0,0.0,0.0,0.0,0.0,0.0,0.0,0.0,0.0,0.0,0.0,-2.7964,-2.78,-2.7824,-2.8087,-2.8614,-2.9386,-3.044,-3.0949,-3.1581,-3.2388,-3.2406,-3.2406,-3.2406,-3.2406,-3.3213,-3.4688,-3.4688,-3.5492,-3.6829,-3.6829,-3.6829,-3.6811,-3.6673,-3.6713,-3.6829,-3.6673,-3.6615,-3.6574,-3.6079,-3.5847,-3.5742,-3.5742,-3.5859,-3.5991,-3.6164,-3.6572,-3.7105,-3.7527,-3.7818,-3.8068,-3.8197,-3.8205,-3.8205,-3.8107,-3.7918,-3.7786,-3.7786,-3.7626,-3.748,-3.748,-3.748,-3.748,-3.748,-3.748,-3.748,-3.748,-3.7345,-3.7225,-3.7225,-3.6952,-3.6738,-3.6616,-3.6507,-3.6399,-3.6211,-3.5721,-3.5449,-3.537,-3.4846,-3.4312,-3.3973,-3.3905,-3.3837,-3.3575,-3.3101,-3.2832,-3.2832,-3.2444,-3.2182,-3.2182,-3.2182,-3.2182,-3.2182,-3.2182,-3.2036,-3.0279,-3.0171,0.0,-2.9992,-2.9965,0.0,-2.9808,0.0,0.0,0.0,0.0,0.0,0.0,0.0,0.0,0.0,0.0,0.0,0.0,-2.9314,0.0,0.0,0.0,0.0,0.0,0.0,-2.829,-2.7964,-2.7897,-2.78,0.0,0.0,-2.8842,-2.965,-3.0404,-3.1177,-3.1967,-3.2265,-3.2406,-3.2406,-3.2406,-3.3213,-3.4688,-3.4688,-3.553,-3.6987,-3.6987,-3.6987,-3.6987,-3.6987,-3.6987,-3.6987,-3.6987,-3.6987,-3.693,-3.6492,-3.6308,-3.6301,-3.6474,-3.6713,-3.7075,-3.7512,-3.7995,-3.8421,-3.8688,-3.8913,-3.911,-3.9171,-3.8946,-3.8743,-3.8626,-3.8267,-3.7886,-3.7786,-3.7642,-3.748,-3.748,-3.748,-3.748,-3.748,-3.748,-3.748,-3.748,-3.748,-3.748,-3.748,-3.7405,-3.7329,-3.7329,-3.7225,-3.7121,-3.7105,-3.6631,-3.6368,-3.6321,-3.58,-3.527,-3.4912,-3.478,-3.4647,-3.4447,-3.3905,-3.3561,-3.3561,-3.2903,-3.2574,-3.2574,-3.2314,-3.2182,-3.2182,-3.2182,-3.2109]},{"header":{"parameterUnit":"m.s-1","parameterCategory":1,"la1":30.6,"la2":29.2853,"lo1":-89.7004,"lo2":-87.6739,"dy":0.0162,"dx":0.0183,"nx":112,"ny":82,"refTime":"2023-04-27T12:00:00:Z","depth":0,"parameterNumber":3,"parameterNumberName":"V-component_of_WINDS"},"data":[0.0,0.0,0.0,0.0,0.0,0.0,0.0,0.0,0.0,0.0,0.0,0.0,0.0,0.0,0.0,0.0,0.0,0.0,0.0,0.0,0.0,0.0,0.0,0.0,0.0,0.0,0.0,0.0,0.0,0.0,0.0,0.0,0.0,0.0,0.0,0.0,0.0,0.0,0.0,0.0,0.0,0.0,0.0,0.0,0.0,0.0,0.0,0.0,0.0,0.0,0.0,0.0,0.0,0.0,0.0,0.0,0.0,0.0,0.0,0.0,0.0,0.0,0.0,0.0,0.0,0.0,0.0,0.0,0.0,0.0,0.0,0.0,0.0,0.0,0.0,0.0,0.0,0.0,0.0,0.0,0.0,0.0,0.0,0.0,0.0,0.0,0.0,0.0,0.0,0.0,-2.803,-2.8998,-2.8509,-2.8298,-2.871,-2.8793,-2.9252,-3.0188,0.0,0.0,0.0,0.0,0.0,0.0,0.0,0.0,0.0,0.0,0.0,0.0,0.0,0.0,0.0,0.0,0.0,0.0,0.0,0.0,0.0,0.0,0.0,0.0,0.0,0.0,0.0,0.0,0.0,0.0,0.0,0.0,0.0,0.0,0.0,0.0,0.0,0.0,0.0,0.0,0.0,0.0,0.0,0.0,0.0,0.0,0.0,0.0,0.0,0.0,0.0,0.0,0.0,0.0,0.0,0.0,0.0,0.0,0.0,0.0,0.0,0.0,0.0,0.0,0.0,0.0,0.0,0.0,0.0,0.0,0.0,0.0,0.0,0.0,0.0,0.0,0.0,0.0,0.0,0.0,0.0,0.0,0.0,0.0,0.0,0.0,0.0,0.0,0.0,0.0,0.0,0.0,0.0,0.0,0.0,0.0,0.0,0.0,0.0,0.0,0.0,0.0,0.0,0.0,-2.7559,-2.9383,-2.9524,-2.9685,-3.0145,-3.0251,-3.048,-3.1021,0.0,0.0,0.0,0.0,0.0,0.0,0.0,0.0,0.0,0.0,0.0,0.0,0.0,0.0,0.0,0.0,0.0,0.0,0.0,0.0,0.0,0.0,0.0,0.0,0.0,0.0,0.0,0.0,0.0,0.0,0.0,0.0,0.0,0.0,0.0,0.0,0.0,0.0,0.0,0.0,0.0,0.0,0.0,0.0,0.0,0.0,0.0,0.0,0.0,0.0,0.0,0.0,0.0,0.0,0.0,0.0,0.0,0.0,0.0,0.0,0.0,0.0,0.0,0.0,0.0,0.0,0.0,0.0,0.0,0.0,0.0,0.0,0.0,0.0,0.0,0.0,0.0,0.0,0.0,0.0,0.0,0.0,0.0,0.0,0.0,0.0,0.0,0.0,0.0,0.0,0.0,0.0,0.0,0.0,0.0,0.0,0.0,0.0,0.0,0.0,0.0,0.0,0.0,-2.869,-2.9499,-3.0426,-3.0549,-3.0675,-3.0878,-3.0925,-3.1021,-3.119,-3.0968,0.0,0.0,0.0,0.0,0.0,0.0,0.0,0.0,0.0,0.0,0.0,0.0,0.0,0.0,0.0,0.0,0.0,0.0,0.0,0.0,0.0,0.0,0.0,0.0,0.0,0.0,0.0,0.0,0.0,0.0,0.0,0.0,0.0,0.0,0.0,0.0,0.0,0.0,0.0,0.0,0.0,0.0,0.0,0.0,0.0,0.0,0.0,0.0,0.0,0.0,0.0,0.0,0.0,0.0,0.0,0.0,0.0,0.0,0.0,0.0,0.0,0.0,0.0,0.0,0.0,0.0,0.0,0.0,0.0,0.0,0.0,0.0,0.0,0.0,0.0,0.0,0.0,0.0,0.0,0.0,0.0,0.0,0.0,0.0,0.0,0.0,0.0,0.0,0.0,0.0,0.0,0.0,0.0,0.0,0.0,0.0,0.0,0.0,0.0,0.0,0.0,0.0,-3.1211,-3.1213,-3.1207,-3.119,-3.119,-3.119,-3.1274,-3.1274,-3.119,-3.1274,0.0,0.0,0.0,0.0,0.0,0.0,0.0,0.0,0.0,0.0,0.0,0.0,0.0,0.0,0.0,0.0,0.0,0.0,0.0,0.0,0.0,0.0,0.0,0.0,0.0,0.0,0.0,0.0,0.0,0.0,0.0,0.0,0.0,0.0,0.0,0.0,0.0,0.0,0.0,0.0,0.0,0.0,0.0,0.0,0.0,0.0,0.0,0.0,0.0,0.0,0.0,0.0,0.0,0.0,0.0,0.0,0.0,0.0,0.0,0.0,0.0,0.0,0.0,0.0,0.0,0.0,0.0,0.0,0.0,0.0,0.0,0.0,0.0,0.0,0.0,0.0,0.0,0.0,0.0,0.0,0.0,0.0,0.0,0.0,0.0,0.0,0.0,0.0,0.0,0.0,0.0,0.0,0.0,0.0,0.0,0.0,0.0,0.0,0.0,0.0,0.0,0.0,-3.1199,-3.1207,-3.119,-3.119,-3.119,-3.119,-3.1274,-3.1274,-3.119,-3.1274,0.0,0.0,0.0,0.0,0.0,0.0,0.0,0.0,0.0,0.0,0.0,0.0,0.0,0.0,0.0,0.0,0.0,0.0,0.0,0.0,0.0,0.0,0.0,0.0,0.0,0.0,0.0,0.0,0.0,0.0,0.0,0.0,0.0,0.0,0.0,0.0,0.0,0.0,0.0,0.0,0.0,0.0,0.0,0.0,0.0,0.0,0.0,0.0,0.0,0.0,0.0,0.0,0.0,0.0,0.0,0.0,0.0,0.0,0.0,0.0,0.0,0.0,0.0,0.0,0.0,0.0,0.0,0.0,0.0,0.0,0.0,0.0,0.0,0.0,0.0,0.0,0.0,0.0,0.0,0.0,0.0,0.0,0.0,0.0,0.0,0.0,0.0,0.0,0.0,0.0,0.0,0.0,0.0,0.0,0.0,0.0,0.0,0.0,0.0,0.0,0.0,0.0,-3.1208,-3.1194,0.0,-3.119,-3.123,-3.1274,-3.1312,-3.1295,-3.1274,0.0,0.0,0.0,0.0,0.0,0.0,0.0,0.0,0.0,0.0,0.0,0.0,0.0,0.0,0.0,0.0,0.0,0.0,0.0,0.0,0.0,0.0,0.0,0.0,0.0,0.0,0.0,0.0,0.0,0.0,0.0,0.0,0.0,0.0,0.0,0.0,0.0,0.0,0.0,0.0,0.0,0.0,0.0,0.0,0.0,0.0,0.0,0.0,0.0,0.0,0.0,0.0,0.0,0.0,0.0,0.0,0.0,0.0,0.0,0.0,0.0,0.0,0.0,0.0,0.0,0.0,0.0,0.0,0.0,0.0,0.0,0.0,0.0,0.0,0.0,0.0,0.0,0.0,0.0,0.0,0.0,0.0,0.0,0.0,0.0,0.0,0.0,0.0,0.0,0.0,0.0,0.0,0.0,0.0,0.0,0.0,0.0,0.0,0.0,0.0,0.0,0.0,-3.1125,-3.1314,-3.1284,0.0,-3.1325,-3.1368,-3.1507,-3.1507,-3.1507,-3.1452,0.0,0.0,0.0,0.0,0.0,0.0,0.0,0.0,0.0,0.0,0.0,0.0,0.0,0.0,0.0,0.0,0.0,0.0,0.0,0.0,0.0,0.0,0.0,0.0,0.0,0.0,0.0,0.0,0.0,0.0,0.0,0.0,0.0,0.0,0.0,0.0,0.0,0.0,0.0,0.0,0.0,0.0,0.0,0.0,0.0,0.0,0.0,0.0,0.0,0.0,0.0,0.0,0.0,0.0,0.0,0.0,0.0,0.0,0.0,0.0,0.0,0.0,0.0,0.0,0.0,0.0,0.0,0.0,0.0,0.0,0.0,0.0,0.0,0.0,0.0,0.0,0.0,0.0,0.0,0.0,0.0,0.0,0.0,0.0,0.0,0.0,0.0,0.0,0.0,0.0,0.0,0.0,0.0,0.0,0.0,0.0,0.0,0.0,0.0,0.0,0.0,0.0,-3.1465,-3.1517,-3.1492,-3.1517,-3.1517,-3.1634,-3.1967,-3.2003,-3.195,0.0,0.0,0.0,0.0,0.0,0.0,0.0,0.0,0.0,0.0,0.0,0.0,0.0,0.0,0.0,0.0,0.0,0.0,0.0,0.0,0.0,0.0,0.0,0.0,0.0,0.0,0.0,0.0,0.0,0.0,0.0,0.0,0.0,0.0,0.0,0.0,0.0,0.0,0.0,0.0,0.0,0.0,0.0,0.0,0.0,0.0,0.0,0.0,0.0,0.0,0.0,0.0,0.0,0.0,0.0,0.0,0.0,0.0,0.0,0.0,0.0,0.0,0.0,0.0,0.0,0.0,0.0,0.0,0.0,0.0,0.0,0.0,0.0,0.0,0.0,0.0,0.0,0.0,0.0,0.0,0.0,0.0,0.0,0.0,0.0,0.0,0.0,0.0,0.0,0.0,0.0,0.0,0.0,0.0,0.0,0.0,0.0,0.0,0.0,0.0,0.0,0.0,0.0,-3.1647,-3.2117,-3.2371,-3.1894,-3.2074,-3.2265,-3.2486,-3.2486,-3.2351,-3.195,0.0,0.0,0.0,0.0,0.0,0.0,0.0,0.0,0.0,0.0,0.0,0.0,0.0,0.0,0.0,0.0,0.0,0.0,0.0,0.0,0.0,0.0,0.0,0.0,0.0,0.0,0.0,0.0,0.0,0.0,0.0,0.0,0.0,0.0,0.0,0.0,0.0,0.0,0.0,0.0,0.0,0.0,0.0,0.0,0.0,0.0,0.0,0.0,0.0,0.0,0.0,0.0,0.0,0.0,0.0,0.0,0.0,0.0,0.0,0.0,0.0,0.0,0.0,0.0,0.0,0.0,0.0,0.0,0.0,0.0,0.0,0.0,0.0,0.0,0.0,0.0,0.0,0.0,0.0,0.0,0.0,0.0,0.0,0.0,0.0,0.0,0.0,0.0,0.0,0.0,0.0,0.0,0.0,0.0,0.0,0.0,0.0,0.0,0.0,0.0,0.0,0.0,-3.2455,-3.2722,-3.2818,-3.2335,-3.2502,-3.2699,-3.2908,-3.2939,-3.2813,-3.2484,0.0,0.0,0.0,0.0,0.0,0.0,0.0,0.0,0.0,0.0,0.0,0.0,0.0,0.0,0.0,0.0,0.0,0.0,0.0,0.0,0.0,0.0,0.0,0.0,0.0,0.0,0.0,0.0,0.0,0.0,0.0,0.0,0.0,0.0,0.0,0.0,0.0,0.0,0.0,0.0,0.0,0.0,0.0,0.0,0.0,0.0,0.0,0.0,0.0,0.0,0.0,0.0,0.0,0.0,0.0,0.0,0.0,0.0,0.0,0.0,0.0,0.0,0.0,0.0,0.0,0.0,0.0,0.0,0.0,0.0,0.0,0.0,0.0,0.0,0.0,0.0,0.0,0.0,0.0,0.0,0.0,0.0,0.0,0.0,0.0,0.0,0.0,0.0,0.0,0.0,0.0,0.0,0.0,0.0,0.0,0.0,0.0,0.0,0.0,0.0,0.0,0.0,-3.358,-3.3298,-3.2998,-3.2784,-3.2844,-3.3032,-3.3321,-3.335,-3.3302,-3.3214,0.0,0.0,0.0,0.0,0.0,0.0,0.0,0.0,0.0,0.0,0.0,0.0,0.0,0.0,0.0,0.0,0.0,0.0,0.0,0.0,0.0,0.0,0.0,0.0,0.0,0.0,0.0,0.0,0.0,0.0,0.0,0.0,0.0,0.0,0.0,0.0,0.0,0.0,0.0,0.0,0.0,0.0,0.0,0.0,0.0,0.0,0.0,0.0,0.0,0.0,0.0,0.0,0.0,0.0,0.0,0.0,0.0,0.0,0.0,0.0,-2.85,0.0,0.0,0.0,0.0,0.0,0.0,0.0,0.0,0.0,0.0,0.0,0.0,0.0,0.0,0.0,0.0,0.0,0.0,0.0,0.0,0.0,0.0,0.0,0.0,0.0,0.0,0.0,0.0,0.0,0.0,0.0,0.0,0.0,0.0,0.0,0.0,0.0,0.0,0.0,0.0,0.0,-3.3424,-3.3571,-3.3437,-3.3202,-3.3437,-3.3625,-3.368,-3.368,-3.355,-3.3214,-3.3437,0.0,0.0,0.0,0.0,0.0,0.0,0.0,0.0,0.0,0.0,0.0,0.0,0.0,0.0,0.0,0.0,0.0,0.0,0.0,0.0,0.0,0.0,0.0,0.0,0.0,0.0,0.0,0.0,0.0,0.0,0.0,0.0,0.0,0.0,0.0,0.0,0.0,0.0,0.0,0.0,0.0,0.0,0.0,0.0,0.0,0.0,0.0,0.0,0.0,0.0,0.0,0.0,0.0,0.0,0.0,0.0,0.0,0.0,0.0,0.0,-2.8737,0.0,0.0,0.0,0.0,0.0,0.0,0.0,0.0,0.0,0.0,0.0,0.0,0.0,0.0,0.0,0.0,0.0,0.0,0.0,0.0,0.0,0.0,0.0,0.0,0.0,0.0,0.0,0.0,0.0,0.0,0.0,0.0,0.0,0.0,0.0,0.0,0.0,0.0,0.0,0.0,-3.3486,-3.3701,-3.3662,-3.3512,-3.4027,-3.4394,-3.4394,-3.4879,-3.5108,-3.488,-3.5106,0.0,0.0,0.0,0.0,0.0,0.0,0.0,0.0,0.0,0.0,0.0,0.0,0.0,0.0,0.0,0.0,0.0,0.0,0.0,0.0,0.0,0.0,0.0,0.0,0.0,0.0,0.0,0.0,0.0,0.0,0.0,0.0,0.0,0.0,0.0,0.0,0.0,0.0,0.0,0.0,0.0,0.0,0.0,0.0,0.0,0.0,0.0,0.0,0.0,0.0,0.0,0.0,0.0,-3.0564,-3.081,-3.0829,-3.1563,-3.2029,-3.2195,-3.0538,-2.9869,-2.9907,-2.9163,0.0,0.0,0.0,0.0,0.0,0.0,0.0,0.0,0.0,0.0,0.0,0.0,0.0,0.0,0.0,0.0,0.0,0.0,0.0,0.0,0.0,0.0,0.0,0.0,-3.1875,-3.1895,0.0,0.0,0.0,0.0,0.0,0.0,0.0,0.0,0.0,0.0,0.0,0.0,-3.3628,-3.397,-3.4064,-3.4009,-3.4798,-3.5303,-3.5339,-3.6215,-3.6733,-3.6733,-3.6849,-3.6625,0.0,0.0,0.0,0.0,0.0,0.0,0.0,0.0,0.0,0.0,0.0,0.0,0.0,0.0,0.0,0.0,0.0,0.0,0.0,0.0,0.0,0.0,0.0,0.0,0.0,0.0,0.0,0.0,0.0,0.0,0.0,0.0,-2.9861,-2.9954,0.0,0.0,0.0,0.0,0.0,0.0,0.0,0.0,0.0,0.0,0.0,0.0,0.0,-3.2083,-3.2225,-3.2346,-3.2428,-3.2441,-3.2697,-3.2821,-3.2821,-3.2938,-3.3014,-3.3031,-3.2762,0.0,-3.1699,-3.1023,0.0,0.0,0.0,0.0,0.0,0.0,0.0,0.0,0.0,0.0,0.0,0.0,0.0,0.0,0.0,0.0,0.0,0.0,0.0,0.0,0.0,0.0,-3.2844,-3.2999,-3.3602,-3.4086,0.0,-3.2908,-3.2001,-3.1802,-3.1722,0.0,0.0,0.0,0.0,0.0,0.0,0.0,-3.389,-3.4858,-3.5491,-3.5212,-3.5955,-3.654,-3.6728,-3.6869,-3.6948,-3.6948,-3.6971,-3.6915,-3.6733,-3.671,0.0,0.0,0.0,0.0,0.0,0.0,0.0,0.0,0.0,0.0,0.0,0.0,0.0,0.0,0.0,0.0,0.0,0.0,0.0,0.0,0.0,0.0,0.0,0.0,0.0,0.0,0.0,0.0,0.0,-2.9969,-3.0061,-3.0151,-3.0177,-3.0414,0.0,0.0,0.0,0.0,0.0,0.0,0.0,0.0,0.0,-3.2283,-3.2572,-3.279,-3.2954,-3.3026,-3.3064,-3.3087,-3.3658,-3.393,-3.3949,-3.4408,-3.4644,-3.4724,-3.4724,-3.4525,-3.4118,-3.2543,-3.1799,-3.1591,0.0,0.0,0.0,0.0,-3.0482,-3.0628,-3.0752,-3.0903,0.0,-3.1186,0.0,0.0,0.0,0.0,0.0,0.0,0.0,0.0,0.0,0.0,-3.3658,-3.4225,-3.4642,-3.4889,-3.4889,-3.4395,-3.3752,0.0,-3.2902,-3.2627,-3.1698,0.0,0.0,0.0,0.0,-3.5377,-3.5926,-3.6104,-3.6213,-3.6288,-3.7093,-3.7622,-3.7723,-3.8275,-3.8647,-3.8647,-3.8774,-3.8627,-3.8114,-3.791,-3.7596,0.0,0.0,0.0,0.0,0.0,0.0,0.0,0.0,0.0,0.0,0.0,0.0,0.0,0.0,0.0,0.0,0.0,0.0,0.0,0.0,0.0,0.0,0.0,0.0,0.0,0.0,0.0,0.0,-3.0316,-3.0273,-3.0378,-3.0389,-3.0648,0.0,0.0,0.0,0.0,0.0,0.0,-3.2435,-3.2987,-3.3307,-3.3312,-3.3518,-3.3712,-3.3887,-3.39,-3.3902,-3.3926,-3.4561,-3.4873,-3.4893,-3.5489,-3.5827,-3.5929,-3.5929,-3.5929,-3.5783,-3.3835,-3.3103,-3.3151,-3.2335,-3.2102,-3.2225,-3.2011,-3.2068,-3.2245,-3.2458,-3.267,-3.282,-3.2732,-3.2816,-3.2857,-3.2425,0.0,0.0,0.0,0.0,-3.2726,-3.3545,-3.3921,-3.4276,-3.5024,-3.5226,-3.5242,-3.5209,-3.5174,-3.4904,0.0,-3.4046,-3.3783,-3.2511,0.0,0.0,0.0,0.0,-3.6279,-3.7536,-3.7276,-3.7084,-3.7385,-3.8215,-3.8742,-3.881,-3.9532,-3.9996,-3.9996,-4.0176,-4.0024,-3.9355,-3.9088,-3.8724,-3.8233,0.0,0.0,0.0,0.0,0.0,0.0,0.0,0.0,0.0,0.0,0.0,0.0,0.0,0.0,0.0,0.0,0.0,0.0,0.0,0.0,0.0,0.0,0.0,0.0,0.0,0.0,0.0,0.0,0.0,-3.0588,-3.0627,0.0,0.0,0.0,0.0,-3.3077,-3.318,-3.3549,-3.4321,-3.4394,-3.4425,-3.4423,-3.5221,-3.569,-3.5763,-3.5753,-3.5791,-3.5854,-3.589,-3.5929,-3.5929,-3.5968,-3.5988,-3.5991,-3.5991,-3.5991,-3.5929,-3.4915,-3.4353,-3.4052,-3.318,-3.277,-3.2671,-3.278,-3.2831,-3.2871,-3.3087,-3.3157,-3.3313,-3.412,-3.4709,-3.5116,-3.5033,-3.4808,0.0,0.0,-3.4923,-3.4895,-3.5205,-3.5197,-3.5136,-3.519,-3.5289,-3.5369,-3.5226,-3.51,-3.4958,0.0,-3.4962,-3.483,-3.3855,0.0,-3.4069,-3.4975,-3.6513,-3.7599,-3.7676,-3.8167,-3.8525,-3.8624,-3.9342,-3.992,-4.0177,-4.0253,-4.0291,-4.0291,-4.0291,-4.0291,-4.0253,-4.0215,-4.0158,-3.9983,-3.926,0.0,0.0,0.0,0.0,0.0,0.0,0.0,0.0,0.0,0.0,0.0,0.0,0.0,0.0,0.0,0.0,0.0,0.0,0.0,0.0,0.0,0.0,0.0,0.0,0.0,0.0,0.0,0.0,-3.0665,-3.1188,0.0,-3.2292,-3.3156,-3.3781,-3.408,-3.4657,-3.489,-3.464,-3.5152,-3.5467,-3.5474,-3.5773,-3.5951,-3.5968,-3.5952,-3.5985,-3.5991,-3.5991,-3.5991,-3.5994,-3.6005,-3.601,-3.5991,-3.5995,-3.6289,-3.6758,-3.6405,-3.5918,-3.5318,-3.4971,-3.48,-3.4758,-3.4725,-3.4689,-3.4717,-3.4781,-3.4808,-3.4866,-3.5161,-3.5408,-3.5532,-3.5473,-3.5393,-3.5322,-3.5393,-3.5353,-3.5339,-3.5451,-3.5438,-3.5391,-3.5391,-3.5438,-3.5451,-3.5391,-3.5359,-3.5273,-3.5096,-3.489,-3.4736,-3.4718,-3.4698,-3.4811,-3.5153,-3.7566,-3.9375,-3.9357,-3.9145,-3.9181,-3.9753,-4.013,-4.0336,-4.0358,-4.0425,-4.046,-4.0377,-4.046,-4.0489,-4.0489,-4.0489,-4.0473,-4.0422,-4.0082,-3.9876,0.0,0.0,0.0,0.0,0.0,0.0,0.0,0.0,0.0,0.0,0.0,0.0,0.0,0.0,0.0,0.0,0.0,0.0,0.0,0.0,0.0,0.0,0.0,0.0,0.0,0.0,-3.0827,-3.1103,-3.1675,-3.236,-3.3219,-3.4098,-3.4584,-3.4564,-3.5408,-3.5673,-3.5103,-3.5622,-3.5937,-3.5937,-3.5953,-3.5974,-3.5976,-3.5976,-3.5976,-3.5974,-3.5974,-3.5974,-3.5974,-3.5996,-3.5996,-3.5996,-3.5994,-3.6303,-3.6791,-3.6791,-3.6484,-3.6048,-3.6562,-3.6771,-3.6729,-3.6348,-3.6216,-3.6177,-3.5904,-3.5802,-3.5802,-3.5761,-3.5774,-3.5768,-3.5702,-3.569,-3.5685,-3.5611,-3.5581,-3.5566,-3.5574,-3.5519,-3.5495,-3.5495,-3.5732,-3.5968,-3.5932,-3.6188,-3.6315,-3.5958,-3.5273,-3.4833,-3.5143,-3.5312,-3.5752,-3.6771,-3.8901,-4.0389,-4.0398,-3.9964,-3.9888,-4.0412,-4.0545,-4.0559,-4.0485,-4.0515,-4.0515,-4.0469,-4.0515,-4.0545,-4.0588,-4.0574,-4.0574,-4.0574,-4.0515,-4.0469,-4.0434,0.0,0.0,0.0,0.0,0.0,0.0,0.0,0.0,0.0,0.0,0.0,0.0,0.0,0.0,0.0,0.0,0.0,0.0,0.0,0.0,0.0,0.0,0.0,-3.0691,-3.0784,-3.1132,-3.1914,-3.2091,-3.2496,-3.3309,-3.4133,-3.4612,-3.4573,-3.5338,-3.58,-3.5795,-3.5795,-3.58,-3.5802,-3.5864,-3.5912,-3.5947,-3.5935,-3.5947,-3.5991,-3.5991,-3.5971,-3.5974,-3.6044,-3.6088,-3.6088,-3.6088,-3.6088,-3.6127,-3.6127,-3.6127,-3.6302,-3.7864,-3.8469,-3.8352,-3.7532,-3.7239,-3.7122,-3.6342,-3.6088,-3.607,-3.5996,-3.5976,-3.5976,-3.5973,-3.5982,-3.5978,-3.5899,-3.5846,-3.5784,-3.5796,-3.5684,-3.5596,-3.5596,-3.6284,-3.6927,-3.6876,-3.756,-3.8039,-3.7474,-3.6247,-3.5328,-3.5374,-3.5701,-3.6947,-3.9873,-4.0482,0.0,-4.0611,-4.0607,-4.0621,-4.0621,-4.0602,-4.0602,-4.0621,-4.0485,-4.0469,-4.0588,-4.0485,-4.0485,-4.0602,-4.054,-4.0506,-4.0506,-4.0635,-4.0635,-4.0506,0.0,0.0,0.0,0.0,0.0,0.0,0.0,0.0,0.0,0.0,0.0,0.0,0.0,0.0,0.0,0.0,0.0,0.0,0.0,0.0,0.0,0.0,-3.0352,-3.0651,-3.1263,-3.1754,-3.1971,-3.3101,-3.4183,-3.5027,-3.5339,-3.5718,-3.6348,-3.6009,-3.5795,-3.5805,-3.5805,-3.5795,-3.5794,-3.5829,-3.6134,-3.6754,-3.6767,-3.7085,-3.7708,-3.7708,-3.7703,-3.7705,-3.773,-3.7773,-3.7806,-3.7804,-3.8161,-3.8766,-3.8766,-3.9136,-3.957,-3.8127,-3.7551,-3.759,-3.8,-3.8137,-3.8118,-3.7883,-3.7805,-3.7805,-3.7788,-3.7788,-3.779,-3.7793,-3.7793,-3.7771,-3.7706,-3.7711,-3.7734,-3.773,-3.7693,-3.7678,-3.7678,-3.7878,-3.8059,-3.8049,-3.8249,-3.8488,-3.8711,-3.8082,-3.7923,-3.9129,-3.9412,-3.9779,-4.0604,-4.0662,0.0,-4.081,-4.0777,-4.0764,-4.0764,-4.0784,-4.0796,-4.0745,-4.0761,-4.0761,-4.0745,-4.0761,-4.0776,-4.0818,-4.0798,-4.078,-4.0781,-4.0837,-4.0835,0.0,0.0,0.0,0.0,0.0,0.0,0.0,0.0,0.0,0.0,0.0,0.0,0.0,0.0,0.0,0.0,0.0,0.0,0.0,0.0,0.0,0.0,-3.003,-3.0624,-3.0948,-3.1488,-3.2094,-3.28,-3.3788,-3.4768,-3.563,-3.5747,-3.5966,-3.648,-3.6043,-3.5762,-3.5762,-3.6071,-3.6265,-3.6265,-3.6635,-3.7093,-3.7589,-3.7605,-3.7866,-3.8355,-3.8361,-3.8357,-3.8355,-3.8427,-3.8458,-3.8497,-3.8492,-3.8792,-3.926,-3.926,-3.9552,0.0,0.0,0.0,0.0,0.0,-3.8814,-3.8502,-3.8502,-3.8502,-3.8502,-3.8502,-3.8502,-3.8505,-3.8492,-3.85,-3.8489,-3.8455,-3.8476,-3.8494,-3.8508,-3.8504,-3.85,-3.8498,-3.879,-3.9041,-3.9041,-3.9315,-3.9647,-3.9939,-3.9725,0.0,-4.0733,-4.0897,-4.0895,-4.0901,-4.0788,-4.0764,-4.0881,-4.0878,-4.0837,-4.0837,-4.0897,-4.0932,-4.0888,-4.0894,0.0,0.0,0.0,-4.0906,-4.0948,-4.0948,0.0,0.0,0.0,-4.09,-4.0901,0.0,0.0,0.0,-4.0384,-4.041,0.0,0.0,0.0,0.0,0.0,0.0,0.0,0.0,0.0,0.0,0.0,0.0,0.0,0.0,0.0,0.0,-3.0377,-3.1189,-3.1546,-3.1704,-3.2357,-3.3916,-3.4288,-3.4768,-3.5622,-3.5669,-3.5728,-3.5921,-3.5844,-3.5825,-3.5921,0.0,0.0,0.0,0.0,-3.828,-3.8388,-3.8396,-3.8443,-3.8537,-3.8528,-3.8549,-3.8558,-3.87,-3.878,-3.8786,-3.8786,-3.8786,-3.8792,-3.8792,-3.8786,-3.8916,-4.0383,-4.1013,-4.1013,-4.0234,-3.9454,-3.8792,-3.8792,0.0,0.0,-3.8786,-3.876,-3.8747,-3.878,-3.877,-3.876,-3.8779,-3.8776,-3.8787,-3.8788,-3.8786,-3.8784,-3.878,-3.9383,-3.9949,-3.9949,-4.0513,-4.1001,-4.1001,-4.1001,-4.0982,-4.0938,-4.0905,-4.0909,-4.0897,-4.0898,-4.0897,-4.0906,-4.0917,-4.0904,-4.0904,0.0,0.0,-4.1006,-4.0959,-4.0944,-4.0991,-4.0944,-4.094,-4.0996,-4.0996,-4.0976,-4.0914,-4.0914,-4.0918,-4.0922,-4.0922,-4.0925,-4.0922,-4.0915,-4.0935,0.0,0.0,0.0,0.0,0.0,0.0,0.0,0.0,0.0,0.0,0.0,0.0,0.0,0.0,0.0,-3.0009,-3.0493,-3.1277,-3.2647,-3.2918,-3.324,-3.3944,-3.4659,-3.5445,-3.6319,-3.5777,-3.5931,-3.7294,-3.6738,-3.6646,-3.7356,-3.7548,-3.7625,-3.7625,-3.7794,-3.8216,-3.8946,-3.8962,-3.9269,-3.9922,0.0,0.0,-4.0172,-4.0283,-4.0412,-4.0517,-4.0517,-4.0558,-4.0604,-4.0604,-4.0532,-4.0418,-4.0149,-4.0487,-4.1091,-4.0916,-4.074,-4.0604,-4.0604,-4.0524,-4.0438,-4.0565,-4.0457,-4.0303,-4.0402,-4.0438,0.0,-4.0435,-4.05,-4.0593,-4.0602,-4.0594,-4.0606,-4.0606,-4.0728,-4.085,-4.085,-4.0967,-4.1084,-4.1084,-4.1084,-4.1089,-4.1054,-4.0962,-4.0898,-4.0901,-4.0905,-4.0925,-4.0979,-4.0983,-4.0988,-4.0988,-4.0996,-4.1,-4.1,-4.0984,-4.0987,-4.0991,-4.0987,-4.0984,-4.1007,-4.1007,-4.1019,-4.1052,-4.1052,-4.1055,-4.1068,-4.1068,-4.1069,-4.1052,-4.094,-4.094,0.0,0.0,0.0,0.0,0.0,0.0,0.0,0.0,0.0,0.0,0.0,-2.8353,0.0,0.0,-2.9539,-2.9922,-3.0949,-3.202,-3.2925,-3.3571,-3.4069,-3.4355,-3.4802,-3.5308,-3.5796,-3.5883,-3.6239,-3.7083,-3.7159,-3.7335,-3.7775,-3.8197,-3.8463,-3.8463,-3.8846,-3.9248,-3.9706,-3.9706,-3.9898,-4.03,-4.0396,-4.0457,-4.0501,-4.063,-4.0734,-4.0809,-4.0839,-4.0869,-4.0907,-4.0907,-4.0859,-4.0759,-4.0383,-4.0519,-4.0907,-4.0907,-4.0907,-4.0907,-4.0907,-4.0859,-4.0818,-4.0869,-4.0818,-4.0706,-4.0765,-4.0807,-4.0807,-4.0807,-4.0859,-4.0896,-4.0894,-4.0898,-4.0921,-4.0935,-4.0948,-4.0967,-4.1033,-4.1057,-4.1057,-4.1096,-4.1096,-4.1096,-4.1096,-4.1033,-4.0995,-4.0999,-4.0991,-4.101,-4.1049,-4.1049,-4.103,-4.0991,-4.1023,-4.1048,-4.1048,-4.1054,-4.1055,-4.1055,-4.1055,-4.1055,-4.1055,-4.1055,-4.1074,-4.1107,-4.1107,-4.1103,-4.1108,-4.1108,-4.1108,-4.1091,-4.1033,-4.1033,0.0,0.0,0.0,0.0,0.0,0.0,0.0,0.0,-2.7369,-2.8071,-2.8237,-2.8317,-2.846,-2.9188,-2.9863,-3.0152,-3.1553,-3.2728,-3.2994,-3.3836,-3.4431,-3.4583,-3.4754,-3.5001,-3.5264,-3.5978,-3.658,-3.6905,-3.7575,-3.8053,-3.8206,-3.8875,-3.9257,-3.9257,-3.9887,-4.023,-4.023,-4.023,-4.023,-4.023,-4.0298,-4.0329,-4.0364,-4.0472,-4.0549,-4.0577,-4.0649,-4.0681,-4.0681,-4.0694,-4.0681,-4.0655,-4.0655,-4.0662,-4.0615,-4.0681,-4.0694,-4.0694,-4.0694,-4.0681,-4.0668,-4.0694,-4.0655,-4.0635,-4.0642,-4.0655,-4.0655,-4.0655,-4.0681,-4.0706,-4.0696,-4.0699,-4.071,-4.0762,-4.0801,-4.0829,-4.094,-4.0993,-4.1052,-4.1091,-4.1052,-4.0972,-4.0984,-4.0988,-4.1008,-4.1093,-4.1107,-4.1103,-4.1103,-4.1103,-4.1084,-4.1025,-4.1074,-4.1093,-4.1093,-4.1101,-4.1108,-4.1108,-4.1108,-4.1108,-4.1108,-4.1108,-4.1108,-4.1108,-4.1081,-4.1078,-4.1078,-4.1051,-4.1055,-4.1088,-4.1055,-4.1107,-2.4799,-2.5262,-2.56,-2.5663,-2.5701,-2.5941,0.0,0.0,-2.7255,-2.8025,-2.8327,-2.8683,-2.9404,-2.9779,-3.0418,-3.1801,-3.2192,-3.263,-3.3405,-3.3616,-3.3734,-3.3821,-3.4445,-3.5154,-3.5831,-3.6102,-3.6862,-3.8343,-3.8552,-3.8912,-3.9631,-3.9764,-3.9802,-3.9802,-3.9897,-3.9935,-3.9935,-3.9935,-3.9935,-3.9935,-4.0061,-4.012,-4.0139,-4.0283,-4.0364,-4.0423,-4.0563,-4.0604,-4.0623,-4.0681,-4.0629,-4.0519,-4.0519,-4.0444,-4.0381,-4.0602,-4.0694,-4.0694,-4.0694,-4.0615,-4.0549,-4.0655,-4.0534,-4.0363,-4.0492,-4.0519,-4.0519,-4.0519,-4.0602,-4.0694,-4.0706,-4.0711,-4.0696,-4.071,-4.0761,-4.0811,-4.082,-4.0965,-4.1081,-4.1101,-4.0809,-4.0567,-4.0577,-4.0567,-4.0688,-4.105,-4.1101,-4.1099,-4.1099,-4.1099,-4.1099,-4.1099,-4.1097,-4.1094,-4.1094,-4.1091,-4.1108,-4.1108,-4.1108,-4.1108,-4.1108,-4.1108,-4.1108,-4.1108,-4.1033,-4.1006,-4.1,-4.0898,-4.0896,-4.101,-4.0896,-4.0961,-2.5107,-2.5317,-2.5394,0.0,-2.5864,-2.6085,-2.6922,-2.7115,-2.7321,-2.8053,-2.8639,-2.9133,-2.9456,-3.0697,-3.1743,0.0,-3.2816,-3.3484,-3.3386,-3.3522,-3.3808,-3.4237,-3.4729,-3.5147,-3.5501,-3.6489,-3.7488,-3.8328,-3.8878,-3.9377,-3.987,-3.9889,-3.9889,-3.9889,-3.9889,-3.9889,-3.9889,-3.9889,-3.9889,-3.9889,-3.9956,-3.9979,-3.9998,-4.0614,-4.117,-4.1667,-4.1241,-4.1065,-4.1027,-4.0636,-4.0427,-4.0379,-4.0379,-4.0345,-4.031,-4.043,-4.046,-4.046,-4.046,-4.043,-4.0379,-4.0444,-4.0398,-4.031,-4.0363,-4.0379,-4.0379,-4.0379,-4.043,-4.0476,-4.0473,-4.0469,-4.0481,-4.0511,-4.0574,-4.0642,-4.0692,-4.0784,-4.0873,-4.0912,-4.0873,-4.0773,-4.0533,-4.0486,-4.0555,-4.0742,-4.0949,-4.1098,-4.1098,-4.1,-4.0935,-4.0935,-4.0935,-4.0935,-4.0935,-4.0935,-4.0935,-4.0935,-4.0935,-4.0935,-4.0935,-4.0935,-4.0935,-4.0935,-4.0906,-4.0882,-4.0882,-4.0829,-4.0837,-4.0879,-4.0824,-4.0867,-2.5068,-2.5185,-2.5224,-2.577,-2.5954,-2.6173,-2.6841,-2.7053,-2.7244,-2.7806,-2.8558,-2.9189,-2.9509,-3.1315,-3.2592,-3.2117,-3.3329,-3.4033,-3.3224,-3.3332,-3.372,-3.4437,-3.4918,-3.531,-3.5559,-3.6897,-3.7939,-3.8378,-3.9027,-3.9458,-3.9628,-3.9651,-3.9651,-3.9651,-3.9651,-3.9651,-3.9651,-3.9651,-3.9693,-3.9781,-3.9693,-3.9739,-3.9949,-4.0846,-4.1743,-4.2506,-4.1943,-4.17,-4.1642,-4.0882,-4.0597,-4.0597,-4.0368,-4.0272,-4.031,-4.031,-4.031,-4.031,-4.031,-4.031,-4.031,-4.031,-4.031,-4.031,-4.031,-4.031,-4.031,-4.031,-4.031,-4.0291,-4.029,-4.0308,-4.0308,-4.0362,-4.0415,-4.0463,-4.053,-4.0607,-4.0673,-4.0706,-4.0822,-4.0833,-4.0558,-4.0496,-4.0507,-4.0507,-4.0738,-4.0925,-4.0937,-4.0849,-4.0791,-4.081,-4.081,-4.081,-4.081,-4.081,-4.081,-4.081,-4.081,-4.081,-4.081,-4.081,-4.081,-4.081,-4.0781,-4.0771,-4.0771,-4.074,-4.0746,-4.0773,-4.0732,-4.0862,-2.4282,-2.4744,-2.5224,-2.577,-2.5954,-2.6101,-2.6437,-2.6624,-2.6825,-2.7149,-2.7799,-2.8672,-2.9776,-3.1247,-3.2454,-3.2816,-3.3544,-3.3812,-3.3023,-3.2916,-3.3219,-3.4041,-3.4858,-3.5695,0.0,-3.7247,-3.8072,-3.8915,-3.899,-3.9008,-3.9036,-3.9036,-3.9036,-3.9036,-3.9036,-3.9036,-3.9036,-3.9036,-3.9189,-3.9526,-3.9189,-3.932,-3.9927,-4.0802,-4.1635,-4.2412,-4.2443,-4.2465,-4.2389,-4.1599,-4.1298,-4.1283,-4.0501,-4.0253,-4.031,-4.031,-4.031,-4.031,-4.031,-4.031,-4.031,-4.031,-4.031,-4.031,-4.031,-4.031,-4.031,-4.031,-4.031,-4.031,-4.031,-4.031,-4.0291,-4.0289,-4.0288,-4.0325,-4.0396,-4.0454,-4.0509,-4.0502,-4.0518,-4.0499,-4.0508,-4.0504,-4.0504,-4.0504,-4.0504,-4.0524,-4.0529,-4.0635,-4.0733,-4.0791,-4.081,-4.081,-4.081,-4.081,-4.081,-4.081,-4.081,-4.081,-4.081,-4.081,-4.081,-4.081,-4.0746,-4.0706,-4.0706,-4.0559,-4.0593,-4.0694,-4.0559,-4.0998,-2.4744,-2.5269,-2.5754,-2.5917,-2.6043,-2.6206,-2.6556,-2.6691,-2.6927,-2.7753,-2.8904,-3.0024,-3.0889,-3.2963,-3.4249,-3.3371,-3.4125,-3.4383,-3.3062,-3.2916,-3.3366,-3.4686,-3.5113,0.0,0.0,0.0,0.0,-3.8621,-3.87,-3.8818,-3.898,-3.9008,-3.9008,-3.9008,-3.9008,-3.924,-3.9797,-3.9797,-4.0132,-4.0775,-4.0643,-4.0998,-4.1773,-4.2053,-4.2642,-4.34,-4.3137,-4.3039,-4.3007,-4.2449,-4.2235,-4.2236,-4.2009,-4.159,-4.1094,-4.1094,-4.0769,-4.031,-4.031,-4.031,-4.031,-4.031,-4.031,-4.031,-4.031,-4.031,-4.031,-4.031,-4.031,-4.031,-4.031,-4.031,-4.0253,-4.0078,-4.0021,-4.0022,-4.0061,-4.0253,-4.0425,-4.0435,-4.0471,-4.049,-4.0488,-4.0504,-4.0504,-4.0499,-4.0492,-4.0496,-4.05,-4.0532,-4.0571,-4.059,-4.059,-4.059,-4.059,-4.059,-4.059,-4.059,-4.059,-4.059,-4.059,-4.059,-4.059,-4.059,-4.0588,-4.0579,-4.0579,-4.0519,-4.0827,-4.1431,-4.1386,-4.1848,-2.4823,-2.5346,-2.5775,-2.5811,-2.6026,-2.6187,-2.6262,-2.6418,-2.6774,-2.7742,-2.8898,-3.0074,-3.121,-3.3296,-3.4536,-3.338,-3.4091,-3.4217,-3.27,-3.247,-3.3104,-3.4818,-3.503,-3.5776,0.0,0.0,0.0,-3.8368,-3.8433,-3.8523,-3.87,-3.873,-3.873,-3.873,-3.8976,-3.9399,-3.9915,-4.016,-4.0565,-4.108,-4.1299,-4.1785,-4.2538,-4.265,-4.3199,-4.4058,-4.3802,-4.3759,-4.3806,-4.3147,-4.2917,-4.2902,-4.2553,-4.2079,-4.1648,-4.1648,-4.1136,-4.0435,-4.033,-4.0234,-4.0157,-4.0157,-4.0098,-3.9996,-3.9996,-3.9996,-3.9996,-3.9996,-3.9996,-3.9996,-3.9996,-3.9996,-3.9975,-3.9804,-3.9766,-3.9769,-3.9769,-3.9965,-4.0203,-4.0347,-4.0386,-4.0425,-4.0425,-4.0444,-4.0444,-4.0501,-4.0498,-4.0492,-4.0508,-4.0489,-4.0489,-4.0489,-4.0489,-4.0489,-4.0489,-4.0489,-4.0489,-4.0489,-4.0489,-4.0489,-4.0489,-4.0489,-4.0489,-4.0489,-4.0796,-4.095,-4.0969,-4.1277,-4.172,-4.2258,-4.2258,-4.272,-2.4511,-2.5005,-2.5406,-2.5465,-2.5811,-2.6043,-2.5631,-2.5864,-2.6419,-2.7164,-2.7909,-2.8971,0.0,-3.235,-3.3277,-3.2853,-3.3468,-3.349,-3.199,-3.1748,-3.2485,0.0,0.0,0.0,0.0,0.0,0.0,-3.8158,0.0,-3.8192,-3.8192,-3.8192,-3.821,-3.8246,-3.8989,-3.9441,-3.9514,-4.0256,-4.0637,-4.0637,-4.1209,-4.1754,-4.2249,-4.2562,-4.3297,-4.4327,-4.4327,-4.453,-4.4745,-4.3676,-4.331,-4.3314,-4.2239,-4.1894,-4.1965,-4.1965,-4.144,-4.0735,-4.0456,-4.0174,-3.9892,-3.9892,-3.9717,-3.9502,-3.9502,-3.9502,-3.9502,-3.9502,-3.9502,-3.9502,-3.9502,-3.9502,-3.9502,-3.9483,-3.9477,-3.9477,-3.9477,-3.9577,-3.9771,-4.0188,-4.0226,-4.0212,-4.0226,-4.0216,-4.028,-4.0413,-4.0442,-4.046,-4.0482,-4.0492,-4.0492,-4.0473,-4.0473,-4.0473,-4.0489,-4.0489,-4.0489,-4.0489,-4.0489,-4.0508,-4.0546,-4.0566,-4.0585,-4.0623,-4.145,-4.1873,-4.1873,-4.2701,-4.3124,-4.3162,-4.3162,-4.3585,-2.423,-2.4623,-2.5098,-2.5427,-2.5594,-2.5721,-2.599,-2.6115,-2.6442,-2.7336,-2.8127,-2.8988,0.0,-3.2192,-3.3412,-3.2754,-3.3393,0.0,-3.2641,-3.2296,0.0,-3.4496,0.0,-3.5758,-3.7524,-3.7411,0.0,0.0,-3.802,-3.8036,-3.8036,-3.814,-3.8464,-3.9061,-3.9278,-3.9948,-4.1107,-4.1886,-4.2285,-4.2285,-4.2432,-4.2577,-4.2705,-4.2814,-4.3031,-4.3301,-4.3557,-4.3703,-4.3781,-4.3793,-4.3807,-4.3829,-4.3575,-4.3156,-4.2716,-4.2716,-4.2238,-4.1578,-4.15,-4.0664,-3.958,-3.958,-3.9575,-3.9502,-3.9502,-3.9502,-3.9502,-3.9502,-3.9502,-3.9502,-3.9502,-3.9502,-3.9452,-3.9245,-3.9192,-3.9192,-3.9192,-3.908,-3.9096,-3.9614,-3.9376,-3.9107,-3.9113,-3.9105,-3.9209,-3.9416,-3.9452,-3.97,-4.0422,-4.0499,-4.0365,-4.0022,-4.0118,-4.0215,-4.0269,-4.0286,-4.0339,-4.0489,-4.0489,-4.0777,-4.145,-4.147,-4.1777,-4.2412,-4.2662,-4.2777,-4.2777,-4.2989,-4.3412,-4.3989,-4.3989,-4.4451,-2.4162,-2.4517,-2.4902,-2.4981,-2.5098,-2.5253,-2.5339,-2.5734,-2.629,-2.7169,-2.7929,0.0,-2.9974,-3.1431,-3.2442,0.0,0.0,0.0,-3.2364,-3.2105,-3.2509,0.0,-3.43,0.0,-3.6858,-3.6821,-3.6961,0.0,-3.7628,-3.7739,-3.7984,-3.807,-3.8502,-3.9369,-3.9713,-4.0637,-4.2212,-4.2665,-4.2882,-4.2882,-4.2882,-4.2882,-4.2882,-4.2882,-4.2995,-4.3142,0.0,-4.349,-4.3623,-4.3703,-4.3767,-4.3818,-4.3689,-4.3444,-4.32,-4.32,-4.2711,-4.2084,-4.2084,-4.1248,-4.0161,-3.9925,-3.9525,-3.9156,-3.9156,-3.9156,-3.9156,-3.9156,-3.9156,-3.9156,-3.9156,-3.9156,-3.9129,-3.895,-3.8921,-3.8921,-3.8921,-3.8828,-3.8783,-3.9091,-3.8906,-3.8692,-3.8692,-3.8718,-3.8745,-3.8902,-3.8913,-3.9146,-3.9808,-3.9891,-3.9778,-3.951,-3.9589,-3.9726,-3.9927,-4.0346,-4.0634,-4.0749,-4.1093,-4.1514,-4.2011,-4.203,-4.2259,-4.2737,-4.3216,-4.3463,-4.3463,-4.3955,-4.4432,-4.4874,-4.4874,-4.5124,-2.4177,-2.4477,-2.4664,-2.4385,-2.4574,-2.4759,-2.4451,-2.517,-2.6093,-2.6761,0.0,-2.829,-2.9596,-3.04,-3.1075,-3.1787,0.0,-3.2497,-3.1984,-3.1779,-3.21,-3.3271,-3.3439,-3.415,-3.5897,-3.6079,-3.6457,-3.7231,-3.719,-3.7388,-3.7953,-3.8079,-3.8564,-3.9482,-4.0221,-4.1284,-4.2693,-4.2711,-4.275,-4.2806,-4.2806,-4.2844,-4.2882,-4.2882,-4.305,-4.3336,-4.3336,-4.349,-4.3754,-4.3456,-4.3389,-4.3495,-4.3196,-4.3215,-4.3359,-4.3359,-4.2972,-4.247,-4.247,-4.1937,-4.1162,-4.0607,-3.9693,-3.8854,-3.8854,-3.8781,-3.8707,-3.8707,-3.8707,-3.8707,-3.8707,-3.8707,-3.8707,-3.8707,-3.8707,-3.8707,-3.8707,-3.8707,-3.8707,-3.8707,-3.8707,-3.8707,-3.8707,-3.8713,-3.8718,-3.8718,-3.8696,-3.8802,-3.9071,-3.9089,-3.9097,-3.9097,-3.9097,-3.9271,-3.9712,-4.0545,-4.1116,-4.1253,-4.1916,-4.2347,-4.2442,-4.2442,-4.2498,-4.2635,-4.3542,-4.4012,-4.4012,-4.4998,-4.5495,-4.5495,-4.5495,-4.5495,-2.3739,-2.3767,-2.3894,-2.4219,-2.4343,-2.4451,-2.4719,-2.5359,0.0,0.0,0.0,-2.7472,-2.7974,-2.9308,0.0,-3.1213,0.0,0.0,0.0,0.0,-3.2403,0.0,0.0,0.0,0.0,0.0,0.0,0.0,0.0,-3.7198,-3.7726,-3.8503,-3.9271,-4.0105,-4.0905,-4.1478,-4.1743,-4.1743,-4.1931,-4.2338,-4.2338,-4.2537,-4.2882,-4.2882,-4.292,-4.2995,-4.2995,0.0,-4.3087,-4.3014,-4.2995,-4.3032,-4.2975,-4.3031,-4.3178,-4.3214,-4.3213,-4.321,-4.3261,-4.2763,-4.1956,-4.1213,-4.0373,-3.968,-3.968,-3.9239,-3.8707,-3.8707,-3.8707,-3.8707,-3.8707,-3.8707,-3.8707,-3.8707,-3.8707,-3.8707,-3.8707,-3.8707,-3.8707,-3.8707,-3.8707,-3.8707,-3.8707,-3.8689,-3.8719,-3.8719,-3.8688,-3.8785,-3.9054,-3.9092,-3.9088,-3.9088,-3.9088,-3.9511,-4.0509,-4.0704,-4.1154,-4.2044,-4.2238,-4.2593,-4.3256,-4.3275,-4.3639,-4.434,-4.454,-4.464,-4.464,-4.4839,-4.4938,-4.4938,-4.4938,-4.4938,-2.3595,-2.3595,-2.3638,-2.3867,-2.3952,-2.3994,-2.4173,0.0,0.0,0.0,-2.6697,-2.7467,-2.7565,0.0,0.0,0.0,0.0,0.0,0.0,0.0,0.0,0.0,0.0,0.0,0.0,0.0,0.0,0.0,0.0,-3.742,-3.8148,-3.9103,-3.9783,-4.0193,-4.1034,-4.1481,-4.1481,-4.1481,-4.1613,-4.1846,-4.1846,-4.2056,-4.2555,-4.2555,-4.2673,-4.2882,-4.2882,0.0,-4.2882,-4.2882,-4.2882,-4.2882,-4.2882,-4.2994,-4.3104,-4.3123,-4.3233,-4.3286,-4.3322,-4.3155,-4.2805,-4.242,-4.1501,-4.0451,-4.0029,-3.9625,-3.9239,-3.8817,-3.8707,-3.8707,-3.8707,-3.8707,-3.8707,-3.8707,-3.8707,-3.8707,-3.8707,-3.8707,-3.8707,-3.8707,-3.8707,-3.8707,-3.8707,-3.8707,-3.8707,-3.8707,-3.8695,-3.8737,-3.8895,-3.8902,-3.8942,-3.91,-3.988,-4.0626,-4.1157,-4.1549,-4.1997,-4.2527,-4.294,-4.3352,-4.3727,-4.3746,-4.398,-4.4374,-4.4519,-4.4599,-4.4599,-4.4726,-4.48,-4.48,-4.48,-4.48,-2.3595,-2.3595,-2.3595,-2.3595,-2.3595,-2.3595,-2.3595,-2.4537,0.0,0.0,-2.6542,-2.7445,-2.7595,0.0,0.0,0.0,0.0,0.0,0.0,0.0,0.0,0.0,0.0,0.0,0.0,0.0,0.0,0.0,0.0,0.0,-3.878,-3.9451,-3.9881,-4.0037,-4.0809,-4.1213,-4.1213,-4.1213,-4.1258,-4.1348,-4.1348,-4.1587,-4.2074,-4.2074,-4.2239,-4.2577,-4.2577,0.0,0.0,-4.2577,-4.2577,-4.2577,-4.2577,-4.2673,-4.2786,-4.288,-4.2994,-4.305,-4.316,-4.3196,-4.3251,-4.334,-4.2475,-4.1258,-4.0598,-4.0157,-3.9772,-3.9129,-3.8836,-3.8707,-3.8707,-3.8707,-3.8707,-3.8707,-3.8707,-3.8707,-3.8707,-3.8707,-3.8707,-3.8707,-3.8707,-3.8707,-3.8707,-3.8707,-3.8707,-3.8707,-3.8713,-3.8688,-3.8688,-3.8711,-3.8766,-3.8988,-4.0841,-4.2054,-4.2062,-4.2507,-4.2841,-4.3008,-4.3652,-4.4005,-4.4005,-4.4005,-4.4005,-4.4005,-4.4192,-4.4318,-4.4318,-4.4538,-4.4624,-4.4624,-4.4624,-4.4624,-2.3595,-2.3595,-2.3595,-2.3595,-2.3595,-2.3595,-2.3595,0.0,0.0,-2.548,-2.6183,-2.6856,-2.7505,-2.7978,0.0,0.0,0.0,0.0,0.0,0.0,0.0,0.0,0.0,0.0,0.0,0.0,0.0,0.0,0.0,0.0,-3.9563,-3.916,-3.9243,-3.9919,-4.0137,-4.0204,-4.0204,-4.0204,-4.0434,-4.0832,-4.0832,-4.1094,-4.1569,-4.1569,-4.1569,-4.1613,-4.1613,0.0,0.0,-4.1613,-4.1613,-4.1613,-4.1613,-4.1613,-4.17,-4.2257,-4.2476,-4.2555,-4.3032,-4.2939,-4.2657,-4.3214,-4.286,-4.2176,-4.2103,-4.1056,-3.9863,-3.9808,-3.9258,-3.8707,-3.8707,-3.8707,-3.8707,-3.8707,-3.8707,-3.8707,-3.8707,-3.8707,-3.8707,-3.8707,-3.8707,-3.8707,-3.8707,-3.8707,-3.8707,-3.8707,-3.8707,-3.8689,-3.8689,-3.8689,-3.8695,-3.8729,-4.1662,-4.3602,-4.3582,-4.3045,-4.3008,-4.3749,-4.3936,-4.4005,-4.4005,-4.4005,-4.4005,-4.4005,-4.4017,-4.4048,-4.4048,-4.4048,-4.4079,-4.4079,-4.4079,-4.4079,-2.3421,-2.3377,-2.3246,-2.3508,-2.3595,-2.3595,-2.3595,0.0,0.0,-2.5011,-2.5609,-2.6256,-2.6916,-2.7225,-2.7554,0.0,0.0,0.0,0.0,0.0,0.0,0.0,0.0,0.0,0.0,0.0,0.0,0.0,0.0,0.0,-3.9468,-3.9358,-3.9496,-3.9781,-3.9986,-4.007,-4.007,-4.007,-4.0221,-4.0402,-4.0402,-4.0611,-4.1111,-4.1111,-4.123,-4.1481,-4.1481,0.0,0.0,-4.1481,-4.1481,-4.1481,-4.1481,-4.1481,-4.1525,-4.176,-4.1846,-4.1888,-4.208,-4.2098,-4.2056,-4.2378,-4.2533,-4.2505,-4.2331,-4.1846,-4.124,-4.0763,-4.0396,-4.0157,-4.0157,-4.0157,-4.0157,-4.0157,-3.9401,-3.8684,-3.8684,-3.8684,-3.8697,-3.8706,-3.8687,-3.87,-3.8707,-3.8707,-3.8707,-3.8707,-3.8707,-3.8707,-3.8707,-3.8707,-3.8713,-3.8711,-4.1662,-4.3614,-4.3615,-4.3412,-4.3449,-4.38,-4.3897,-4.3961,-4.3961,-4.3974,-4.4005,-4.4005,-4.4005,-4.4005,-4.4005,-4.4005,-4.4005,-4.4005,-4.4005,-4.4005,-2.295,-2.3009,-2.2979,-2.329,-2.3508,-2.3551,0.0,0.0,-2.4189,-2.4422,-2.5005,-2.572,-2.6524,-2.6683,-2.6893,0.0,0.0,0.0,0.0,0.0,0.0,0.0,0.0,0.0,0.0,0.0,0.0,0.0,0.0,0.0,-3.9023,-3.9415,-3.9677,-3.9677,-3.9969,-4.0087,-4.0037,-4.0087,-4.0087,-4.0037,-4.0087,-4.0254,-4.058,-4.058,-4.0784,-4.1094,-4.1094,0.0,0.0,-4.1094,-4.1094,-4.1094,-4.1094,-4.1094,-4.1094,-4.123,-4.1303,-4.1303,-4.1437,-4.1455,-4.1472,-4.1753,-4.2032,-4.2235,-4.2213,-4.2157,-4.2004,-4.1592,-4.1177,-4.0891,-4.0891,-4.0891,-4.0891,-4.0891,-4.0042,-3.9252,-3.9367,-3.9422,-3.9547,-4.0029,-3.9361,-3.8712,-3.8707,-3.8689,-3.8689,-3.8689,-3.8689,-3.8689,-3.8689,-3.8685,-3.8704,-3.8694,-4.0738,-4.2456,-4.3424,-4.359,-4.3664,-4.3753,-4.3818,-4.3883,-4.3897,-4.3961,-4.3974,-4.4005,-4.4005,-4.4005,-4.4005,-4.4005,-4.4005,-4.4005,-4.4005,-4.4005,-2.2128,-2.2512,-2.2889,-2.2889,-2.3246,-2.3465,0.0,0.0,-2.3115,-2.3858,-2.4476,-2.529,-2.6504,-2.6683,-2.6893,-2.7509,0.0,0.0,0.0,0.0,0.0,0.0,0.0,0.0,0.0,0.0,0.0,0.0,0.0,0.0,-3.8351,-3.9077,-3.9537,-3.9677,-3.9969,-4.0037,-3.9901,-4.0037,-4.0037,-3.9901,-4.0037,-4.0121,-4.0138,-4.0138,-4.0121,-4.0121,0.0,0.0,0.0,-4.0121,-4.0121,-4.0121,-4.0121,-4.0121,-4.0171,-4.0628,-4.0802,-4.0879,-4.1366,-4.1185,-4.0896,-4.1516,-4.141,-4.1213,-4.1793,-4.1809,-4.1724,-4.2166,-4.1373,-4.0402,-4.0402,-4.0402,-4.0402,-4.0402,-4.0384,-4.051,-4.0987,-4.1088,-4.1561,-4.3144,-4.087,-3.8702,-3.8702,-3.8702,-3.8702,-3.8702,-3.8702,-3.8702,-3.8702,-3.8694,-3.8716,-3.8709,-3.8726,-4.0049,-4.3232,-4.349,-4.3526,-4.3582,-4.3719,-4.3837,-4.3915,-4.3897,-4.3929,-4.4005,-4.4005,-4.4005,-4.4005,-4.4005,-4.4005,-4.4005,-4.4005,-4.4005,-2.1955,-2.2002,-2.1969,-2.2282,-2.2452,-2.2543,-2.2374,0.0,-2.2461,-2.2765,-2.3261,-2.3955,-2.4745,-2.5245,-2.5865,-2.6826,-2.6669,0.0,0.0,0.0,0.0,0.0,0.0,0.0,0.0,0.0,0.0,0.0,0.0,0.0,-3.7706,-3.801,-3.8446,-3.8995,-3.9523,-3.9833,-3.9901,-3.9952,-3.9952,-3.9901,-4.0037,-4.007,-4.007,-4.007,-4.007,0.0,0.0,0.0,0.0,-4.007,-4.007,-4.007,-4.007,-4.007,-4.0121,-4.0271,-4.0303,-4.0353,-4.0466,-4.0434,-4.0353,-4.0645,-4.0832,-4.1013,-4.1286,-4.1693,-4.2024,-4.2199,-4.1923,-4.1647,-4.1647,-4.1647,-4.1647,-4.1647,-4.1483,-4.1407,-4.1538,-4.1266,-4.1123,-4.1622,-4.0877,-4.021,-4.0217,-4.0199,-4.0199,-4.0199,-4.0199,-4.0199,-4.0199,-4.0203,-3.9391,-3.7302,-3.7038,-3.8362,-4.1593,-4.2858,-4.3269,-4.2742,-4.3321,-4.3667,-4.3682,-4.3786,-4.3851,-4.3929,-4.3929,-4.3942,-4.4005,-4.4005,-4.4005,-4.4005,-4.4005,-4.4005,0.0,-2.1506,-2.1458,-2.1779,-2.1955,0.0,0.0,0.0,-2.1849,-2.1982,-2.2612,-2.335,-2.396,-2.4584,-2.5272,-2.6229,-2.5865,0.0,0.0,0.0,0.0,0.0,0.0,0.0,0.0,0.0,0.0,0.0,0.0,0.0,-3.6995,-3.7354,-3.7632,-3.7873,-3.8613,-3.9028,-3.9082,-3.9135,-3.9295,-3.947,-3.9644,-3.985,-4.007,-4.007,-4.007,0.0,0.0,0.0,0.0,-4.007,-4.007,-4.007,-4.007,-4.007,-4.007,-4.007,-4.007,-4.007,-4.007,-4.007,-4.0121,-4.0188,-4.0434,-4.0672,-4.0832,-4.1455,-4.2074,-4.1796,-4.1839,-4.1948,-4.1948,-4.1948,-4.1948,-4.1948,-4.18,-4.1669,-4.1498,-4.1182,-4.0893,-4.0908,-4.0891,-4.0916,-4.0888,-4.0912,-4.0912,-4.0912,-4.0912,-4.0912,-4.0912,-4.0901,-4.014,-3.8262,-3.8023,-3.8846,-4.0863,-4.1978,-4.2644,-4.2745,-4.3238,-4.3582,-4.3582,-4.3667,-4.3786,-4.3851,-4.3883,-4.3929,-4.3942,-4.3974,-4.4005,-4.4005,-4.4005,-4.4005,0.0,0.0,0.0,0.0,0.0,0.0,0.0,0.0,0.0,0.0,-2.2364,-2.3323,-2.3906,-2.4502,-2.5104,-2.5687,-2.53,0.0,0.0,0.0,0.0,0.0,0.0,0.0,0.0,0.0,0.0,0.0,0.0,0.0,-3.626,-3.6935,-3.7055,-3.6554,-3.7279,-3.7706,-3.7748,-3.7889,-3.8173,-3.8635,-3.8957,-3.9418,-3.9952,-3.9969,-3.9969,0.0,0.0,0.0,0.0,-4.002,-4.007,-4.007,-4.007,-4.007,-4.007,-4.007,-4.007,-4.007,-4.007,-4.007,-4.007,-4.007,-4.0188,-4.0288,-4.0436,-4.1139,-4.1743,-4.1088,-4.1163,-4.1445,-4.1428,-4.1445,-4.1445,-4.1445,-4.1445,-4.1356,-4.0965,-4.0888,-4.0888,-4.0888,-4.0888,-4.0888,-4.0888,-4.0888,-4.0888,-4.0888,-4.0888,-4.0888,-4.0888,-4.0891,-4.088,-4.088,-4.0911,-4.0888,-4.0895,-4.1082,-4.1814,-4.3263,-4.3408,-4.3479,-4.3582,-4.3582,-4.3667,-4.3771,-4.3851,-4.3897,-4.3897,-4.3974,-4.4005,-4.4005,-4.4005,-4.4005,-2.0712,0.0,-2.0848,-2.0848,-2.0934,0.0,0.0,0.0,0.0,0.0,0.0,0.0,0.0,-2.3632,-2.4505,-2.5104,-2.5097,0.0,0.0,0.0,0.0,0.0,0.0,0.0,0.0,0.0,0.0,0.0,0.0,-3.4955,-3.4934,-3.5558,-3.5958,-3.5913,-3.6006,-3.6554,-3.7648,-3.7706,-3.7748,-3.7863,-3.8133,-3.8358,-3.8509,-3.8652,-3.8739,0.0,0.0,0.0,-3.9418,-3.9418,-3.9696,-4.007,-4.007,-4.007,-4.007,-4.007,-4.007,-4.007,-4.007,-4.007,-4.007,-4.007,-4.0138,-4.0188,-4.0288,-4.0597,-4.0819,-4.0776,-4.084,-4.0901,-4.0995,-4.1041,-4.1041,-4.1041,-4.1041,-4.1012,-4.0918,-4.0888,-4.0888,-4.0888,-4.0888,-4.0888,-4.0888,-4.0888,-4.0888,-4.0888,-4.0888,-4.0888,-4.0888,-4.0901,-4.0913,-4.0913,-4.0903,-4.0896,-4.0911,-4.154,-4.1947,-4.205,-4.2686,-4.3196,-4.3513,-4.3513,-4.3548,-4.3634,-4.38,-4.3897,-4.3897,-4.3974,-4.4005,-4.4005,-4.4005,-4.4005,-2.0599,-2.0699,-2.0699,-2.0699,-2.0699,-2.0699,0.0,0.0,0.0,0.0,0.0,0.0,0.0,0.0,0.0,0.0,-2.482,0.0,0.0,0.0,0.0,0.0,0.0,0.0,0.0,0.0,0.0,0.0,0.0,-3.3844,-3.4442,-3.4831,-3.5239,-3.5589,-3.5554,-3.591,-3.6692,-3.6753,-3.6874,-3.716,-3.744,-3.7716,-3.7987,-3.8206,-3.8278,0.0,0.0,0.0,-3.881,-3.881,-3.8957,-3.9295,-3.9295,-3.9295,-3.9295,-3.9295,-3.9295,-3.9295,-3.9295,-3.947,-3.9747,-4.002,-4.007,-4.0121,-4.0188,-4.0238,-4.0387,-4.0534,-4.06,-4.0631,-4.068,-4.0776,-4.0793,-4.0793,-4.084,-4.0888,-4.0888,-4.0888,-4.0888,-4.0888,-4.0888,-4.0888,-4.0888,-4.0888,-4.0888,-4.0888,-4.0888,-4.0888,-4.0888,-4.0888,-4.0888,-4.0888,-4.0888,-4.0896,-4.092,-4.1332,-4.17,-4.1851,-4.2304,-4.2655,-4.2884,-4.2884,-4.2958,-4.2996,-4.3105,-4.3231,-4.3389,-4.344,-4.356,-4.3828,-4.3828,-4.3892,-2.0334,-2.0549,-2.0599,-2.0699,-2.0699,-2.0699,0.0,0.0,0.0,0.0,0.0,0.0,0.0,0.0,0.0,0.0,0.0,0.0,0.0,0.0,0.0,0.0,0.0,0.0,0.0,0.0,0.0,0.0,0.0,-3.287,-3.4113,-3.4262,-3.4592,-3.5175,-3.5295,-3.5389,-3.5537,-3.5642,-3.5928,-3.6446,-3.6753,-3.716,-3.7658,-3.7863,-3.7994,-3.7994,0.0,0.0,-3.8165,-3.8165,-3.8238,-3.8278,-3.8278,-3.8278,-3.8278,-3.8278,-3.8278,-3.8278,-3.8278,-3.8629,-3.9135,-3.9747,-3.9969,-3.9969,-4.007,-4.007,-4.0138,-4.037,-4.0419,-4.0485,-4.0468,-4.0583,-4.0648,-4.0648,-4.0745,-4.0823,-4.0888,-4.0888,-4.0888,-4.0888,-4.0888,-4.0888,-4.0888,-4.0888,-4.0888,-4.0888,-4.0888,-4.0888,-4.0888,-4.0888,-4.0888,-4.0888,-4.0888,-4.0888,-4.0888,-4.0888,-4.1226,-4.1948,-4.2074,-4.2115,-4.2216,-4.2198,-4.2221,-4.2266,-4.2306,-4.2426,-4.2716,-4.2772,-4.3032,-4.3477,-4.3511,-4.3664,-1.9631,-1.994,-2.0207,-2.0599,-2.0699,-2.0699,0.0,0.0,0.0,0.0,0.0,0.0,0.0,0.0,0.0,0.0,0.0,0.0,0.0,0.0,0.0,0.0,0.0,0.0,0.0,0.0,0.0,0.0,0.0,-3.2014,-3.2751,-3.335,-3.3694,-3.3799,-3.4337,-3.4622,-3.4685,-3.5269,-3.5554,-3.5668,-3.5831,-3.5976,-3.6024,-3.6352,-3.6554,-3.6554,0.0,-3.7058,-3.7519,-3.7519,-3.7854,-3.8278,-3.8278,-3.8278,-3.8278,-3.8278,-3.8278,-3.8278,-3.8278,-3.8334,-3.8518,-3.9135,-3.9312,-3.9418,-3.9969,-4.007,-4.0121,-4.0121,-4.0238,-4.0355,-4.0485,-4.0534,-4.0534,-4.0534,-4.0534,-4.0583,-4.0697,-4.0745,-4.0745,-4.0888,-4.0888,-4.0888,-4.0888,-4.0888,-4.0888,-4.0888,-4.0888,-4.0888,-4.0888,-4.0888,-4.0888,-4.0888,-4.0888,-4.0888,-4.0888,-4.0888,-4.0965,-4.1088,-4.1401,-4.1778,-4.2157,-4.2198,-4.2198,-4.2239,-4.2284,-4.2346,-4.2386,-4.2678,-4.2847,-4.2922,-4.3178,-4.3268,-1.9121,-1.9291,-1.95,-2.0169,-2.0536,-2.0699,0.0,0.0,0.0,0.0,0.0,0.0,0.0,0.0,0.0,0.0,0.0,0.0,0.0,0.0,0.0,0.0,0.0,0.0,0.0,0.0,0.0,0.0,0.0,0.0,-3.2422,-3.2796,-3.3125,-3.3484,-3.3784,-3.3948,-3.3948,-3.4262,-3.4786,-3.5504,-3.5653,-3.5688,-3.5688,-3.5958,-3.6148,-3.6211,0.0,-3.6585,-3.6892,-3.6892,-3.7058,-3.7342,-3.7342,-3.7342,-3.7342,-3.7342,-3.7342,-3.7385,-3.7679,-3.7796,-3.7911,-3.8518,-3.8684,-3.8739,-3.9065,-3.9119,-3.9119,-3.9119,-3.9627,-4.0188,-4.0288,-4.0337,-4.0387,-4.0387,-4.0436,-4.0534,-4.0583,-4.0583,-4.0631,-4.0793,-4.0793,-4.084,-4.0888,-4.0888,-4.0888,-4.0888,-4.0888,-4.0888,-4.0888,-4.0888,-4.0888,-4.0888,-4.0888,-4.0888,-4.0888,-4.0888,-4.0888,-4.0888,-4.1088,-4.1283,-4.1507,-4.1507,-4.1507,-4.1507,-4.1534,-4.1604,-4.1717,-4.1888,-4.218,-4.2598,-4.2711,-4.292,-1.8483,-1.8667,-1.8839,-1.9475,0.0,-2.0448,-2.0649,0.0,0.0,0.0,0.0,0.0,0.0,0.0,0.0,0.0,0.0,0.0,0.0,0.0,0.0,0.0,0.0,0.0,0.0,0.0,0.0,0.0,0.0,0.0,-3.1736,-3.1826,-3.2047,-3.2549,-3.2727,-3.28,-3.28,-3.2948,-3.368,-3.504,-3.5274,-3.5398,-3.5398,-3.5755,-3.5958,-3.6085,-3.6148,-3.6274,-3.6414,-3.6492,-3.6492,-3.6492,-3.6492,-3.6492,-3.6492,-3.6492,-3.6492,-3.6554,-3.7013,-3.7178,-3.7298,-3.7895,-3.8067,-3.8124,-3.8238,-3.8278,-3.8278,-3.8278,-3.8957,-3.9679,-3.9679,-3.985,-4.002,-3.985,-4.0121,-4.037,-4.0254,-4.037,-4.0485,-4.0648,-4.0648,-4.0697,-4.0776,-4.0858,-4.0922,-4.0922,-4.0905,-4.0888,-4.0888,-4.0888,-4.0888,-4.0888,-4.0888,-4.0888,-4.0888,-4.0888,-4.0888,-4.0888,-4.0888,-4.0888,-4.0888,-4.0888,-4.0888,-4.0888,-4.0888,-4.0965,-4.1117,-4.1163,-4.1507,-4.2133,-4.2192,-4.2436,-1.739,-1.7941,-1.8387,-1.8578,0.0,0.0,-2.0498,0.0,0.0,0.0,0.0,0.0,0.0,0.0,0.0,0.0,0.0,0.0,0.0,0.0,0.0,0.0,0.0,0.0,0.0,0.0,0.0,0.0,0.0,0.0,-2.9699,-2.9699,-2.9727,-2.9769,-3.0383,-3.0743,-3.0743,-3.1353,-3.2291,-3.3649,-3.4247,-3.461,-3.4625,-3.5353,-3.5752,-3.5752,-3.607,-3.6211,-3.6274,-3.6414,-3.6492,-3.6492,-3.6492,-3.6492,-3.6492,-3.6492,-3.6492,-3.6492,-3.6554,-3.6554,-3.6662,-3.7298,-3.746,-3.7578,-3.8124,-3.8278,-3.8278,-3.8278,-3.8334,-3.8446,-3.8446,-3.8849,-3.9135,-3.8574,-3.9295,-4.002,-3.9542,-3.9901,-4.0337,-4.0485,-4.0534,-4.0534,-4.0534,-4.0717,-4.0899,-4.0899,-4.0892,-4.0888,-4.0888,-4.0888,-4.0888,-4.0888,-4.0888,-4.0888,-4.0888,-4.0888,-4.0888,-4.0888,-4.0888,-4.0888,-4.0888,-4.0888,-4.0888,-4.0888,-4.0888,-4.0935,-4.0918,-4.1117,-4.1255,-4.1283,-4.1542,-4.1692,-1.7234,-1.7744,-1.8236,-1.8614,0.0,0.0,0.0,0.0,0.0,0.0,0.0,0.0,0.0,0.0,0.0,0.0,0.0,0.0,0.0,0.0,0.0,0.0,0.0,0.0,0.0,0.0,0.0,0.0,0.0,0.0,-2.9442,-2.9504,-2.9504,-2.9504,-2.9729,-2.9855,-2.9855,-3.0158,-3.0537,-3.105,-3.2547,-3.325,-3.325,-3.3973,-3.442,-3.4559,-3.4682,-3.479,-3.4988,-3.5477,-3.5799,-3.5907,-3.6322,-3.6492,-3.6492,-3.6492,-3.6492,-3.6492,-3.6492,-3.6492,-3.6554,-3.6785,-3.6831,-3.6892,-3.7118,-3.7163,-3.7163,-3.7163,-3.7163,-3.7326,-3.8124,-3.8463,-3.8574,-3.8334,-3.8629,-3.8957,-3.8778,-3.8903,-3.9119,-3.9226,-3.9279,-3.9262,-3.9368,-4.0115,-4.0728,-4.0866,-4.0916,-4.088,-4.0882,-4.0896,-4.0909,-4.0888,-4.0888,-4.0888,-4.0888,-4.0888,-4.0888,-4.0888,-4.0888,-4.0888,-4.0888,-4.0888,-4.0888,-4.0888,-4.0888,-4.0888,-4.0888,-4.0965,-4.1088,-4.1209,-4.13,-4.1453,-1.7032,-1.7423,-1.7909,0.0,0.0,0.0,0.0,0.0,0.0,0.0,0.0,0.0,0.0,0.0,0.0,0.0,0.0,0.0,0.0,0.0,0.0,0.0,0.0,0.0,0.0,0.0,0.0,0.0,0.0,0.0,0.0,-2.8889,-2.8889,-2.8889,-2.8889,-2.8889,-2.8889,-2.8889,-2.8889,-2.8903,-3.0503,-3.1461,-3.1916,-3.2543,-3.2974,-3.3099,-3.3176,-3.3408,-3.3789,-3.4349,-3.482,-3.5214,-3.5676,-3.5861,-3.5861,-3.5861,-3.5861,-3.5861,-3.5861,-3.5999,-3.6168,-3.6168,-3.6322,-3.6492,-3.6492,-3.6492,-3.6492,-3.6492,-3.6492,-3.6723,-3.7504,-3.7895,-3.7953,-3.778,-3.801,-3.8238,-3.8067,-3.8181,-3.8351,-3.839,-3.8446,-3.8446,-3.8541,-3.9292,-3.9896,-4.0054,-4.05,-4.0761,-4.0679,-4.0797,-4.088,-4.0891,-4.062,-4.05,-4.05,-4.0631,-4.068,-4.068,-4.084,-4.0888,-4.0888,-4.0888,-4.0888,-4.0888,-4.0888,-4.0888,-4.0888,-4.0888,-4.0965,-4.1134,-4.1134,-4.118,-1.6705,-1.6976,0.0,0.0,0.0,0.0,0.0,0.0,0.0,0.0,0.0,0.0,0.0,0.0,0.0,0.0,0.0,0.0,0.0,0.0,0.0,0.0,0.0,0.0,0.0,0.0,0.0,0.0,0.0,0.0,0.0,-2.7523,-2.7523,-2.7523,-2.7523,-2.7523,-2.7523,-2.7523,-2.7523,-2.7523,-2.8157,-2.9219,-3.0495,-3.1208,-3.1505,-3.1505,-3.1701,-3.2155,-3.279,-3.3072,-3.3713,-3.4475,-3.4475,-3.4475,-3.4475,-3.4475,-3.4475,-3.4475,-3.4475,-3.4906,-3.5476,-3.5476,-3.5938,-3.6476,-3.6492,-3.6492,-3.6492,-3.6492,-3.6492,-3.6492,-3.6492,-3.6952,-3.7238,-3.6662,-3.7385,-3.8124,-3.7519,-3.7854,-3.8278,-3.8278,-3.8278,-3.8278,-3.8278,-3.839,-3.843,-3.8316,-3.9528,-4.037,-4.0117,-4.0554,-4.0889,-4.088,-4.0083,-3.9594,-3.9594,-4.0003,-4.0288,-4.0288,-4.068,-4.0888,-4.0888,-4.0888,-4.0888,-4.0888,-4.0888,-4.0888,-4.0888,-4.0888,-4.0888,-4.0888,-4.0888,-4.0888,-1.6818,-1.7312,0.0,0.0,0.0,0.0,0.0,0.0,0.0,0.0,0.0,0.0,0.0,0.0,0.0,0.0,0.0,0.0,0.0,0.0,0.0,0.0,0.0,0.0,0.0,0.0,0.0,0.0,0.0,0.0,0.0,-2.7523,-2.7523,-2.7523,-2.7523,-2.7523,-2.7523,-2.7523,-2.7523,-2.7523,-2.7723,-2.825,-2.9114,-2.9792,-3.0066,-3.0129,-3.0129,-3.0381,-3.0783,-3.1664,-3.2426,-3.3087,-3.3348,-3.3425,-3.3486,-3.3894,-3.403,-3.403,-3.4417,-3.4599,-3.4845,-3.5337,-3.5614,-3.5876,-3.6353,-3.6492,-3.6492,-3.6492,-3.6492,-3.6492,-3.6492,-3.66,-3.6723,-3.6554,-3.6769,-3.6997,-3.6846,-3.6892,-3.7058,-3.7058,-3.7058,-3.7058,-3.7058,-3.7058,-3.7068,-3.7033,-3.7382,-3.7687,-3.7591,-3.8488,-3.911,-3.9143,-3.8907,-3.8778,-3.875,-3.9376,-3.9833,-3.9833,-4.0221,-4.0583,-4.0888,-4.0888,-4.0888,-4.0888,-4.0888,-4.0888,-4.0888,-4.0888,-4.0888,-4.0888,-4.0888,-4.0888,-1.6751,0.0,0.0,0.0,0.0,0.0,0.0,0.0,0.0,0.0,0.0,0.0,0.0,0.0,0.0,0.0,0.0,0.0,0.0,0.0,0.0,0.0,0.0,0.0,0.0,0.0,0.0,0.0,0.0,0.0,0.0,-2.7523,-2.7523,-2.7523,-2.7523,-2.7523,-2.7523,-2.7523,-2.7523,-2.7523,-2.7523,-2.7723,-2.8105,-2.8519,-2.8698,-2.8698,-2.9016,-2.9205,-2.9498,-3.0425,-3.1108,-3.1565,-3.1889,-3.2027,-3.2088,-3.2557,-3.2691,-3.2751,-3.2989,-3.3288,-3.3576,-3.397,-3.4273,-3.4607,-3.5288,-3.5626,-3.5875,-3.6087,-3.6352,-3.6492,-3.6492,-3.6492,-3.6492,-3.6492,-3.6492,-3.6492,-3.6492,-3.6492,-3.6492,-3.6492,-3.6492,-3.6492,-3.6492,-3.6492,-3.6523,-3.652,-3.6489,-3.6513,-3.6516,-3.7195,-3.7673,-3.7648,-3.8082,-3.84,-3.8379,-3.8987,-3.9365,-3.9365,-3.9799,-4.0104,-4.0402,-4.0728,-4.0888,-4.0888,-4.0888,-4.0888,-4.0888,-4.0888,-4.0888,-4.0888,-4.0888,-4.0888,0.0,0.0,0.0,0.0,0.0,0.0,0.0,0.0,0.0,0.0,0.0,0.0,0.0,0.0,0.0,0.0,0.0,0.0,0.0,0.0,0.0,0.0,0.0,0.0,0.0,0.0,0.0,0.0,0.0,0.0,0.0,-2.7523,-2.7523,-2.7523,-2.7523,-2.7523,-2.7523,-2.7523,-2.7523,-2.7523,-2.7523,-2.7523,-2.7523,-2.7523,-2.7523,-2.7523,-2.8157,-2.8481,-2.8725,-2.9393,-2.9766,-2.9903,-3.0283,-3.0404,-3.0464,-3.0777,-3.097,-3.097,-3.097,-3.1412,-3.1913,-3.1972,-3.2431,-3.3007,-3.3687,-3.4274,-3.4753,-3.5337,-3.5867,-3.6275,-3.6336,-3.6352,-3.6352,-3.6352,-3.6429,-3.6492,-3.6492,-3.6492,-3.6492,-3.6492,-3.6492,-3.6492,-3.6492,-3.6492,-3.6492,-3.6492,-3.6492,-3.6492,-3.6491,-3.6476,-3.652,-3.6526,-3.7605,-3.8306,-3.838,-3.877,-3.8969,-3.8969,-3.9312,-3.9558,-3.9558,-4.0353,-4.0776,-4.0776,-4.0776,-4.0776,-4.0776,-4.0776,-4.0823,-4.084,-4.084,-4.0871,0.0,0.0,0.0,0.0,0.0,0.0,0.0,0.0,0.0,0.0,0.0,0.0,0.0,0.0,0.0,0.0,0.0,0.0,0.0,0.0,0.0,0.0,0.0,0.0,0.0,0.0,0.0,0.0,0.0,0.0,-2.7523,-2.7523,-2.7523,-2.7523,-2.7523,-2.7523,-2.7523,-2.7523,-2.7523,0.0,-2.7523,-2.7523,-2.7523,-2.7523,-2.7523,-2.7523,-2.7656,-2.7723,-2.7855,-2.856,-2.8894,-2.8958,-2.9588,-2.9775,-2.9837,-3.0312,-3.0433,-3.0493,-3.0851,-3.1117,-3.1309,-3.1824,-3.209,-3.2372,-3.2992,-3.3309,-3.352,-3.4203,-3.446,-3.4644,-3.515,-3.5219,-3.5219,-3.5219,-3.5894,-3.6492,-3.6492,-3.6492,-3.6492,-3.6492,-3.6492,-3.6492,-3.6492,-3.6492,-3.6492,-3.6492,-3.6492,-3.6476,-3.6492,-3.6492,-3.6477,-3.652,-3.7144,-3.7855,-3.838,-3.8505,-3.856,-3.856,-3.8914,-3.9115,-3.9115,-3.961,-3.9868,-3.9868,-3.9868,-3.9868,-3.9868,-3.9868,-4.0054,-4.0436,-4.0436,-4.0583,0.0,0.0,0.0,0.0,0.0,0.0,0.0,0.0,0.0,0.0,0.0,0.0,0.0,0.0,0.0,0.0,0.0,0.0,0.0,0.0,0.0,0.0,0.0,0.0,0.0,0.0,0.0,0.0,0.0,-2.6756,-2.6756,-2.6756,-2.6837,-2.7121,-2.7134,-2.7255,-2.7523,-2.7523,-2.7523,-2.7523,-2.7523,-2.7523,-2.7523,-2.7523,-2.7523,-2.7523,-2.7523,-2.7523,-2.7523,-2.7921,-2.8066,-2.8131,-2.8651,-2.8908,-2.8972,-2.9526,-2.9713,-2.9775,-3.019,-3.0312,-3.0369,-3.0762,-3.0863,-3.0978,-3.1599,-3.1975,-3.2295,-3.2981,-3.3333,-3.3657,-3.4307,-3.4484,-3.4558,-3.4802,-3.535,-3.5752,-3.5752,-3.5958,-3.6085,-3.6085,-3.6289,-3.6492,-3.6492,-3.6492,-3.6492,-3.6492,-3.6492,-3.6492,-3.6492,-3.6492,-3.6507,-3.6477,-3.6767,-3.7238,-3.7896,-3.8088,-3.8148,-3.8148,-3.8488,-3.8711,-3.8711,-3.8898,-3.9206,-3.9594,-3.961,-3.961,-3.961,-3.961,-3.9731,-3.9952,-3.9952,-4.0104,0.0,0.0,0.0,0.0,0.0,0.0,0.0,0.0,0.0,0.0,0.0,0.0,0.0,0.0,0.0,0.0,0.0,0.0,0.0,0.0,0.0,0.0,0.0,0.0,0.0,0.0,0.0,0.0,0.0,-2.5931,-2.5931,-2.5931,-2.607,-2.6577,-2.6577,-2.685,-2.7335,-2.7255,-2.7323,-2.7523,-2.7523,-2.7523,-2.7523,-2.7523,-2.7523,-2.7523,-2.7523,-2.7523,-2.7536,-2.7603,-2.759,-2.7669,-2.8,-2.821,-2.8276,-2.878,-2.9035,-2.9035,-2.9352,-2.9477,-2.9477,-2.9477,-2.954,-2.9701,-3.0207,-3.0665,-3.1108,-3.1832,-3.2295,-3.2713,-3.3401,-3.3651,-3.387,-3.4332,-3.4537,-3.4691,-3.4876,-3.5219,-3.5559,-3.5559,-3.5958,-3.6226,-3.6352,-3.6475,-3.6491,-3.6507,-3.6492,-3.6492,-3.6492,-3.6492,-3.6492,-3.6492,-3.6507,-3.6691,-3.7201,-3.7614,-3.7828,-3.7828,-3.8148,-3.8335,-3.8335,-3.8391,-3.8694,-3.9401,-3.9401,-3.9401,-3.9401,-3.9401,-3.9454,-3.9506,-3.9506,-3.9558,0.0,0.0,0.0,0.0,0.0,0.0,0.0,0.0,0.0,0.0,0.0,0.0,0.0,0.0,0.0,0.0,0.0,0.0,0.0,0.0,0.0,0.0,0.0,0.0,0.0,0.0,0.0,0.0,-2.5569,-2.5931,-2.5931,-2.5931,-2.5931,-2.6,-2.6,-2.6277,-2.6782,-2.6358,-2.6552,-2.7523,-2.7523,-2.7523,-2.7523,-2.7523,-2.7523,-2.7523,-2.7523,-2.7523,-2.7536,-2.7881,-2.8013,-2.8079,-2.8406,-2.8522,-2.8522,-2.8651,-2.8651,-2.8651,-2.8716,-2.8908,-2.9162,-2.9162,-2.9352,-2.9631,-2.9715,-2.9791,-2.9981,-3.0538,-3.0771,-3.0977,-3.1627,-3.2192,-3.2617,-3.2701,-3.3125,-3.377,-3.4691,-3.4957,-3.5023,-3.5023,-3.5073,-3.5285,-3.5752,-3.6171,-3.6468,-3.6538,-3.6492,-3.6492,-3.6492,-3.6492,-3.6492,-3.6492,-3.6507,-3.6521,-3.6644,-3.716,-3.7476,-3.7476,-3.777,-3.7943,-3.7943,-3.8278,-3.8448,-3.8544,-3.8544,-3.8544,-3.8544,-3.8544,-3.8766,-3.9061,-3.9061,-3.9259,0.0,0.0,0.0,0.0,0.0,0.0,0.0,0.0,0.0,0.0,0.0,0.0,0.0,0.0,0.0,0.0,0.0,0.0,0.0,0.0,0.0,0.0,0.0,0.0,0.0,0.0,0.0,0.0,-2.4814,-2.4957,-2.4957,-2.4957,-2.5099,-2.537,-2.5429,-2.5652,-2.622,-2.6,-2.6139,-2.662,-2.662,-2.662,-2.662,-2.662,-2.6905,-2.7523,-2.7523,-2.7523,-2.7523,-2.7669,-2.7736,-2.7802,-2.7934,-2.7987,-2.8,-2.8276,-2.8341,-2.8341,-2.8522,-2.8716,-2.8844,-2.8844,-2.8908,-2.9035,-2.9035,-2.9035,-2.9154,-2.9609,-2.9692,-2.9895,-3.0718,-3.1415,-3.1977,-3.2328,-3.2876,-3.3452,-3.3908,-3.4221,-3.4543,-3.481,-3.4876,-3.4912,-3.494,-3.5484,-3.6019,-3.6438,-3.6486,-3.6488,-3.6507,-3.6492,-3.6492,-3.6492,-3.6477,-3.6492,-3.6492,-3.6751,-3.6964,-3.715,-3.7492,-3.7653,-3.7653,-3.796,-3.8132,-3.8132,-3.8319,-3.8391,-3.8391,-3.8391,-3.8504,-3.8655,-3.8655,-3.8766,0.0,0.0,0.0,0.0,0.0,0.0,0.0,0.0,0.0,0.0,0.0,0.0,0.0,0.0,0.0,0.0,0.0,0.0,0.0,0.0,0.0,0.0,0.0,0.0,0.0,0.0,0.0,0.0,-2.4005,-2.4062,-2.4189,-2.42,-2.4394,-2.4802,-2.4814,-2.5087,-2.5652,-2.5791,-2.5791,-2.5652,-2.5861,-2.5931,-2.5931,-2.5931,-2.6346,-2.7108,-2.7255,-2.739,-2.7523,-2.7523,-2.7523,-2.7523,-2.7523,-2.7523,-2.7536,-2.7815,-2.7947,-2.8,-2.8262,-2.8392,-2.8471,-2.8471,-2.8522,-2.8587,-2.8587,-2.8587,-2.8651,-2.8908,-2.8972,-2.9132,-2.9909,-3.0751,-3.1464,-3.2061,-3.2764,-3.3326,-3.3326,-3.3632,-3.4031,-3.4423,-3.4491,-3.4447,-3.4368,-3.4647,-3.517,-3.5939,-3.63,-3.6523,-3.6486,-3.6534,-3.6534,-3.6534,-3.652,-3.6474,-3.6474,-3.6523,-3.6584,-3.6877,-3.715,-3.7298,-3.7417,-3.7711,-3.7943,-3.8017,-3.8262,-3.8391,-3.8391,-3.8391,-3.8391,-3.8391,-3.8391,-3.8391,0.0,0.0,0.0,0.0,0.0,0.0,0.0,0.0,0.0,0.0,0.0,0.0,0.0,0.0,0.0,0.0,0.0,0.0,0.0,0.0,0.0,0.0,0.0,0.0,0.0,0.0,0.0,0.0,-2.3406,-2.3695,-2.4166,-2.42,-2.42,-2.4261,-2.4261,-2.4467,-2.5004,-2.5639,-2.5639,-2.5075,-2.5652,-2.5931,-2.5931,-2.5931,-2.5931,-2.6,-2.6508,-2.7053,-2.7523,-2.7523,-2.7523,-2.7523,-2.7523,-2.7523,-2.7523,-2.7523,-2.7523,-2.7523,-2.7523,-2.7802,-2.8145,-2.8145,-2.8341,-2.8587,-2.8587,-2.8587,-2.8587,-2.8587,-2.8651,-2.8729,-2.9077,-3.0024,-3.1057,-3.1447,-3.244,-3.3326,-3.3326,-3.3312,-3.3312,-3.3382,-3.3382,-3.3507,-3.4002,-3.3704,-3.3768,-3.4795,-3.5872,-3.6511,-3.6496,-3.6496,-3.6496,-3.6496,-3.6501,-3.6527,-3.6527,-3.652,-3.6476,-3.6492,-3.6816,-3.7165,-3.7417,-3.7711,-3.8075,-3.8391,-3.8391,-3.8391,-3.8391,-3.8391,-3.8391,-3.8391,-3.8391,-3.8391,0.0,0.0,0.0,0.0,0.0,0.0,0.0,0.0,0.0,0.0,0.0,0.0,0.0,0.0,0.0,0.0,0.0,0.0,0.0,0.0,0.0,0.0,0.0,0.0,0.0,0.0,0.0,0.0,0.0,-2.3029,-2.3213,-2.3534,-2.3718,-2.3718,-2.4028,-2.4261,-2.4467,-2.4683,-2.4683,-2.4467,-2.4683,-2.4826,-2.4826,-2.4826,-2.5028,-2.5358,-2.5511,-2.5931,-2.6483,-2.6483,-2.6483,-2.6483,-2.6483,-2.6701,-2.6985,-2.6985,-2.7188,-2.7523,-2.7523,-2.759,-2.7736,-2.7736,-2.7802,-2.7855,-2.7855,-2.7855,-2.7934,-2.821,-2.8276,-2.8406,-2.8972,-2.9997,-3.1169,-3.24,-3.3002,-3.3326,-3.3326,-3.3326,-3.3326,-3.3326,-3.3326,-3.3382,-3.3577,-3.3422,-3.3448,-3.3811,-3.4172,-3.4447,-3.4457,-3.4427,-3.4427,-3.4427,-3.4471,-3.4984,-3.6381,-3.6493,-3.6517,-3.6517,-3.6599,-3.6739,-3.6846,-3.715,-3.7449,-3.7786,-3.796,-3.8205,-3.8391,-3.8391,-3.8391,-3.8391,-3.8391,-3.8391,0.0,0.0,0.0,0.0,0.0,0.0,0.0,0.0,0.0,0.0,0.0,0.0,0.0,0.0,0.0,0.0,0.0,0.0,0.0,0.0,0.0,0.0,0.0,0.0,0.0,0.0,0.0,0.0,0.0,0.0,-2.2673,-2.3006,-2.319,-2.319,-2.3672,-2.3936,-2.3936,-2.4108,-2.42,-2.42,-2.42,-2.42,-2.42,-2.42,-2.4394,-2.4731,-2.4731,-2.5158,-2.5931,-2.5931,-2.5931,-2.5931,-2.5931,-2.6151,-2.6427,-2.6427,-2.6633,-2.6973,-2.6973,-2.6973,-2.6973,-2.7188,-2.7255,-2.7268,-2.7469,-2.7523,-2.7536,-2.7802,-2.7881,-2.8,-2.8587,-2.9734,-3.1076,-3.2582,-3.3016,-3.3086,-3.3086,-3.3171,-3.3326,-3.3326,-3.3326,-3.3326,-3.3326,-3.3326,-3.3311,-3.3293,-3.3265,-3.3331,-3.3268,-3.3307,-3.3307,-3.3307,-3.3274,-3.3854,-3.5326,-3.5463,-3.5539,-3.5754,-3.5906,-3.6022,-3.6148,-3.6538,-3.6831,-3.7147,-3.7519,-3.7828,-3.8091,-3.8278,-3.8391,-3.8391,-3.8391,-3.8391,0.0,0.0,0.0,0.0,0.0,0.0,0.0,0.0,0.0,0.0,0.0,0.0,0.0,0.0,0.0,0.0,0.0,0.0,0.0,0.0,0.0,0.0,0.0,0.0,0.0,0.0,0.0,0.0,-2.1904,-2.2122,-2.2604,-2.265,-2.2662,-2.2685,-2.3155,-2.3361,-2.3372,-2.3936,-2.4177,-2.42,-2.42,-2.42,-2.42,-2.42,-2.42,-2.42,-2.42,-2.4814,-2.5861,-2.5861,-2.5861,-2.5861,-2.5861,-2.5861,-2.5861,-2.5861,-2.5861,-2.5931,-2.5931,-2.5931,-2.6,-2.6508,-2.6658,-2.6782,-2.7255,-2.7456,-2.7469,-2.7456,-2.7469,-2.7603,-2.8053,-2.9242,-3.069,-3.1843,-3.2417,-3.2704,-3.2704,-3.3016,-3.3255,-3.3326,-3.3326,-3.3326,-3.3326,-3.3326,-3.3326,-3.3326,-3.3326,-3.3326,-3.3326,-3.3326,-3.3326,-3.3326,-3.3308,-3.3314,-3.3314,-3.3312,-3.3578,-3.4317,-3.4707,-3.5073,-3.54,-3.5879,-3.629,-3.6554,-3.7087,-3.7342,-3.7342,-3.8033,-3.8408,-3.8408,-3.8408,-3.8391,-1.2012,0.0,0.0,0.0,0.0,0.0,0.0,0.0,0.0,0.0,0.0,0.0,0.0,0.0,0.0,0.0,0.0,0.0,0.0,0.0,0.0,0.0,0.0,0.0,0.0,0.0,0.0,0.0,-2.1376,-2.1433,-2.1636,-2.1939,-2.2306,-2.2662,-2.2823,-2.3075,-2.3372,-2.358,-2.3833,-2.42,-2.42,-2.42,-2.42,-2.42,-2.42,-2.42,-2.42,-2.4406,-2.4683,-2.4683,-2.4683,-2.4683,-2.4683,-2.4886,-2.5229,-2.5229,-2.5511,-2.5931,-2.5931,-2.5931,-2.5931,-2.607,-2.6139,-2.6139,-2.6277,-2.6346,-2.6414,-2.6782,-2.6918,-2.7301,-2.8873,-3.0142,-3.1192,-3.1951,-3.22,-3.2273,-3.2273,-3.2345,-3.2574,-3.3171,-3.3326,-3.3326,-3.3326,-3.3326,-3.3326,-3.3326,-3.3326,-3.3326,-3.3326,-3.3326,-3.3326,-3.3326,-3.3311,-3.3325,-3.3325,-3.3303,-3.3614,-3.4356,-3.4691,-3.4942,-3.5008,-3.5204,-3.54,-3.5706,-3.5897,-3.6072,-3.6276,-3.7429,-3.8017,-3.8017,-3.8278,-3.8391,0.0,0.0,0.0,0.0,0.0,0.0,-1.3009,-1.307,0.0,0.0,0.0,0.0,0.0,0.0,0.0,0.0,0.0,0.0,0.0,0.0,0.0,0.0,0.0,0.0,0.0,-1.9314,-1.9639,-2.0161,-2.0226,-2.0366,-2.07,-2.1305,-2.1743,-2.203,-2.2249,-2.2513,-2.2743,-2.3018,-2.3374,-2.3879,-2.3879,-2.3994,-2.42,-2.42,-2.42,-2.42,-2.42,-2.42,-2.42,-2.42,-2.42,-2.42,-2.42,-2.4394,-2.4671,-2.4671,-2.4886,-2.5158,-2.5158,-2.5158,-2.5241,-2.5441,-2.5499,-2.5581,-2.5791,-2.5931,-2.6,-2.6289,-2.6534,-2.6967,-2.8466,-2.9411,-3.0129,-3.1014,-3.1368,-3.1529,-3.1836,-3.1982,-3.22,-3.2731,-3.2945,-3.3016,-3.3016,-3.3171,-3.3326,-3.3326,-3.3326,-3.3326,-3.3326,-3.3326,-3.3326,-3.3326,-3.3326,-3.3326,-3.3326,-3.3282,-3.3476,-3.3911,-3.4128,-3.4235,-3.4235,-3.4423,-3.4677,-3.4861,-3.5073,-3.532,-3.5661,-3.66,-3.716,-3.737,-3.7695,-3.796,0.0,0.0,0.0,0.0,0.0,0.0,-1.2258,-1.2381,-1.2573,0.0,0.0,0.0,0.0,0.0,0.0,0.0,0.0,0.0,0.0,0.0,0.0,0.0,0.0,0.0,-1.768,-1.8051,-1.8378,-1.8685,-1.8736,-1.91,-1.9901,-2.0624,-2.0955,-2.0892,-2.1399,-2.1672,-2.1718,-2.2229,-2.2777,-2.3292,-2.3349,-2.3672,-2.4108,-2.4166,-2.42,-2.42,-2.42,-2.42,-2.42,-2.42,-2.42,-2.42,-2.42,-2.42,-2.42,-2.42,-2.42,-2.42,-2.42,-2.42,-2.4261,-2.4743,-2.4945,-2.5016,-2.5581,-2.5721,-2.5734,-2.5865,-2.6269,-2.6809,-2.7422,-2.7963,-2.8568,-2.9603,-3.0165,-3.0607,-3.1172,-3.1542,-3.1823,-3.1823,-3.2345,-3.2704,-3.2704,-3.3016,-3.3326,-3.3326,-3.3326,-3.3326,-3.3326,-3.3326,-3.3326,-3.3326,-3.3326,-3.3326,-3.3326,-3.3326,-3.3326,-3.3326,-3.3326,-3.3326,-3.3326,-3.377,-3.4016,-3.4016,-3.4476,-3.4876,-3.5139,-3.5582,-3.6011,-3.6538,-3.6859,-3.7251,0.0,0.0,0.0,0.0,0.0,0.0,-1.1695,-1.1703,-1.1703,0.0,0.0,0.0,0.0,0.0,0.0,0.0,0.0,0.0,0.0,0.0,0.0,0.0,0.0,0.0,-1.6542,-1.6683,-1.7125,-1.7991,-1.8364,-1.8633,-1.8767,-1.9365,-1.9497,-1.9034,-1.9679,-2.0313,-2.0817,-2.1118,-2.1756,-2.2834,-2.3247,-2.3429,-2.3603,-2.4005,-2.42,-2.42,-2.42,-2.42,-2.42,-2.42,-2.42,-2.42,-2.42,-2.42,-2.42,-2.42,-2.42,-2.42,-2.42,-2.42,-2.4189,-2.4334,-2.4334,-2.4406,-2.4467,-2.4539,-2.4704,-2.5563,-2.6554,-2.7447,-2.7912,-2.8528,-2.8946,-2.9213,-2.9316,-2.9471,-2.9549,-2.9614,-2.9845,-3.033,-3.1663,-3.2704,-3.2704,-3.3016,-3.3326,-3.3326,-3.3326,-3.3326,-3.3326,-3.3326,-3.3326,-3.3326,-3.3326,-3.3326,-3.3326,-3.3326,-3.3326,-3.3326,-3.3326,-3.3326,-3.3326,-3.3382,-3.3437,-3.3437,-3.3577,-3.3646,-3.3716,-3.4927,-3.5755,-3.6213,-3.6276,-3.643,0.0,0.0,0.0,-0.9849,0.0,0.0,0.0,-1.0968,-1.1094,-1.1454,0.0,0.0,0.0,0.0,0.0,0.0,0.0,0.0,0.0,0.0,0.0,0.0,0.0,0.0,-1.5187,-1.5369,-1.5762,-1.6392,-1.7195,-1.7637,-1.7637,-1.8435,-1.8757,-1.8499,-1.8834,-1.9204,-1.9557,-1.9634,-2.0147,-2.096,-2.1728,-2.2171,-2.2507,-2.3223,-2.3593,-2.3593,-2.3593,-2.3593,-2.3593,-2.3593,-2.3593,-2.3666,-2.4043,-2.42,-2.42,-2.42,-2.42,-2.42,-2.42,-2.42,-2.42,-2.42,-2.42,-2.42,-2.42,-2.4361,-2.4676,-2.5226,-2.6158,-2.7038,-2.7311,-2.7763,-2.8235,-2.8554,-2.8633,-2.87,-2.9015,-2.9081,-2.916,-2.9471,-3.0456,-3.1429,-3.2259,-3.2704,-3.3086,-3.3255,-3.3326,-3.3326,-3.3326,-3.3326,-3.3326,-3.3326,-3.3326,-3.3326,-3.3326,-3.3326,-3.3326,-3.3326,-3.3326,-3.3326,-3.3326,-3.3326,-3.3326,-3.3326,-3.3326,-3.3326,-3.3326,-3.4045,-3.4595,-3.508,-3.5355,-3.5676,0.0,0.0,0.0,0.0,0.0,-0.9402,0.0,0.0,0.0,-1.0954,0.0,0.0,0.0,0.0,0.0,0.0,0.0,0.0,0.0,0.0,0.0,0.0,0.0,0.0,0.0,-1.4341,-1.4629,-1.4742,-1.5805,-1.6449,-1.6466,-1.7427,-1.7996,-1.7959,-1.8152,-1.82,-1.8267,-1.8287,-1.8534,-1.9081,-1.9957,-2.0707,-2.1178,-2.2104,-2.268,-2.2841,-2.2841,-2.2841,-2.2841,-2.2927,-2.2927,-2.2916,-2.3666,-2.397,-2.397,-2.397,-2.4043,-2.4043,-2.4043,-2.4116,-2.42,-2.42,-2.42,-2.4212,-2.4303,-2.4602,-2.4958,-2.5153,-2.5819,-2.6485,-2.6588,-2.6921,-2.7313,-2.7857,-2.8018,-2.8167,-2.8621,-2.87,-2.8779,-2.8924,-2.9172,-2.9858,-3.1368,-3.2042,-3.2547,-3.286,-3.3016,-3.31,-3.3171,-3.3171,-3.3241,-3.3326,-3.3326,-3.3326,-3.3326,-3.3326,-3.3326,-3.3326,-3.3326,-3.3326,-3.3326,-3.3326,-3.3326,-3.3326,-3.3326,-3.3326,-3.3326,-3.3326,-3.3507,-3.4016,-3.4423,-3.4876,0.0,0.0,0.0,0.0,-0.9017,0.0,0.0,0.0,-0.946,-0.9524,0.0,0.0,0.0,0.0,0.0,0.0,0.0,0.0,0.0,0.0,0.0,0.0,0.0,0.0,0.0,-1.393,-1.4161,-1.4216,-1.4651,-1.508,-1.5392,-1.5995,-1.6251,-1.6132,-1.676,-1.7157,-1.7276,-1.7413,-1.791,-1.858,-1.914,-1.9576,-2.0021,-2.0635,-2.1373,-2.2209,-2.2209,-2.2209,-2.2209,-2.2767,-2.2692,-2.2295,-2.2916,-2.315,-2.315,-2.315,-2.3372,-2.3666,-2.3666,-2.3897,-2.42,-2.42,-2.42,-2.4281,-2.4705,-2.4866,-2.5107,-2.6026,-2.6381,-2.6565,-2.7024,-2.7185,-2.7231,-2.7313,-2.7301,-2.7301,-2.7383,-2.7383,-2.7615,-2.8167,-2.8327,-2.8712,-2.9781,-3.0745,-3.1402,-3.1402,-3.1882,-3.2359,-3.2704,-3.2775,-3.2931,-3.3241,-3.3326,-3.3326,-3.3326,-3.3326,-3.3326,-3.3326,-3.3326,-3.3326,-3.3326,-3.3326,-3.3326,-3.3326,-3.3326,-3.3326,-3.3326,-3.3326,-3.3382,-3.3675,-3.373,-3.3922,0.0,0.0,0.0,0.0,0.0,0.0,-0.8952,0.0,-0.9145,0.0,0.0,0.0,0.0,0.0,0.0,0.0,-1.1274,0.0,0.0,0.0,0.0,0.0,0.0,0.0,0.0,0.0,0.0,0.0,-1.4119,-1.441,-1.4555,-1.5175,-1.5496,-1.5454,-1.5957,-1.6281,-1.6342,-1.6403,-1.6612,-1.6959,-1.7699,-1.8328,-1.8746,-1.9548,-2.0279,-2.0827,-2.0827,-2.0827,-2.0827,-2.1135,-2.1058,-2.0827,-2.1135,-2.1918,-2.3001,-2.3001,-2.3075,-2.3224,-2.3224,-2.3372,-2.3519,-2.3751,-2.4164,-2.4648,-2.4855,-2.5337,-2.5899,-2.6335,-2.668,-2.6955,-2.7174,-2.7231,-2.7231,-2.7231,-2.7231,-2.7231,-2.7231,-2.7231,-2.7301,-2.7545,-2.7626,-2.7777,-2.8155,-2.9381,-3.0443,-3.0644,-3.097,-3.1281,-3.1429,-3.1576,-3.1723,-3.1869,-3.2331,-3.2618,-3.2618,-3.3016,-3.3326,-3.3326,-3.3326,-3.3326,-3.3326,-3.3326,-3.3326,-3.3326,-3.3326,-3.3326,-3.3326,-3.3326,-3.3326,-3.3466,-3.3536,-3.3744,-0.8182,0.0,0.0,0.0,0.0,0.0,0.0,0.0,0.0,0.0,0.0,0.0,0.0,0.0,0.0,0.0,0.0,0.0,0.0,0.0,0.0,0.0,0.0,0.0,0.0,0.0,0.0,-1.3511,-1.3776,-1.3982,-1.4093,-1.4615,-1.5,-1.5206,-1.5489,-1.5694,-1.5805,-1.5805,-1.5805,-1.5805,-1.6563,-1.7179,-1.768,-1.8412,-1.9047,-1.9678,-1.9678,-1.9678,-1.9678,-1.9825,-1.9825,-1.9678,-1.9825,-2.0827,-2.2145,-2.2145,-2.222,-2.2295,-2.2295,-2.2531,-2.2863,-2.3453,-2.4041,-2.4593,-2.4864,-2.5464,-2.6166,-2.6462,-2.677,-2.7056,-2.7149,-2.7231,-2.7231,-2.7231,-2.7231,-2.7231,-2.7231,-2.7231,-2.7231,-2.7231,-2.7231,-2.7231,-2.7231,-2.8395,-2.9394,-2.9679,-2.9986,-3.0228,-3.0304,-3.0443,-3.0594,-3.082,-3.1341,-3.1709,-3.1783,-3.2331,-3.2717,-3.2945,-3.3002,-3.3086,-3.3326,-3.3326,-3.3326,-3.3326,-3.3326,-3.3326,-3.3326,-3.3326,-3.3326,-3.3326,-3.3466,-3.3675,0.0,0.0,0.0,-0.8317,0.0,0.0,0.0,0.0,-0.8835,0.0,0.0,0.0,0.0,0.0,0.0,0.0,0.0,0.0,0.0,0.0,0.0,0.0,0.0,0.0,0.0,0.0,0.0,-1.345,-1.3519,-1.3691,-1.4076,-1.4119,-1.4461,-1.5189,-1.5232,-1.542,-1.5797,-1.5805,-1.5805,-1.5805,-1.5814,-1.6208,-1.6918,-1.6935,-1.7725,-1.9002,-1.9002,-1.9002,-1.9073,-1.9678,-1.9529,-1.9073,-1.9678,-1.9982,-1.9972,-1.9972,-2.0285,-2.0575,-2.0575,-2.1278,-2.2294,-2.3395,-2.3722,-2.3897,-2.4814,-2.512,-2.5322,-2.6195,-2.6517,-2.6622,-2.7056,-2.7231,-2.7231,-2.7231,-2.7231,-2.7231,-2.7231,-2.7231,-2.7231,-2.7231,-2.7231,-2.7231,-2.7231,-2.7777,-2.8247,-2.8247,-2.8779,-2.9316,-2.9704,-2.9704,-2.9922,-3.0532,-3.0607,-3.0758,-3.0895,-3.097,-3.1341,-3.2074,-3.216,-3.2475,-3.3255,-3.3326,-3.3326,-3.3326,-3.3326,-3.3326,-3.3326,-3.3326,-3.3326,-3.3326,-3.3326,-3.3536,0.0,0.0,-0.6929,-0.7657,0.0,0.0,0.0,0.0,0.0,0.0,0.0,0.0,0.0,0.0,0.0,0.0,0.0,0.0,0.0,0.0,0.0,0.0,0.0,0.0,0.0,0.0,0.0,-1.2818,-1.326,-1.3571,-1.3699,-1.3956,-1.4333,-1.4846,-1.5095,-1.5403,-1.5797,-1.5805,-1.5805,-1.5805,-1.5805,-1.6199,-1.6918,-1.6918,-1.7407,-1.8362,-1.8362,-1.8362,-1.8353,-1.8585,-1.8505,-1.8362,-1.8585,-1.8656,-1.8736,-1.959,-1.9972,-2.0119,-2.0119,-2.0703,-2.1519,-2.1837,-2.2853,-2.3981,-2.437,-2.5031,-2.5677,-2.6008,-2.6135,-2.6135,-2.6313,-2.655,-2.6704,-2.6704,-2.6962,-2.7231,-2.7231,-2.7231,-2.7231,-2.7231,-2.7231,-2.7231,-2.7231,-2.7383,-2.7545,-2.7545,-2.7846,-2.8063,-2.8223,-2.8395,-2.8566,-2.8803,-2.9316,-2.9614,-2.9679,-3.0291,-3.0895,-3.1267,-3.1341,-3.1415,-3.1723,-3.2245,-3.2547,-3.2547,-3.3016,-3.3326,-3.3326,-3.3326,-3.3326,-3.3326,-3.3326,-3.3466,-0.5954,-0.6001,0.0,-0.6924,-0.7125,0.0,-0.7987,0.0,0.0,0.0,0.0,0.0,0.0,0.0,0.0,0.0,0.0,0.0,0.0,-0.9454,0.0,0.0,0.0,0.0,0.0,0.0,-1.2081,-1.2818,-1.3009,-1.326,0.0,0.0,-1.4067,-1.4461,-1.4829,-1.5206,-1.5591,-1.5737,-1.5805,-1.5805,-1.5805,-1.6199,-1.6918,-1.6918,-1.7329,-1.804,-1.804,-1.804,-1.804,-1.804,-1.804,-1.804,-1.804,-1.804,-1.8112,-1.8895,-1.9204,-1.9301,-1.9598,-2.0141,-2.0657,-2.1115,-2.2158,-2.3314,-2.3476,-2.408,-2.4796,-2.5317,-2.5413,-2.5401,-2.6176,-2.6424,-2.6528,-2.6704,-2.6974,-2.7231,-2.7231,-2.7231,-2.7231,-2.7231,-2.7231,-2.7231,-2.7231,-2.7231,-2.7231,-2.7231,-2.7301,-2.7371,-2.7371,-2.7545,-2.7719,-2.7708,-2.8235,-2.8542,-2.8633,-2.925,-2.9858,-3.0215,-3.0367,-3.0519,-3.0745,-3.1341,-3.1709,-3.1709,-3.2475,-3.286,-3.286,-3.3171,-3.3326,-3.3326,-3.3326,-3.3396]}]]